<?xml version="1.0" encoding="UTF-8" standalone="no" ?>
<gpx xmlns="http://www.topografix.com/GPX/1/1" xmlns:xsi="http://www.w3.org/2001/XMLSchema-instance" xsi:schemaLocation="http://www.topografix.com/GPX/1/1 http://www.topografix.com/GPX/1/1/gpx.xsd" version="1.1" creator="VisuGPX - https://www.visugpx.com">
  <metadata>
    <name>RocheBranlante</name>
  </metadata>
  <trk>
    <name><![CDATA[ITI0102]]></name>
    <trkseg>
      <trkpt lat="45.68203" lon="2.79954">
        <ele>919.7</ele>
        <time>2012-06-26T17:33:35Z</time>
      </trkpt>
      <trkpt lat="45.68203" lon="2.79954">
        <ele>919.7</ele>
        <time>2012-06-26T17:33:35Z</time>
      </trkpt>
      <trkpt lat="45.68204" lon="2.79953">
        <ele>919.7</ele>
        <time>2012-06-26T17:33:35Z</time>
      </trkpt>
      <trkpt lat="45.68204" lon="2.79953">
        <ele>919.7</ele>
        <time>2012-06-26T17:33:35Z</time>
      </trkpt>
      <trkpt lat="45.68204" lon="2.79952">
        <ele>919.6</ele>
        <time>2012-06-26T17:33:35Z</time>
      </trkpt>
      <trkpt lat="45.68205" lon="2.79954">
        <ele>919.5</ele>
        <time>2012-06-26T17:33:35Z</time>
      </trkpt>
      <trkpt lat="45.68205" lon="2.79954">
        <ele>919.4</ele>
        <time>2012-06-26T17:33:35Z</time>
      </trkpt>
      <trkpt lat="45.68207" lon="2.79957">
        <ele>919.3</ele>
        <time>2012-06-26T17:33:35Z</time>
      </trkpt>
      <trkpt lat="45.68207" lon="2.79957">
        <ele>919.2</ele>
        <time>2012-06-26T17:33:35Z</time>
      </trkpt>
      <trkpt lat="45.68206" lon="2.79957">
        <ele>919.3</ele>
        <time>2012-06-26T17:33:35Z</time>
      </trkpt>
      <trkpt lat="45.68206" lon="2.79956">
        <ele>919.3</ele>
        <time>2012-06-26T17:33:35Z</time>
      </trkpt>
      <trkpt lat="45.68206" lon="2.79956">
        <ele>919.4</ele>
        <time>2012-06-26T17:33:35Z</time>
      </trkpt>
      <trkpt lat="45.68206" lon="2.79955">
        <ele>919.4</ele>
        <time>2012-06-26T17:33:35Z</time>
      </trkpt>
      <trkpt lat="45.68206" lon="2.79955">
        <ele>919.4</ele>
        <time>2012-06-26T17:33:35Z</time>
      </trkpt>
      <trkpt lat="45.68205" lon="2.79955">
        <ele>919.4</ele>
        <time>2012-06-26T17:33:35Z</time>
      </trkpt>
      <trkpt lat="45.68206" lon="2.79955">
        <ele>919.4</ele>
        <time>2012-06-26T17:33:35Z</time>
      </trkpt>
      <trkpt lat="45.68206" lon="2.79956">
        <ele>919.4</ele>
        <time>2012-06-26T17:33:35Z</time>
      </trkpt>
      <trkpt lat="45.68206" lon="2.79957">
        <ele>919.4</ele>
        <time>2012-06-26T17:33:35Z</time>
      </trkpt>
      <trkpt lat="45.68204" lon="2.79952">
        <ele>919.6</ele>
        <time>2012-06-26T17:33:35Z</time>
      </trkpt>
      <trkpt lat="45.68203" lon="2.79951">
        <ele>919.7</ele>
        <time>2012-06-26T17:33:35Z</time>
      </trkpt>
      <trkpt lat="45.68203" lon="2.79952">
        <ele>919.8</ele>
        <time>2012-06-26T17:33:35Z</time>
      </trkpt>
      <trkpt lat="45.68203" lon="2.79952">
        <ele>919.8</ele>
        <time>2012-06-26T17:33:35Z</time>
      </trkpt>
      <trkpt lat="45.68203" lon="2.79953">
        <ele>919.8</ele>
        <time>2012-06-26T17:33:35Z</time>
      </trkpt>
      <trkpt lat="45.682" lon="2.79951">
        <ele>920.1</ele>
        <time>2012-06-26T17:33:35Z</time>
      </trkpt>
      <trkpt lat="45.68197" lon="2.79951">
        <ele>920.6</ele>
        <time>2012-06-26T17:33:35Z</time>
      </trkpt>
      <trkpt lat="45.68194" lon="2.79952">
        <ele>921.1</ele>
        <time>2012-06-26T17:33:35Z</time>
      </trkpt>
      <trkpt lat="45.68189" lon="2.79954">
        <ele>921.6</ele>
        <time>2012-06-26T17:33:35Z</time>
      </trkpt>
      <trkpt lat="45.68184" lon="2.7996">
        <ele>922.1</ele>
        <time>2012-06-26T17:33:35Z</time>
      </trkpt>
      <trkpt lat="45.68181" lon="2.79963">
        <ele>922.5</ele>
        <time>2012-06-26T17:33:35Z</time>
      </trkpt>
      <trkpt lat="45.68177" lon="2.79966">
        <ele>922.9</ele>
        <time>2012-06-26T17:33:35Z</time>
      </trkpt>
      <trkpt lat="45.68172" lon="2.79968">
        <ele>923.4</ele>
        <time>2012-06-26T17:33:35Z</time>
      </trkpt>
      <trkpt lat="45.68168" lon="2.7997">
        <ele>923.8</ele>
        <time>2012-06-26T17:33:35Z</time>
      </trkpt>
      <trkpt lat="45.68164" lon="2.79975">
        <ele>924.2</ele>
        <time>2012-06-26T17:33:35Z</time>
      </trkpt>
      <trkpt lat="45.68161" lon="2.79979">
        <ele>924.4</ele>
        <time>2012-06-26T17:33:35Z</time>
      </trkpt>
      <trkpt lat="45.68157" lon="2.79983">
        <ele>924.7</ele>
        <time>2012-06-26T17:33:35Z</time>
      </trkpt>
      <trkpt lat="45.68152" lon="2.79985">
        <ele>925</ele>
        <time>2012-06-26T17:33:35Z</time>
      </trkpt>
      <trkpt lat="45.68149" lon="2.79985">
        <ele>925.3</ele>
        <time>2012-06-26T17:33:35Z</time>
      </trkpt>
      <trkpt lat="45.68149" lon="2.79985">
        <ele>925.3</ele>
        <time>2012-06-26T17:33:35Z</time>
      </trkpt>
      <trkpt lat="45.68149" lon="2.79985">
        <ele>925.3</ele>
        <time>2012-06-26T17:33:35Z</time>
      </trkpt>
      <trkpt lat="45.68149" lon="2.79986">
        <ele>925.3</ele>
        <time>2012-06-26T17:33:35Z</time>
      </trkpt>
      <trkpt lat="45.68149" lon="2.79986">
        <ele>925.3</ele>
        <time>2012-06-26T17:33:35Z</time>
      </trkpt>
      <trkpt lat="45.68149" lon="2.79986">
        <ele>925.3</ele>
        <time>2012-06-26T17:33:35Z</time>
      </trkpt>
      <trkpt lat="45.68149" lon="2.79986">
        <ele>925.3</ele>
        <time>2012-06-26T17:33:35Z</time>
      </trkpt>
      <trkpt lat="45.68149" lon="2.79986">
        <ele>925.3</ele>
        <time>2012-06-26T17:33:35Z</time>
      </trkpt>
      <trkpt lat="45.68149" lon="2.79986">
        <ele>925.3</ele>
        <time>2012-06-26T17:33:35Z</time>
      </trkpt>
      <trkpt lat="45.68149" lon="2.79986">
        <ele>925.3</ele>
        <time>2012-06-26T17:33:35Z</time>
      </trkpt>
      <trkpt lat="45.68145" lon="2.79985">
        <ele>925.5</ele>
        <time>2012-06-26T17:33:35Z</time>
      </trkpt>
      <trkpt lat="45.6814" lon="2.79984">
        <ele>925.9</ele>
        <time>2012-06-26T17:33:35Z</time>
      </trkpt>
      <trkpt lat="45.68135" lon="2.79983">
        <ele>926.3</ele>
        <time>2012-06-26T17:33:35Z</time>
      </trkpt>
      <trkpt lat="45.68129" lon="2.79983">
        <ele>926.8</ele>
        <time>2012-06-26T17:33:35Z</time>
      </trkpt>
      <trkpt lat="45.68124" lon="2.79984">
        <ele>927.3</ele>
        <time>2012-06-26T17:33:35Z</time>
      </trkpt>
      <trkpt lat="45.68118" lon="2.79984">
        <ele>927.8</ele>
        <time>2012-06-26T17:33:35Z</time>
      </trkpt>
      <trkpt lat="45.68113" lon="2.79985">
        <ele>928.3</ele>
        <time>2012-06-26T17:33:35Z</time>
      </trkpt>
      <trkpt lat="45.68108" lon="2.79986">
        <ele>928.8</ele>
        <time>2012-06-26T17:33:35Z</time>
      </trkpt>
      <trkpt lat="45.68102" lon="2.79988">
        <ele>929.2</ele>
        <time>2012-06-26T17:33:35Z</time>
      </trkpt>
      <trkpt lat="45.68097" lon="2.7999">
        <ele>929.6</ele>
        <time>2012-06-26T17:33:35Z</time>
      </trkpt>
      <trkpt lat="45.68093" lon="2.7999">
        <ele>930</ele>
        <time>2012-06-26T17:33:35Z</time>
      </trkpt>
      <trkpt lat="45.68089" lon="2.79992">
        <ele>930.3</ele>
        <time>2012-06-26T17:33:35Z</time>
      </trkpt>
      <trkpt lat="45.68086" lon="2.79995">
        <ele>930.6</ele>
        <time>2012-06-26T17:33:35Z</time>
      </trkpt>
      <trkpt lat="45.68081" lon="2.79997">
        <ele>931.1</ele>
        <time>2012-06-26T17:33:35Z</time>
      </trkpt>
      <trkpt lat="45.68076" lon="2.79999">
        <ele>931.5</ele>
        <time>2012-06-26T17:33:35Z</time>
      </trkpt>
      <trkpt lat="45.6807" lon="2.80002">
        <ele>932.2</ele>
        <time>2012-06-26T17:33:35Z</time>
      </trkpt>
      <trkpt lat="45.68063" lon="2.80005">
        <ele>932.9</ele>
        <time>2012-06-26T17:33:35Z</time>
      </trkpt>
      <trkpt lat="45.68057" lon="2.80008">
        <ele>933.7</ele>
        <time>2012-06-26T17:33:35Z</time>
      </trkpt>
      <trkpt lat="45.68052" lon="2.80008">
        <ele>934.2</ele>
        <time>2012-06-26T17:33:35Z</time>
      </trkpt>
      <trkpt lat="45.68046" lon="2.80009">
        <ele>934.8</ele>
        <time>2012-06-26T17:33:35Z</time>
      </trkpt>
      <trkpt lat="45.68041" lon="2.8001">
        <ele>935.4</ele>
        <time>2012-06-26T17:33:35Z</time>
      </trkpt>
      <trkpt lat="45.68036" lon="2.80011">
        <ele>935.9</ele>
        <time>2012-06-26T17:33:35Z</time>
      </trkpt>
      <trkpt lat="45.68031" lon="2.80012">
        <ele>936.5</ele>
        <time>2012-06-26T17:33:35Z</time>
      </trkpt>
      <trkpt lat="45.68028" lon="2.80012">
        <ele>936.7</ele>
        <time>2012-06-26T17:33:35Z</time>
      </trkpt>
      <trkpt lat="45.68027" lon="2.80013">
        <ele>936.8</ele>
        <time>2012-06-26T17:33:35Z</time>
      </trkpt>
      <trkpt lat="45.68022" lon="2.80014">
        <ele>937</ele>
        <time>2012-06-26T17:33:35Z</time>
      </trkpt>
      <trkpt lat="45.68017" lon="2.80016">
        <ele>937.2</ele>
        <time>2012-06-26T17:33:35Z</time>
      </trkpt>
      <trkpt lat="45.68013" lon="2.80018">
        <ele>937.4</ele>
        <time>2012-06-26T17:33:35Z</time>
      </trkpt>
      <trkpt lat="45.68008" lon="2.80021">
        <ele>937.6</ele>
        <time>2012-06-26T17:33:35Z</time>
      </trkpt>
      <trkpt lat="45.68003" lon="2.80025">
        <ele>937.9</ele>
        <time>2012-06-26T17:33:35Z</time>
      </trkpt>
      <trkpt lat="45.67998" lon="2.80028">
        <ele>938.2</ele>
        <time>2012-06-26T17:33:35Z</time>
      </trkpt>
      <trkpt lat="45.67992" lon="2.80033">
        <ele>938.9</ele>
        <time>2012-06-26T17:33:35Z</time>
      </trkpt>
      <trkpt lat="45.67987" lon="2.80035">
        <ele>939.5</ele>
        <time>2012-06-26T17:33:35Z</time>
      </trkpt>
      <trkpt lat="45.67982" lon="2.80039">
        <ele>940.1</ele>
        <time>2012-06-26T17:33:35Z</time>
      </trkpt>
      <trkpt lat="45.67976" lon="2.80039">
        <ele>940.6</ele>
        <time>2012-06-26T17:33:35Z</time>
      </trkpt>
      <trkpt lat="45.67971" lon="2.80043">
        <ele>941.3</ele>
        <time>2012-06-26T17:33:35Z</time>
      </trkpt>
      <trkpt lat="45.67965" lon="2.80048">
        <ele>942.2</ele>
        <time>2012-06-26T17:33:35Z</time>
      </trkpt>
      <trkpt lat="45.67958" lon="2.80051">
        <ele>943.1</ele>
        <time>2012-06-26T17:33:35Z</time>
      </trkpt>
      <trkpt lat="45.67953" lon="2.80053">
        <ele>943.8</ele>
        <time>2012-06-26T17:33:35Z</time>
      </trkpt>
      <trkpt lat="45.67948" lon="2.80054">
        <ele>944.5</ele>
        <time>2012-06-26T17:33:35Z</time>
      </trkpt>
      <trkpt lat="45.67943" lon="2.80056">
        <ele>945.2</ele>
        <time>2012-06-26T17:33:35Z</time>
      </trkpt>
      <trkpt lat="45.67936" lon="2.80058">
        <ele>945.6</ele>
        <time>2012-06-26T17:33:35Z</time>
      </trkpt>
      <trkpt lat="45.6793" lon="2.80062">
        <ele>946.4</ele>
        <time>2012-06-26T17:33:35Z</time>
      </trkpt>
      <trkpt lat="45.67922" lon="2.80066">
        <ele>947.2</ele>
        <time>2012-06-26T17:33:35Z</time>
      </trkpt>
      <trkpt lat="45.67916" lon="2.80068">
        <ele>947.9</ele>
        <time>2012-06-26T17:33:35Z</time>
      </trkpt>
      <trkpt lat="45.67914" lon="2.80065">
        <ele>947.7</ele>
        <time>2012-06-26T17:33:35Z</time>
      </trkpt>
      <trkpt lat="45.67911" lon="2.80066">
        <ele>948.2</ele>
        <time>2012-06-26T17:33:35Z</time>
      </trkpt>
      <trkpt lat="45.67905" lon="2.80067">
        <ele>948.8</ele>
        <time>2012-06-26T17:33:35Z</time>
      </trkpt>
      <trkpt lat="45.679" lon="2.80066">
        <ele>949.3</ele>
        <time>2012-06-26T17:33:35Z</time>
      </trkpt>
      <trkpt lat="45.67894" lon="2.80068">
        <ele>950.3</ele>
        <time>2012-06-26T17:33:35Z</time>
      </trkpt>
      <trkpt lat="45.67886" lon="2.80068">
        <ele>951.1</ele>
        <time>2012-06-26T17:33:35Z</time>
      </trkpt>
      <trkpt lat="45.67881" lon="2.80066">
        <ele>951.7</ele>
        <time>2012-06-26T17:33:35Z</time>
      </trkpt>
      <trkpt lat="45.67875" lon="2.80063">
        <ele>952.1</ele>
        <time>2012-06-26T17:33:35Z</time>
      </trkpt>
      <trkpt lat="45.6787" lon="2.8006">
        <ele>952.5</ele>
        <time>2012-06-26T17:33:35Z</time>
      </trkpt>
      <trkpt lat="45.67864" lon="2.80057">
        <ele>952.7</ele>
        <time>2012-06-26T17:33:35Z</time>
      </trkpt>
      <trkpt lat="45.67859" lon="2.80054">
        <ele>953</ele>
        <time>2012-06-26T17:33:35Z</time>
      </trkpt>
      <trkpt lat="45.67854" lon="2.8005">
        <ele>953.3</ele>
        <time>2012-06-26T17:33:35Z</time>
      </trkpt>
      <trkpt lat="45.67849" lon="2.80048">
        <ele>953.7</ele>
        <time>2012-06-26T17:33:35Z</time>
      </trkpt>
      <trkpt lat="45.67844" lon="2.80045">
        <ele>954</ele>
        <time>2012-06-26T17:33:35Z</time>
      </trkpt>
      <trkpt lat="45.67838" lon="2.80043">
        <ele>954.5</ele>
        <time>2012-06-26T17:33:35Z</time>
      </trkpt>
      <trkpt lat="45.67834" lon="2.8004">
        <ele>954.8</ele>
        <time>2012-06-26T17:33:35Z</time>
      </trkpt>
      <trkpt lat="45.67829" lon="2.80038">
        <ele>955.2</ele>
        <time>2012-06-26T17:33:35Z</time>
      </trkpt>
      <trkpt lat="45.67824" lon="2.80036">
        <ele>955.8</ele>
        <time>2012-06-26T17:33:35Z</time>
      </trkpt>
      <trkpt lat="45.67819" lon="2.80033">
        <ele>956.4</ele>
        <time>2012-06-26T17:33:35Z</time>
      </trkpt>
      <trkpt lat="45.67813" lon="2.80031">
        <ele>957</ele>
        <time>2012-06-26T17:33:35Z</time>
      </trkpt>
      <trkpt lat="45.67808" lon="2.80028">
        <ele>957.6</ele>
        <time>2012-06-26T17:33:35Z</time>
      </trkpt>
      <trkpt lat="45.67803" lon="2.80027">
        <ele>958.2</ele>
        <time>2012-06-26T17:33:35Z</time>
      </trkpt>
      <trkpt lat="45.67797" lon="2.80025">
        <ele>958.5</ele>
        <time>2012-06-26T17:33:35Z</time>
      </trkpt>
      <trkpt lat="45.67791" lon="2.80023">
        <ele>958.8</ele>
        <time>2012-06-26T17:33:35Z</time>
      </trkpt>
      <trkpt lat="45.67786" lon="2.80021">
        <ele>959.2</ele>
        <time>2012-06-26T17:33:35Z</time>
      </trkpt>
      <trkpt lat="45.6778" lon="2.8002">
        <ele>959.6</ele>
        <time>2012-06-26T17:33:35Z</time>
      </trkpt>
      <trkpt lat="45.67774" lon="2.80019">
        <ele>960.1</ele>
        <time>2012-06-26T17:33:35Z</time>
      </trkpt>
      <trkpt lat="45.67768" lon="2.80018">
        <ele>960.6</ele>
        <time>2012-06-26T17:33:35Z</time>
      </trkpt>
      <trkpt lat="45.67762" lon="2.80017">
        <ele>961.2</ele>
        <time>2012-06-26T17:33:35Z</time>
      </trkpt>
      <trkpt lat="45.67756" lon="2.80017">
        <ele>961.8</ele>
        <time>2012-06-26T17:33:35Z</time>
      </trkpt>
      <trkpt lat="45.6775" lon="2.80017">
        <ele>962.4</ele>
        <time>2012-06-26T17:33:35Z</time>
      </trkpt>
      <trkpt lat="45.67744" lon="2.80017">
        <ele>962.6</ele>
        <time>2012-06-26T17:33:35Z</time>
      </trkpt>
      <trkpt lat="45.67738" lon="2.80017">
        <ele>962.7</ele>
        <time>2012-06-26T17:33:35Z</time>
      </trkpt>
      <trkpt lat="45.67733" lon="2.80016">
        <ele>962.9</ele>
        <time>2012-06-26T17:33:35Z</time>
      </trkpt>
      <trkpt lat="45.67727" lon="2.80016">
        <ele>963</ele>
        <time>2012-06-26T17:33:35Z</time>
      </trkpt>
      <trkpt lat="45.67726" lon="2.80017">
        <ele>963.1</ele>
        <time>2012-06-26T17:33:35Z</time>
      </trkpt>
      <trkpt lat="45.67726" lon="2.80017">
        <ele>963.1</ele>
        <time>2012-06-26T17:33:35Z</time>
      </trkpt>
      <trkpt lat="45.67722" lon="2.80017">
        <ele>963.2</ele>
        <time>2012-06-26T17:33:35Z</time>
      </trkpt>
      <trkpt lat="45.67717" lon="2.80017">
        <ele>963.1</ele>
        <time>2012-06-26T17:33:35Z</time>
      </trkpt>
      <trkpt lat="45.67711" lon="2.80018">
        <ele>963</ele>
        <time>2012-06-26T17:33:35Z</time>
      </trkpt>
      <trkpt lat="45.67706" lon="2.80018">
        <ele>962.9</ele>
        <time>2012-06-26T17:33:35Z</time>
      </trkpt>
      <trkpt lat="45.677" lon="2.80019">
        <ele>962.9</ele>
        <time>2012-06-26T17:33:35Z</time>
      </trkpt>
      <trkpt lat="45.67694" lon="2.8002">
        <ele>962.9</ele>
        <time>2012-06-26T17:33:35Z</time>
      </trkpt>
      <trkpt lat="45.67688" lon="2.80021">
        <ele>962.9</ele>
        <time>2012-06-26T17:33:35Z</time>
      </trkpt>
      <trkpt lat="45.67682" lon="2.80022">
        <ele>962.8</ele>
        <time>2012-06-26T17:33:35Z</time>
      </trkpt>
      <trkpt lat="45.67676" lon="2.80023">
        <ele>962.7</ele>
        <time>2012-06-26T17:33:35Z</time>
      </trkpt>
      <trkpt lat="45.6767" lon="2.80025">
        <ele>962.7</ele>
        <time>2012-06-26T17:33:35Z</time>
      </trkpt>
      <trkpt lat="45.67664" lon="2.80026">
        <ele>962.7</ele>
        <time>2012-06-26T17:33:35Z</time>
      </trkpt>
      <trkpt lat="45.67659" lon="2.80027">
        <ele>962.6</ele>
        <time>2012-06-26T17:33:35Z</time>
      </trkpt>
      <trkpt lat="45.67653" lon="2.80028">
        <ele>962.6</ele>
        <time>2012-06-26T17:33:35Z</time>
      </trkpt>
      <trkpt lat="45.67647" lon="2.80029">
        <ele>962.4</ele>
        <time>2012-06-26T17:33:35Z</time>
      </trkpt>
      <trkpt lat="45.67643" lon="2.80031">
        <ele>962.6</ele>
        <time>2012-06-26T17:33:35Z</time>
      </trkpt>
      <trkpt lat="45.67637" lon="2.80031">
        <ele>962.5</ele>
        <time>2012-06-26T17:33:35Z</time>
      </trkpt>
      <trkpt lat="45.67631" lon="2.8003">
        <ele>962.5</ele>
        <time>2012-06-26T17:33:35Z</time>
      </trkpt>
      <trkpt lat="45.67626" lon="2.80031">
        <ele>962.8</ele>
        <time>2012-06-26T17:33:35Z</time>
      </trkpt>
      <trkpt lat="45.6762" lon="2.80031">
        <ele>963</ele>
        <time>2012-06-26T17:33:35Z</time>
      </trkpt>
      <trkpt lat="45.67614" lon="2.8003">
        <ele>963.1</ele>
        <time>2012-06-26T17:33:35Z</time>
      </trkpt>
      <trkpt lat="45.67608" lon="2.80029">
        <ele>963.3</ele>
        <time>2012-06-26T17:33:35Z</time>
      </trkpt>
      <trkpt lat="45.67603" lon="2.8003">
        <ele>963.5</ele>
        <time>2012-06-26T17:33:35Z</time>
      </trkpt>
      <trkpt lat="45.67597" lon="2.80029">
        <ele>963.7</ele>
        <time>2012-06-26T17:33:35Z</time>
      </trkpt>
      <trkpt lat="45.67592" lon="2.80029">
        <ele>963.8</ele>
        <time>2012-06-26T17:33:35Z</time>
      </trkpt>
      <trkpt lat="45.67586" lon="2.80029">
        <ele>964</ele>
        <time>2012-06-26T17:33:35Z</time>
      </trkpt>
      <trkpt lat="45.6758" lon="2.80028">
        <ele>964.2</ele>
        <time>2012-06-26T17:33:35Z</time>
      </trkpt>
      <trkpt lat="45.67574" lon="2.80028">
        <ele>964.3</ele>
        <time>2012-06-26T17:33:35Z</time>
      </trkpt>
      <trkpt lat="45.67568" lon="2.80028">
        <ele>964.5</ele>
        <time>2012-06-26T17:33:35Z</time>
      </trkpt>
      <trkpt lat="45.67563" lon="2.80027">
        <ele>964.7</ele>
        <time>2012-06-26T17:33:35Z</time>
      </trkpt>
      <trkpt lat="45.67557" lon="2.80026">
        <ele>964.8</ele>
        <time>2012-06-26T17:33:35Z</time>
      </trkpt>
      <trkpt lat="45.67551" lon="2.80027">
        <ele>964.8</ele>
        <time>2012-06-26T17:33:35Z</time>
      </trkpt>
      <trkpt lat="45.67545" lon="2.80028">
        <ele>964.7</ele>
        <time>2012-06-26T17:33:35Z</time>
      </trkpt>
      <trkpt lat="45.67539" lon="2.80029">
        <ele>964.5</ele>
        <time>2012-06-26T17:33:35Z</time>
      </trkpt>
      <trkpt lat="45.67534" lon="2.8003">
        <ele>964.4</ele>
        <time>2012-06-26T17:33:35Z</time>
      </trkpt>
      <trkpt lat="45.67528" lon="2.80031">
        <ele>964.3</ele>
        <time>2012-06-26T17:33:35Z</time>
      </trkpt>
      <trkpt lat="45.67522" lon="2.80032">
        <ele>964.1</ele>
        <time>2012-06-26T17:33:35Z</time>
      </trkpt>
      <trkpt lat="45.67517" lon="2.80034">
        <ele>964</ele>
        <time>2012-06-26T17:33:35Z</time>
      </trkpt>
      <trkpt lat="45.67511" lon="2.80036">
        <ele>964</ele>
        <time>2012-06-26T17:33:35Z</time>
      </trkpt>
      <trkpt lat="45.67505" lon="2.80037">
        <ele>963.8</ele>
        <time>2012-06-26T17:33:35Z</time>
      </trkpt>
      <trkpt lat="45.675" lon="2.80038">
        <ele>963.7</ele>
        <time>2012-06-26T17:33:35Z</time>
      </trkpt>
      <trkpt lat="45.67494" lon="2.8004">
        <ele>963.8</ele>
        <time>2012-06-26T17:33:35Z</time>
      </trkpt>
      <trkpt lat="45.67489" lon="2.80042">
        <ele>963.8</ele>
        <time>2012-06-26T17:33:35Z</time>
      </trkpt>
      <trkpt lat="45.67484" lon="2.80042">
        <ele>963.8</ele>
        <time>2012-06-26T17:33:35Z</time>
      </trkpt>
      <trkpt lat="45.67478" lon="2.80042">
        <ele>963.7</ele>
        <time>2012-06-26T17:33:35Z</time>
      </trkpt>
      <trkpt lat="45.67471" lon="2.80043">
        <ele>963.7</ele>
        <time>2012-06-26T17:33:35Z</time>
      </trkpt>
      <trkpt lat="45.67465" lon="2.80045">
        <ele>963.8</ele>
        <time>2012-06-26T17:33:35Z</time>
      </trkpt>
      <trkpt lat="45.67458" lon="2.80045">
        <ele>963.9</ele>
        <time>2012-06-26T17:33:35Z</time>
      </trkpt>
      <trkpt lat="45.67452" lon="2.80046">
        <ele>964</ele>
        <time>2012-06-26T17:33:35Z</time>
      </trkpt>
      <trkpt lat="45.67446" lon="2.80046">
        <ele>964</ele>
        <time>2012-06-26T17:33:35Z</time>
      </trkpt>
      <trkpt lat="45.6744" lon="2.80047">
        <ele>964</ele>
        <time>2012-06-26T17:33:35Z</time>
      </trkpt>
      <trkpt lat="45.67434" lon="2.80047">
        <ele>963.8</ele>
        <time>2012-06-26T17:33:35Z</time>
      </trkpt>
      <trkpt lat="45.67428" lon="2.80048">
        <ele>963.8</ele>
        <time>2012-06-26T17:33:35Z</time>
      </trkpt>
      <trkpt lat="45.67421" lon="2.80048">
        <ele>963.6</ele>
        <time>2012-06-26T17:33:35Z</time>
      </trkpt>
      <trkpt lat="45.67416" lon="2.8005">
        <ele>963.6</ele>
        <time>2012-06-26T17:33:35Z</time>
      </trkpt>
      <trkpt lat="45.6741" lon="2.80051">
        <ele>963.6</ele>
        <time>2012-06-26T17:33:35Z</time>
      </trkpt>
      <trkpt lat="45.67403" lon="2.80051">
        <ele>963.7</ele>
        <time>2012-06-26T17:33:35Z</time>
      </trkpt>
      <trkpt lat="45.67397" lon="2.80052">
        <ele>963.8</ele>
        <time>2012-06-26T17:33:35Z</time>
      </trkpt>
      <trkpt lat="45.67391" lon="2.80053">
        <ele>963.8</ele>
        <time>2012-06-26T17:33:35Z</time>
      </trkpt>
      <trkpt lat="45.67385" lon="2.80053">
        <ele>963.8</ele>
        <time>2012-06-26T17:33:35Z</time>
      </trkpt>
      <trkpt lat="45.67379" lon="2.80054">
        <ele>963.9</ele>
        <time>2012-06-26T17:33:35Z</time>
      </trkpt>
      <trkpt lat="45.67373" lon="2.80054">
        <ele>963.9</ele>
        <time>2012-06-26T17:33:35Z</time>
      </trkpt>
      <trkpt lat="45.67367" lon="2.80055">
        <ele>964</ele>
        <time>2012-06-26T17:33:35Z</time>
      </trkpt>
      <trkpt lat="45.67362" lon="2.80055">
        <ele>964</ele>
        <time>2012-06-26T17:33:35Z</time>
      </trkpt>
      <trkpt lat="45.67356" lon="2.80055">
        <ele>963.8</ele>
        <time>2012-06-26T17:33:35Z</time>
      </trkpt>
      <trkpt lat="45.6735" lon="2.80055">
        <ele>963.6</ele>
        <time>2012-06-26T17:33:35Z</time>
      </trkpt>
      <trkpt lat="45.67344" lon="2.80055">
        <ele>963.4</ele>
        <time>2012-06-26T17:33:35Z</time>
      </trkpt>
      <trkpt lat="45.67338" lon="2.80055">
        <ele>963.2</ele>
        <time>2012-06-26T17:33:35Z</time>
      </trkpt>
      <trkpt lat="45.67333" lon="2.80054">
        <ele>962.9</ele>
        <time>2012-06-26T17:33:35Z</time>
      </trkpt>
      <trkpt lat="45.67327" lon="2.80054">
        <ele>962.7</ele>
        <time>2012-06-26T17:33:35Z</time>
      </trkpt>
      <trkpt lat="45.67322" lon="2.80054">
        <ele>962.4</ele>
        <time>2012-06-26T17:33:35Z</time>
      </trkpt>
      <trkpt lat="45.67316" lon="2.80053">
        <ele>962.2</ele>
        <time>2012-06-26T17:33:35Z</time>
      </trkpt>
      <trkpt lat="45.67309" lon="2.80053">
        <ele>961.9</ele>
        <time>2012-06-26T17:33:35Z</time>
      </trkpt>
      <trkpt lat="45.67303" lon="2.80052">
        <ele>961.7</ele>
        <time>2012-06-26T17:33:35Z</time>
      </trkpt>
      <trkpt lat="45.67297" lon="2.80051">
        <ele>961.4</ele>
        <time>2012-06-26T17:33:35Z</time>
      </trkpt>
      <trkpt lat="45.67291" lon="2.8005">
        <ele>961.2</ele>
        <time>2012-06-26T17:33:35Z</time>
      </trkpt>
      <trkpt lat="45.67285" lon="2.80049">
        <ele>961</ele>
        <time>2012-06-26T17:33:35Z</time>
      </trkpt>
      <trkpt lat="45.6728" lon="2.80049">
        <ele>960.8</ele>
        <time>2012-06-26T17:33:35Z</time>
      </trkpt>
      <trkpt lat="45.67274" lon="2.80049">
        <ele>960.6</ele>
        <time>2012-06-26T17:33:35Z</time>
      </trkpt>
      <trkpt lat="45.67268" lon="2.80049">
        <ele>960.4</ele>
        <time>2012-06-26T17:33:35Z</time>
      </trkpt>
      <trkpt lat="45.67262" lon="2.80049">
        <ele>960.2</ele>
        <time>2012-06-26T17:33:35Z</time>
      </trkpt>
      <trkpt lat="45.67256" lon="2.80049">
        <ele>960</ele>
        <time>2012-06-26T17:33:35Z</time>
      </trkpt>
      <trkpt lat="45.6725" lon="2.8005">
        <ele>959.8</ele>
        <time>2012-06-26T17:33:35Z</time>
      </trkpt>
      <trkpt lat="45.67244" lon="2.8005">
        <ele>959.6</ele>
        <time>2012-06-26T17:33:35Z</time>
      </trkpt>
      <trkpt lat="45.67238" lon="2.80051">
        <ele>959.4</ele>
        <time>2012-06-26T17:33:35Z</time>
      </trkpt>
      <trkpt lat="45.67232" lon="2.80052">
        <ele>959.2</ele>
        <time>2012-06-26T17:33:35Z</time>
      </trkpt>
      <trkpt lat="45.67226" lon="2.80054">
        <ele>959.1</ele>
        <time>2012-06-26T17:33:35Z</time>
      </trkpt>
      <trkpt lat="45.6722" lon="2.80056">
        <ele>958.8</ele>
        <time>2012-06-26T17:33:35Z</time>
      </trkpt>
      <trkpt lat="45.67214" lon="2.80057">
        <ele>958.5</ele>
        <time>2012-06-26T17:33:35Z</time>
      </trkpt>
      <trkpt lat="45.67208" lon="2.80059">
        <ele>958.2</ele>
        <time>2012-06-26T17:33:35Z</time>
      </trkpt>
      <trkpt lat="45.67202" lon="2.80062">
        <ele>958</ele>
        <time>2012-06-26T17:33:35Z</time>
      </trkpt>
      <trkpt lat="45.67196" lon="2.80064">
        <ele>957.7</ele>
        <time>2012-06-26T17:33:35Z</time>
      </trkpt>
      <trkpt lat="45.67191" lon="2.80066">
        <ele>957.5</ele>
        <time>2012-06-26T17:33:35Z</time>
      </trkpt>
      <trkpt lat="45.67185" lon="2.80069">
        <ele>957.3</ele>
        <time>2012-06-26T17:33:35Z</time>
      </trkpt>
      <trkpt lat="45.6718" lon="2.80071">
        <ele>957</ele>
        <time>2012-06-26T17:33:35Z</time>
      </trkpt>
      <trkpt lat="45.67174" lon="2.80073">
        <ele>956.8</ele>
        <time>2012-06-26T17:33:35Z</time>
      </trkpt>
      <trkpt lat="45.67169" lon="2.80076">
        <ele>956.6</ele>
        <time>2012-06-26T17:33:35Z</time>
      </trkpt>
      <trkpt lat="45.67163" lon="2.80078">
        <ele>956.4</ele>
        <time>2012-06-26T17:33:35Z</time>
      </trkpt>
      <trkpt lat="45.67157" lon="2.80081">
        <ele>956.4</ele>
        <time>2012-06-26T17:33:35Z</time>
      </trkpt>
      <trkpt lat="45.67151" lon="2.80083">
        <ele>956.4</ele>
        <time>2012-06-26T17:33:35Z</time>
      </trkpt>
      <trkpt lat="45.67144" lon="2.80084">
        <ele>956.4</ele>
        <time>2012-06-26T17:33:35Z</time>
      </trkpt>
      <trkpt lat="45.67138" lon="2.80085">
        <ele>956.2</ele>
        <time>2012-06-26T17:33:35Z</time>
      </trkpt>
      <trkpt lat="45.67132" lon="2.80087">
        <ele>956.1</ele>
        <time>2012-06-26T17:33:35Z</time>
      </trkpt>
      <trkpt lat="45.67126" lon="2.80088">
        <ele>955.9</ele>
        <time>2012-06-26T17:33:35Z</time>
      </trkpt>
      <trkpt lat="45.67119" lon="2.80089">
        <ele>955.7</ele>
        <time>2012-06-26T17:33:35Z</time>
      </trkpt>
      <trkpt lat="45.67113" lon="2.8009">
        <ele>955.4</ele>
        <time>2012-06-26T17:33:35Z</time>
      </trkpt>
      <trkpt lat="45.67106" lon="2.80092">
        <ele>955.1</ele>
        <time>2012-06-26T17:33:35Z</time>
      </trkpt>
      <trkpt lat="45.671" lon="2.80092">
        <ele>954.7</ele>
        <time>2012-06-26T17:33:35Z</time>
      </trkpt>
      <trkpt lat="45.67094" lon="2.80093">
        <ele>954.2</ele>
        <time>2012-06-26T17:33:35Z</time>
      </trkpt>
      <trkpt lat="45.67088" lon="2.80093">
        <ele>953.8</ele>
        <time>2012-06-26T17:33:35Z</time>
      </trkpt>
      <trkpt lat="45.67083" lon="2.80092">
        <ele>953.3</ele>
        <time>2012-06-26T17:33:35Z</time>
      </trkpt>
      <trkpt lat="45.67077" lon="2.8009">
        <ele>953.2</ele>
        <time>2012-06-26T17:33:35Z</time>
      </trkpt>
      <trkpt lat="45.67071" lon="2.80087">
        <ele>952.9</ele>
        <time>2012-06-26T17:33:35Z</time>
      </trkpt>
      <trkpt lat="45.67065" lon="2.80084">
        <ele>952.8</ele>
        <time>2012-06-26T17:33:35Z</time>
      </trkpt>
      <trkpt lat="45.67059" lon="2.8008">
        <ele>952.3</ele>
        <time>2012-06-26T17:33:35Z</time>
      </trkpt>
      <trkpt lat="45.67054" lon="2.80077">
        <ele>951.9</ele>
        <time>2012-06-26T17:33:35Z</time>
      </trkpt>
      <trkpt lat="45.67049" lon="2.80074">
        <ele>951.7</ele>
        <time>2012-06-26T17:33:35Z</time>
      </trkpt>
      <trkpt lat="45.67043" lon="2.80071">
        <ele>951.6</ele>
        <time>2012-06-26T17:33:35Z</time>
      </trkpt>
      <trkpt lat="45.67038" lon="2.80066">
        <ele>951.4</ele>
        <time>2012-06-26T17:33:35Z</time>
      </trkpt>
      <trkpt lat="45.67031" lon="2.80063">
        <ele>951.4</ele>
        <time>2012-06-26T17:33:35Z</time>
      </trkpt>
      <trkpt lat="45.67026" lon="2.80059">
        <ele>951.5</ele>
        <time>2012-06-26T17:33:35Z</time>
      </trkpt>
      <trkpt lat="45.67021" lon="2.80058">
        <ele>951.5</ele>
        <time>2012-06-26T17:33:35Z</time>
      </trkpt>
      <trkpt lat="45.67015" lon="2.80054">
        <ele>951.3</ele>
        <time>2012-06-26T17:33:35Z</time>
      </trkpt>
      <trkpt lat="45.67009" lon="2.80051">
        <ele>951.1</ele>
        <time>2012-06-26T17:33:35Z</time>
      </trkpt>
      <trkpt lat="45.67004" lon="2.80048">
        <ele>951</ele>
        <time>2012-06-26T17:33:35Z</time>
      </trkpt>
      <trkpt lat="45.66998" lon="2.80045">
        <ele>951.1</ele>
        <time>2012-06-26T17:33:35Z</time>
      </trkpt>
      <trkpt lat="45.66991" lon="2.80042">
        <ele>951.5</ele>
        <time>2012-06-26T17:33:35Z</time>
      </trkpt>
      <trkpt lat="45.66985" lon="2.8004">
        <ele>952</ele>
        <time>2012-06-26T17:33:35Z</time>
      </trkpt>
      <trkpt lat="45.66979" lon="2.80039">
        <ele>952.4</ele>
        <time>2012-06-26T17:33:35Z</time>
      </trkpt>
      <trkpt lat="45.66973" lon="2.80038">
        <ele>953</ele>
        <time>2012-06-26T17:33:35Z</time>
      </trkpt>
      <trkpt lat="45.66968" lon="2.80035">
        <ele>953.2</ele>
        <time>2012-06-26T17:33:35Z</time>
      </trkpt>
      <trkpt lat="45.66962" lon="2.80034">
        <ele>953.5</ele>
        <time>2012-06-26T17:33:35Z</time>
      </trkpt>
      <trkpt lat="45.66957" lon="2.80033">
        <ele>953.8</ele>
        <time>2012-06-26T17:33:35Z</time>
      </trkpt>
      <trkpt lat="45.6695" lon="2.80031">
        <ele>954</ele>
        <time>2012-06-26T17:33:35Z</time>
      </trkpt>
      <trkpt lat="45.66944" lon="2.80028">
        <ele>954.1</ele>
        <time>2012-06-26T17:33:35Z</time>
      </trkpt>
      <trkpt lat="45.66936" lon="2.80026">
        <ele>954.6</ele>
        <time>2012-06-26T17:33:35Z</time>
      </trkpt>
      <trkpt lat="45.6693" lon="2.80024">
        <ele>955</ele>
        <time>2012-06-26T17:33:35Z</time>
      </trkpt>
      <trkpt lat="45.66924" lon="2.80022">
        <ele>955.4</ele>
        <time>2012-06-26T17:33:35Z</time>
      </trkpt>
      <trkpt lat="45.6692" lon="2.8002">
        <ele>955.6</ele>
        <time>2012-06-26T17:33:35Z</time>
      </trkpt>
      <trkpt lat="45.66915" lon="2.80017">
        <ele>955.6</ele>
        <time>2012-06-26T17:33:35Z</time>
      </trkpt>
      <trkpt lat="45.6691" lon="2.80013">
        <ele>955.7</ele>
        <time>2012-06-26T17:33:35Z</time>
      </trkpt>
      <trkpt lat="45.66903" lon="2.80011">
        <ele>956.2</ele>
        <time>2012-06-26T17:33:35Z</time>
      </trkpt>
      <trkpt lat="45.66897" lon="2.80008">
        <ele>956.4</ele>
        <time>2012-06-26T17:33:35Z</time>
      </trkpt>
      <trkpt lat="45.66891" lon="2.80005">
        <ele>956.6</ele>
        <time>2012-06-26T17:33:35Z</time>
      </trkpt>
      <trkpt lat="45.66886" lon="2.79999">
        <ele>956.5</ele>
        <time>2012-06-26T17:33:35Z</time>
      </trkpt>
      <trkpt lat="45.66882" lon="2.79992">
        <ele>956.7</ele>
        <time>2012-06-26T17:33:35Z</time>
      </trkpt>
      <trkpt lat="45.66878" lon="2.79985">
        <ele>956.6</ele>
        <time>2012-06-26T17:33:35Z</time>
      </trkpt>
      <trkpt lat="45.66874" lon="2.79978">
        <ele>956.6</ele>
        <time>2012-06-26T17:33:35Z</time>
      </trkpt>
      <trkpt lat="45.66871" lon="2.79971">
        <ele>956.1</ele>
        <time>2012-06-26T17:33:35Z</time>
      </trkpt>
      <trkpt lat="45.66868" lon="2.79964">
        <ele>955.9</ele>
        <time>2012-06-26T17:33:35Z</time>
      </trkpt>
      <trkpt lat="45.66864" lon="2.79956">
        <ele>955.7</ele>
        <time>2012-06-26T17:33:35Z</time>
      </trkpt>
      <trkpt lat="45.66861" lon="2.7995">
        <ele>955.6</ele>
        <time>2012-06-26T17:33:35Z</time>
      </trkpt>
      <trkpt lat="45.66857" lon="2.79944">
        <ele>955.9</ele>
        <time>2012-06-26T17:33:35Z</time>
      </trkpt>
      <trkpt lat="45.66853" lon="2.79938">
        <ele>956.4</ele>
        <time>2012-06-26T17:33:35Z</time>
      </trkpt>
      <trkpt lat="45.6685" lon="2.7993">
        <ele>956.6</ele>
        <time>2012-06-26T17:33:35Z</time>
      </trkpt>
      <trkpt lat="45.66846" lon="2.79923">
        <ele>956.8</ele>
        <time>2012-06-26T17:33:35Z</time>
      </trkpt>
      <trkpt lat="45.66842" lon="2.79916">
        <ele>957.1</ele>
        <time>2012-06-26T17:33:35Z</time>
      </trkpt>
      <trkpt lat="45.66837" lon="2.7991">
        <ele>958</ele>
        <time>2012-06-26T17:33:35Z</time>
      </trkpt>
      <trkpt lat="45.66832" lon="2.79905">
        <ele>958.8</ele>
        <time>2012-06-26T17:33:35Z</time>
      </trkpt>
      <trkpt lat="45.66827" lon="2.79899">
        <ele>959.5</ele>
        <time>2012-06-26T17:33:35Z</time>
      </trkpt>
      <trkpt lat="45.66822" lon="2.79895">
        <ele>960.1</ele>
        <time>2012-06-26T17:33:35Z</time>
      </trkpt>
      <trkpt lat="45.66817" lon="2.79893">
        <ele>960.7</ele>
        <time>2012-06-26T17:33:35Z</time>
      </trkpt>
      <trkpt lat="45.66811" lon="2.7989">
        <ele>961.4</ele>
        <time>2012-06-26T17:33:35Z</time>
      </trkpt>
      <trkpt lat="45.66805" lon="2.79888">
        <ele>962</ele>
        <time>2012-06-26T17:33:35Z</time>
      </trkpt>
      <trkpt lat="45.66799" lon="2.79886">
        <ele>962.3</ele>
        <time>2012-06-26T17:33:35Z</time>
      </trkpt>
      <trkpt lat="45.66793" lon="2.79884">
        <ele>962.7</ele>
        <time>2012-06-26T17:33:35Z</time>
      </trkpt>
      <trkpt lat="45.66787" lon="2.79881">
        <ele>962.9</ele>
        <time>2012-06-26T17:33:35Z</time>
      </trkpt>
      <trkpt lat="45.66781" lon="2.79879">
        <ele>963.3</ele>
        <time>2012-06-26T17:33:35Z</time>
      </trkpt>
      <trkpt lat="45.66774" lon="2.79878">
        <ele>963.8</ele>
        <time>2012-06-26T17:33:35Z</time>
      </trkpt>
      <trkpt lat="45.66768" lon="2.79877">
        <ele>964.3</ele>
        <time>2012-06-26T17:33:35Z</time>
      </trkpt>
      <trkpt lat="45.66762" lon="2.79877">
        <ele>964.7</ele>
        <time>2012-06-26T17:33:35Z</time>
      </trkpt>
      <trkpt lat="45.66756" lon="2.79876">
        <ele>965.2</ele>
        <time>2012-06-26T17:33:35Z</time>
      </trkpt>
      <trkpt lat="45.66749" lon="2.79876">
        <ele>965.9</ele>
        <time>2012-06-26T17:33:35Z</time>
      </trkpt>
      <trkpt lat="45.66743" lon="2.79876">
        <ele>966.4</ele>
        <time>2012-06-26T17:33:35Z</time>
      </trkpt>
      <trkpt lat="45.66737" lon="2.79875">
        <ele>967</ele>
        <time>2012-06-26T17:33:35Z</time>
      </trkpt>
      <trkpt lat="45.66731" lon="2.79871">
        <ele>966.5</ele>
        <time>2012-06-26T17:33:35Z</time>
      </trkpt>
      <trkpt lat="45.66726" lon="2.79868">
        <ele>966.4</ele>
        <time>2012-06-26T17:33:35Z</time>
      </trkpt>
      <trkpt lat="45.66723" lon="2.79866">
        <ele>966.1</ele>
        <time>2012-06-26T17:33:35Z</time>
      </trkpt>
      <trkpt lat="45.66722" lon="2.79864">
        <ele>965.8</ele>
        <time>2012-06-26T17:33:35Z</time>
      </trkpt>
      <trkpt lat="45.66721" lon="2.79864">
        <ele>965.8</ele>
        <time>2012-06-26T17:33:35Z</time>
      </trkpt>
      <trkpt lat="45.6672" lon="2.79864">
        <ele>965.9</ele>
        <time>2012-06-26T17:33:35Z</time>
      </trkpt>
      <trkpt lat="45.6672" lon="2.79864">
        <ele>965.9</ele>
        <time>2012-06-26T17:33:35Z</time>
      </trkpt>
      <trkpt lat="45.66717" lon="2.79863">
        <ele>965.8</ele>
        <time>2012-06-26T17:33:35Z</time>
      </trkpt>
      <trkpt lat="45.66716" lon="2.79862">
        <ele>965.8</ele>
        <time>2012-06-26T17:33:35Z</time>
      </trkpt>
      <trkpt lat="45.66716" lon="2.79862">
        <ele>965.8</ele>
        <time>2012-06-26T17:33:35Z</time>
      </trkpt>
      <trkpt lat="45.66715" lon="2.79862">
        <ele>965.8</ele>
        <time>2012-06-26T17:33:35Z</time>
      </trkpt>
      <trkpt lat="45.66715" lon="2.79862">
        <ele>965.7</ele>
        <time>2012-06-26T17:33:35Z</time>
      </trkpt>
      <trkpt lat="45.66715" lon="2.79861">
        <ele>965.5</ele>
        <time>2012-06-26T17:33:35Z</time>
      </trkpt>
      <trkpt lat="45.66715" lon="2.79862">
        <ele>965.7</ele>
        <time>2012-06-26T17:33:35Z</time>
      </trkpt>
      <trkpt lat="45.6671" lon="2.79862">
        <ele>966.2</ele>
        <time>2012-06-26T17:33:35Z</time>
      </trkpt>
      <trkpt lat="45.66704" lon="2.79863">
        <ele>966.9</ele>
        <time>2012-06-26T17:33:35Z</time>
      </trkpt>
      <trkpt lat="45.66699" lon="2.79867">
        <ele>968.2</ele>
        <time>2012-06-26T17:33:35Z</time>
      </trkpt>
      <trkpt lat="45.66692" lon="2.79868">
        <ele>969.3</ele>
        <time>2012-06-26T17:33:35Z</time>
      </trkpt>
      <trkpt lat="45.66686" lon="2.7987">
        <ele>970.3</ele>
        <time>2012-06-26T17:33:35Z</time>
      </trkpt>
      <trkpt lat="45.66682" lon="2.79868">
        <ele>969.8</ele>
        <time>2012-06-26T17:33:35Z</time>
      </trkpt>
      <trkpt lat="45.66681" lon="2.79864">
        <ele>968.9</ele>
        <time>2012-06-26T17:33:35Z</time>
      </trkpt>
      <trkpt lat="45.66677" lon="2.79863">
        <ele>968.8</ele>
        <time>2012-06-26T17:33:35Z</time>
      </trkpt>
      <trkpt lat="45.66673" lon="2.79862">
        <ele>968.9</ele>
        <time>2012-06-26T17:33:35Z</time>
      </trkpt>
      <trkpt lat="45.66669" lon="2.79862">
        <ele>969.1</ele>
        <time>2012-06-26T17:33:35Z</time>
      </trkpt>
      <trkpt lat="45.66667" lon="2.79861">
        <ele>968.8</ele>
        <time>2012-06-26T17:33:35Z</time>
      </trkpt>
      <trkpt lat="45.66666" lon="2.79859">
        <ele>968.5</ele>
        <time>2012-06-26T17:33:35Z</time>
      </trkpt>
      <trkpt lat="45.66666" lon="2.79858">
        <ele>968.1</ele>
        <time>2012-06-26T17:33:35Z</time>
      </trkpt>
      <trkpt lat="45.66666" lon="2.79858">
        <ele>968</ele>
        <time>2012-06-26T17:33:35Z</time>
      </trkpt>
      <trkpt lat="45.66666" lon="2.7986">
        <ele>968.6</ele>
        <time>2012-06-26T17:33:35Z</time>
      </trkpt>
      <trkpt lat="45.66667" lon="2.79861">
        <ele>968.8</ele>
        <time>2012-06-26T17:33:35Z</time>
      </trkpt>
      <trkpt lat="45.66667" lon="2.79861">
        <ele>969</ele>
        <time>2012-06-26T17:33:35Z</time>
      </trkpt>
      <trkpt lat="45.66667" lon="2.79862">
        <ele>969.1</ele>
        <time>2012-06-26T17:33:35Z</time>
      </trkpt>
      <trkpt lat="45.66667" lon="2.79862">
        <ele>969.3</ele>
        <time>2012-06-26T17:33:35Z</time>
      </trkpt>
      <trkpt lat="45.66664" lon="2.79862">
        <ele>969.3</ele>
        <time>2012-06-26T17:33:35Z</time>
      </trkpt>
      <trkpt lat="45.6666" lon="2.79861">
        <ele>969.1</ele>
        <time>2012-06-26T17:33:35Z</time>
      </trkpt>
      <trkpt lat="45.66655" lon="2.7986">
        <ele>969.2</ele>
        <time>2012-06-26T17:33:35Z</time>
      </trkpt>
      <trkpt lat="45.66648" lon="2.7986">
        <ele>969.4</ele>
        <time>2012-06-26T17:33:35Z</time>
      </trkpt>
      <trkpt lat="45.66642" lon="2.79859">
        <ele>969.3</ele>
        <time>2012-06-26T17:33:35Z</time>
      </trkpt>
      <trkpt lat="45.66637" lon="2.79857">
        <ele>968.9</ele>
        <time>2012-06-26T17:33:35Z</time>
      </trkpt>
      <trkpt lat="45.66631" lon="2.79856">
        <ele>968.4</ele>
        <time>2012-06-26T17:33:35Z</time>
      </trkpt>
      <trkpt lat="45.66626" lon="2.79855">
        <ele>968</ele>
        <time>2012-06-26T17:33:35Z</time>
      </trkpt>
      <trkpt lat="45.66618" lon="2.79854">
        <ele>967.4</ele>
        <time>2012-06-26T17:33:35Z</time>
      </trkpt>
      <trkpt lat="45.66611" lon="2.79853">
        <ele>967</ele>
        <time>2012-06-26T17:33:35Z</time>
      </trkpt>
      <trkpt lat="45.66605" lon="2.79852">
        <ele>966.8</ele>
        <time>2012-06-26T17:33:35Z</time>
      </trkpt>
      <trkpt lat="45.66598" lon="2.79852">
        <ele>967</ele>
        <time>2012-06-26T17:33:35Z</time>
      </trkpt>
      <trkpt lat="45.66591" lon="2.79852">
        <ele>967.1</ele>
        <time>2012-06-26T17:33:35Z</time>
      </trkpt>
      <trkpt lat="45.66583" lon="2.79851">
        <ele>967.2</ele>
        <time>2012-06-26T17:33:35Z</time>
      </trkpt>
      <trkpt lat="45.66576" lon="2.7985">
        <ele>967.3</ele>
        <time>2012-06-26T17:33:35Z</time>
      </trkpt>
      <trkpt lat="45.6657" lon="2.7985">
        <ele>967.5</ele>
        <time>2012-06-26T17:33:35Z</time>
      </trkpt>
      <trkpt lat="45.66563" lon="2.7985">
        <ele>967.7</ele>
        <time>2012-06-26T17:33:35Z</time>
      </trkpt>
      <trkpt lat="45.66557" lon="2.79849">
        <ele>967.8</ele>
        <time>2012-06-26T17:33:35Z</time>
      </trkpt>
      <trkpt lat="45.66551" lon="2.79849">
        <ele>968</ele>
        <time>2012-06-26T17:33:35Z</time>
      </trkpt>
      <trkpt lat="45.66544" lon="2.79848">
        <ele>968</ele>
        <time>2012-06-26T17:33:35Z</time>
      </trkpt>
      <trkpt lat="45.66538" lon="2.79847">
        <ele>968</ele>
        <time>2012-06-26T17:33:35Z</time>
      </trkpt>
      <trkpt lat="45.66532" lon="2.79846">
        <ele>968.1</ele>
        <time>2012-06-26T17:33:35Z</time>
      </trkpt>
      <trkpt lat="45.66526" lon="2.79845">
        <ele>968.2</ele>
        <time>2012-06-26T17:33:35Z</time>
      </trkpt>
      <trkpt lat="45.66521" lon="2.79843">
        <ele>968.3</ele>
        <time>2012-06-26T17:33:35Z</time>
      </trkpt>
      <trkpt lat="45.66515" lon="2.79841">
        <ele>968.5</ele>
        <time>2012-06-26T17:33:35Z</time>
      </trkpt>
      <trkpt lat="45.66509" lon="2.7984">
        <ele>968.8</ele>
        <time>2012-06-26T17:33:35Z</time>
      </trkpt>
      <trkpt lat="45.66504" lon="2.79839">
        <ele>969.3</ele>
        <time>2012-06-26T17:33:35Z</time>
      </trkpt>
      <trkpt lat="45.66497" lon="2.79839">
        <ele>969.7</ele>
        <time>2012-06-26T17:33:35Z</time>
      </trkpt>
      <trkpt lat="45.66491" lon="2.79837">
        <ele>969.7</ele>
        <time>2012-06-26T17:33:35Z</time>
      </trkpt>
      <trkpt lat="45.66485" lon="2.79837">
        <ele>969.9</ele>
        <time>2012-06-26T17:33:35Z</time>
      </trkpt>
      <trkpt lat="45.66478" lon="2.79838">
        <ele>970.2</ele>
        <time>2012-06-26T17:33:35Z</time>
      </trkpt>
      <trkpt lat="45.66472" lon="2.79838">
        <ele>970.5</ele>
        <time>2012-06-26T17:33:35Z</time>
      </trkpt>
      <trkpt lat="45.66466" lon="2.79839">
        <ele>970.6</ele>
        <time>2012-06-26T17:33:35Z</time>
      </trkpt>
      <trkpt lat="45.6646" lon="2.7984">
        <ele>970.8</ele>
        <time>2012-06-26T17:33:35Z</time>
      </trkpt>
      <trkpt lat="45.66457" lon="2.7984">
        <ele>970.9</ele>
        <time>2012-06-26T17:33:35Z</time>
      </trkpt>
      <trkpt lat="45.66451" lon="2.7984">
        <ele>970.9</ele>
        <time>2012-06-26T17:33:35Z</time>
      </trkpt>
      <trkpt lat="45.66445" lon="2.7984">
        <ele>970.9</ele>
        <time>2012-06-26T17:33:35Z</time>
      </trkpt>
      <trkpt lat="45.6644" lon="2.7984">
        <ele>970.7</ele>
        <time>2012-06-26T17:33:35Z</time>
      </trkpt>
      <trkpt lat="45.66434" lon="2.79841">
        <ele>970.5</ele>
        <time>2012-06-26T17:33:35Z</time>
      </trkpt>
      <trkpt lat="45.66428" lon="2.79843">
        <ele>970.6</ele>
        <time>2012-06-26T17:33:35Z</time>
      </trkpt>
      <trkpt lat="45.66423" lon="2.79844">
        <ele>970.7</ele>
        <time>2012-06-26T17:33:35Z</time>
      </trkpt>
      <trkpt lat="45.66418" lon="2.79845">
        <ele>970.6</ele>
        <time>2012-06-26T17:33:35Z</time>
      </trkpt>
      <trkpt lat="45.66411" lon="2.79847">
        <ele>970.5</ele>
        <time>2012-06-26T17:33:35Z</time>
      </trkpt>
      <trkpt lat="45.66405" lon="2.79851">
        <ele>970.9</ele>
        <time>2012-06-26T17:33:35Z</time>
      </trkpt>
      <trkpt lat="45.66399" lon="2.79854">
        <ele>971.1</ele>
        <time>2012-06-26T17:33:35Z</time>
      </trkpt>
      <trkpt lat="45.66393" lon="2.79857">
        <ele>971.3</ele>
        <time>2012-06-26T17:33:35Z</time>
      </trkpt>
      <trkpt lat="45.66387" lon="2.79861">
        <ele>972</ele>
        <time>2012-06-26T17:33:35Z</time>
      </trkpt>
      <trkpt lat="45.6638" lon="2.79864">
        <ele>972.3</ele>
        <time>2012-06-26T17:33:35Z</time>
      </trkpt>
      <trkpt lat="45.66374" lon="2.79866">
        <ele>972.7</ele>
        <time>2012-06-26T17:33:35Z</time>
      </trkpt>
      <trkpt lat="45.66367" lon="2.79869">
        <ele>973.1</ele>
        <time>2012-06-26T17:33:35Z</time>
      </trkpt>
      <trkpt lat="45.66361" lon="2.79871">
        <ele>973.4</ele>
        <time>2012-06-26T17:33:35Z</time>
      </trkpt>
      <trkpt lat="45.66355" lon="2.79872">
        <ele>973.5</ele>
        <time>2012-06-26T17:33:35Z</time>
      </trkpt>
      <trkpt lat="45.66349" lon="2.79873">
        <ele>973.3</ele>
        <time>2012-06-26T17:33:35Z</time>
      </trkpt>
      <trkpt lat="45.66344" lon="2.79875">
        <ele>973.5</ele>
        <time>2012-06-26T17:33:35Z</time>
      </trkpt>
      <trkpt lat="45.66337" lon="2.79876">
        <ele>973.4</ele>
        <time>2012-06-26T17:33:35Z</time>
      </trkpt>
      <trkpt lat="45.66332" lon="2.79878">
        <ele>973.8</ele>
        <time>2012-06-26T17:33:35Z</time>
      </trkpt>
      <trkpt lat="45.66326" lon="2.79879">
        <ele>974.5</ele>
        <time>2012-06-26T17:33:35Z</time>
      </trkpt>
      <trkpt lat="45.6632" lon="2.7988">
        <ele>975</ele>
        <time>2012-06-26T17:33:35Z</time>
      </trkpt>
      <trkpt lat="45.66315" lon="2.79883">
        <ele>975.9</ele>
        <time>2012-06-26T17:33:35Z</time>
      </trkpt>
      <trkpt lat="45.66309" lon="2.79885">
        <ele>976.8</ele>
        <time>2012-06-26T17:33:35Z</time>
      </trkpt>
      <trkpt lat="45.66302" lon="2.79887">
        <ele>977.5</ele>
        <time>2012-06-26T17:33:35Z</time>
      </trkpt>
      <trkpt lat="45.66297" lon="2.79888">
        <ele>977.9</ele>
        <time>2012-06-26T17:33:35Z</time>
      </trkpt>
      <trkpt lat="45.6629" lon="2.79887">
        <ele>978</ele>
        <time>2012-06-26T17:33:35Z</time>
      </trkpt>
      <trkpt lat="45.66284" lon="2.79886">
        <ele>978</ele>
        <time>2012-06-26T17:33:35Z</time>
      </trkpt>
      <trkpt lat="45.66278" lon="2.79887">
        <ele>978.5</ele>
        <time>2012-06-26T17:33:35Z</time>
      </trkpt>
      <trkpt lat="45.66271" lon="2.79887">
        <ele>978</ele>
        <time>2012-06-26T17:33:35Z</time>
      </trkpt>
      <trkpt lat="45.66265" lon="2.79888">
        <ele>977.9</ele>
        <time>2012-06-26T17:33:35Z</time>
      </trkpt>
      <trkpt lat="45.66259" lon="2.79889">
        <ele>977.6</ele>
        <time>2012-06-26T17:33:35Z</time>
      </trkpt>
      <trkpt lat="45.66251" lon="2.7989">
        <ele>977.3</ele>
        <time>2012-06-26T17:33:35Z</time>
      </trkpt>
      <trkpt lat="45.66245" lon="2.79891">
        <ele>977.3</ele>
        <time>2012-06-26T17:33:35Z</time>
      </trkpt>
      <trkpt lat="45.66239" lon="2.79892">
        <ele>977.3</ele>
        <time>2012-06-26T17:33:35Z</time>
      </trkpt>
      <trkpt lat="45.66232" lon="2.79892">
        <ele>977.1</ele>
        <time>2012-06-26T17:33:35Z</time>
      </trkpt>
      <trkpt lat="45.66226" lon="2.79893">
        <ele>977</ele>
        <time>2012-06-26T17:33:35Z</time>
      </trkpt>
      <trkpt lat="45.66219" lon="2.79893">
        <ele>976.8</ele>
        <time>2012-06-26T17:33:35Z</time>
      </trkpt>
      <trkpt lat="45.66212" lon="2.79893">
        <ele>976.7</ele>
        <time>2012-06-26T17:33:35Z</time>
      </trkpt>
      <trkpt lat="45.66206" lon="2.79894">
        <ele>976.7</ele>
        <time>2012-06-26T17:33:35Z</time>
      </trkpt>
      <trkpt lat="45.662" lon="2.79894">
        <ele>976.7</ele>
        <time>2012-06-26T17:33:35Z</time>
      </trkpt>
      <trkpt lat="45.66193" lon="2.79893">
        <ele>976.3</ele>
        <time>2012-06-26T17:33:35Z</time>
      </trkpt>
      <trkpt lat="45.66188" lon="2.79894">
        <ele>976.7</ele>
        <time>2012-06-26T17:33:35Z</time>
      </trkpt>
      <trkpt lat="45.66182" lon="2.79895">
        <ele>976.9</ele>
        <time>2012-06-26T17:33:35Z</time>
      </trkpt>
      <trkpt lat="45.66175" lon="2.79894">
        <ele>977</ele>
        <time>2012-06-26T17:33:35Z</time>
      </trkpt>
      <trkpt lat="45.66168" lon="2.79893">
        <ele>976.7</ele>
        <time>2012-06-26T17:33:35Z</time>
      </trkpt>
      <trkpt lat="45.66162" lon="2.79893">
        <ele>976.8</ele>
        <time>2012-06-26T17:33:35Z</time>
      </trkpt>
      <trkpt lat="45.66156" lon="2.79892">
        <ele>976.8</ele>
        <time>2012-06-26T17:33:35Z</time>
      </trkpt>
      <trkpt lat="45.66149" lon="2.79892">
        <ele>976.7</ele>
        <time>2012-06-26T17:33:35Z</time>
      </trkpt>
      <trkpt lat="45.66143" lon="2.79892">
        <ele>976.6</ele>
        <time>2012-06-26T17:33:35Z</time>
      </trkpt>
      <trkpt lat="45.66136" lon="2.79891">
        <ele>976.5</ele>
        <time>2012-06-26T17:33:35Z</time>
      </trkpt>
      <trkpt lat="45.6613" lon="2.7989">
        <ele>976.2</ele>
        <time>2012-06-26T17:33:35Z</time>
      </trkpt>
      <trkpt lat="45.66123" lon="2.79889">
        <ele>976.1</ele>
        <time>2012-06-26T17:33:35Z</time>
      </trkpt>
      <trkpt lat="45.66117" lon="2.79888">
        <ele>975.9</ele>
        <time>2012-06-26T17:33:35Z</time>
      </trkpt>
      <trkpt lat="45.66112" lon="2.79888">
        <ele>975.7</ele>
        <time>2012-06-26T17:33:35Z</time>
      </trkpt>
      <trkpt lat="45.66106" lon="2.79886">
        <ele>975.4</ele>
        <time>2012-06-26T17:33:35Z</time>
      </trkpt>
      <trkpt lat="45.661" lon="2.79884">
        <ele>975.2</ele>
        <time>2012-06-26T17:33:35Z</time>
      </trkpt>
      <trkpt lat="45.66094" lon="2.79879">
        <ele>974.5</ele>
        <time>2012-06-26T17:33:35Z</time>
      </trkpt>
      <trkpt lat="45.66088" lon="2.79876">
        <ele>974.3</ele>
        <time>2012-06-26T17:33:35Z</time>
      </trkpt>
      <trkpt lat="45.66082" lon="2.79873">
        <ele>974.3</ele>
        <time>2012-06-26T17:33:35Z</time>
      </trkpt>
      <trkpt lat="45.66076" lon="2.7987">
        <ele>974.1</ele>
        <time>2012-06-26T17:33:35Z</time>
      </trkpt>
      <trkpt lat="45.66071" lon="2.79867">
        <ele>973.9</ele>
        <time>2012-06-26T17:33:35Z</time>
      </trkpt>
      <trkpt lat="45.66066" lon="2.79864">
        <ele>973.7</ele>
        <time>2012-06-26T17:33:35Z</time>
      </trkpt>
      <trkpt lat="45.66061" lon="2.7986">
        <ele>973.4</ele>
        <time>2012-06-26T17:33:35Z</time>
      </trkpt>
      <trkpt lat="45.66057" lon="2.79857">
        <ele>973.3</ele>
        <time>2012-06-26T17:33:35Z</time>
      </trkpt>
      <trkpt lat="45.66052" lon="2.79855">
        <ele>972.9</ele>
        <time>2012-06-26T17:33:35Z</time>
      </trkpt>
      <trkpt lat="45.66047" lon="2.79851">
        <ele>972.5</ele>
        <time>2012-06-26T17:33:35Z</time>
      </trkpt>
      <trkpt lat="45.66041" lon="2.79847">
        <ele>972</ele>
        <time>2012-06-26T17:33:35Z</time>
      </trkpt>
      <trkpt lat="45.66035" lon="2.79843">
        <ele>971.5</ele>
        <time>2012-06-26T17:33:35Z</time>
      </trkpt>
      <trkpt lat="45.6603" lon="2.7984">
        <ele>971.1</ele>
        <time>2012-06-26T17:33:35Z</time>
      </trkpt>
      <trkpt lat="45.66024" lon="2.79838">
        <ele>970.8</ele>
        <time>2012-06-26T17:33:35Z</time>
      </trkpt>
      <trkpt lat="45.66019" lon="2.79835">
        <ele>970.3</ele>
        <time>2012-06-26T17:33:35Z</time>
      </trkpt>
      <trkpt lat="45.66013" lon="2.79832">
        <ele>969.8</ele>
        <time>2012-06-26T17:33:35Z</time>
      </trkpt>
      <trkpt lat="45.66008" lon="2.79831">
        <ele>969.6</ele>
        <time>2012-06-26T17:33:35Z</time>
      </trkpt>
      <trkpt lat="45.66001" lon="2.79829">
        <ele>969.3</ele>
        <time>2012-06-26T17:33:35Z</time>
      </trkpt>
      <trkpt lat="45.65994" lon="2.79826">
        <ele>969.1</ele>
        <time>2012-06-26T17:33:35Z</time>
      </trkpt>
      <trkpt lat="45.65989" lon="2.79821">
        <ele>968.4</ele>
        <time>2012-06-26T17:33:35Z</time>
      </trkpt>
      <trkpt lat="45.65983" lon="2.79818">
        <ele>968.1</ele>
        <time>2012-06-26T17:33:35Z</time>
      </trkpt>
      <trkpt lat="45.65978" lon="2.79816">
        <ele>967.8</ele>
        <time>2012-06-26T17:33:35Z</time>
      </trkpt>
      <trkpt lat="45.65971" lon="2.79813">
        <ele>967.4</ele>
        <time>2012-06-26T17:33:35Z</time>
      </trkpt>
      <trkpt lat="45.65964" lon="2.7981">
        <ele>967.1</ele>
        <time>2012-06-26T17:33:35Z</time>
      </trkpt>
      <trkpt lat="45.65957" lon="2.79807">
        <ele>966.8</ele>
        <time>2012-06-26T17:33:35Z</time>
      </trkpt>
      <trkpt lat="45.65951" lon="2.79804">
        <ele>966.6</ele>
        <time>2012-06-26T17:33:35Z</time>
      </trkpt>
      <trkpt lat="45.65945" lon="2.798">
        <ele>966.4</ele>
        <time>2012-06-26T17:33:35Z</time>
      </trkpt>
      <trkpt lat="45.65939" lon="2.79797">
        <ele>966.3</ele>
        <time>2012-06-26T17:33:35Z</time>
      </trkpt>
      <trkpt lat="45.65933" lon="2.79793">
        <ele>966.2</ele>
        <time>2012-06-26T17:33:35Z</time>
      </trkpt>
      <trkpt lat="45.65927" lon="2.79789">
        <ele>966.2</ele>
        <time>2012-06-26T17:33:35Z</time>
      </trkpt>
      <trkpt lat="45.65921" lon="2.79785">
        <ele>966.2</ele>
        <time>2012-06-26T17:33:35Z</time>
      </trkpt>
      <trkpt lat="45.65916" lon="2.79781">
        <ele>966.3</ele>
        <time>2012-06-26T17:33:35Z</time>
      </trkpt>
      <trkpt lat="45.6591" lon="2.79777">
        <ele>966.1</ele>
        <time>2012-06-26T17:33:35Z</time>
      </trkpt>
      <trkpt lat="45.65905" lon="2.79772">
        <ele>965.7</ele>
        <time>2012-06-26T17:33:35Z</time>
      </trkpt>
      <trkpt lat="45.65899" lon="2.79768">
        <ele>965.4</ele>
        <time>2012-06-26T17:33:35Z</time>
      </trkpt>
      <trkpt lat="45.65894" lon="2.79763">
        <ele>965.2</ele>
        <time>2012-06-26T17:33:35Z</time>
      </trkpt>
      <trkpt lat="45.65888" lon="2.7976">
        <ele>965.1</ele>
        <time>2012-06-26T17:33:35Z</time>
      </trkpt>
      <trkpt lat="45.65883" lon="2.79756">
        <ele>964.9</ele>
        <time>2012-06-26T17:33:35Z</time>
      </trkpt>
      <trkpt lat="45.65878" lon="2.79753">
        <ele>964.7</ele>
        <time>2012-06-26T17:33:35Z</time>
      </trkpt>
      <trkpt lat="45.65872" lon="2.7975">
        <ele>964.6</ele>
        <time>2012-06-26T17:33:35Z</time>
      </trkpt>
      <trkpt lat="45.65867" lon="2.79747">
        <ele>964.3</ele>
        <time>2012-06-26T17:33:35Z</time>
      </trkpt>
      <trkpt lat="45.65861" lon="2.79744">
        <ele>964.1</ele>
        <time>2012-06-26T17:33:35Z</time>
      </trkpt>
      <trkpt lat="45.65856" lon="2.79742">
        <ele>964</ele>
        <time>2012-06-26T17:33:35Z</time>
      </trkpt>
      <trkpt lat="45.65851" lon="2.7974">
        <ele>963.9</ele>
        <time>2012-06-26T17:33:35Z</time>
      </trkpt>
      <trkpt lat="45.65845" lon="2.79737">
        <ele>963.7</ele>
        <time>2012-06-26T17:33:35Z</time>
      </trkpt>
      <trkpt lat="45.6584" lon="2.79735">
        <ele>963.7</ele>
        <time>2012-06-26T17:33:35Z</time>
      </trkpt>
      <trkpt lat="45.65834" lon="2.79733">
        <ele>963.5</ele>
        <time>2012-06-26T17:33:35Z</time>
      </trkpt>
      <trkpt lat="45.6583" lon="2.79731">
        <ele>963.3</ele>
        <time>2012-06-26T17:33:35Z</time>
      </trkpt>
      <trkpt lat="45.65825" lon="2.79728">
        <ele>963.1</ele>
        <time>2012-06-26T17:33:35Z</time>
      </trkpt>
      <trkpt lat="45.65818" lon="2.79725">
        <ele>962.9</ele>
        <time>2012-06-26T17:33:35Z</time>
      </trkpt>
      <trkpt lat="45.65812" lon="2.79722">
        <ele>962.7</ele>
        <time>2012-06-26T17:33:35Z</time>
      </trkpt>
      <trkpt lat="45.65806" lon="2.79718">
        <ele>962.2</ele>
        <time>2012-06-26T17:33:35Z</time>
      </trkpt>
      <trkpt lat="45.65801" lon="2.79714">
        <ele>961.3</ele>
        <time>2012-06-26T17:33:35Z</time>
      </trkpt>
      <trkpt lat="45.65795" lon="2.79709">
        <ele>960.4</ele>
        <time>2012-06-26T17:33:35Z</time>
      </trkpt>
      <trkpt lat="45.65789" lon="2.79704">
        <ele>959.6</ele>
        <time>2012-06-26T17:33:35Z</time>
      </trkpt>
      <trkpt lat="45.65783" lon="2.797">
        <ele>958.9</ele>
        <time>2012-06-26T17:33:35Z</time>
      </trkpt>
      <trkpt lat="45.65779" lon="2.79696">
        <ele>958.2</ele>
        <time>2012-06-26T17:33:35Z</time>
      </trkpt>
      <trkpt lat="45.65774" lon="2.79692">
        <ele>957.7</ele>
        <time>2012-06-26T17:33:35Z</time>
      </trkpt>
      <trkpt lat="45.65769" lon="2.79688">
        <ele>957.2</ele>
        <time>2012-06-26T17:33:35Z</time>
      </trkpt>
      <trkpt lat="45.65764" lon="2.79683">
        <ele>956.8</ele>
        <time>2012-06-26T17:33:35Z</time>
      </trkpt>
      <trkpt lat="45.65758" lon="2.79678">
        <ele>956.5</ele>
        <time>2012-06-26T17:33:35Z</time>
      </trkpt>
      <trkpt lat="45.65752" lon="2.79673">
        <ele>956.3</ele>
        <time>2012-06-26T17:33:35Z</time>
      </trkpt>
      <trkpt lat="45.65747" lon="2.79669">
        <ele>956.2</ele>
        <time>2012-06-26T17:33:35Z</time>
      </trkpt>
      <trkpt lat="45.65741" lon="2.79664">
        <ele>955.6</ele>
        <time>2012-06-26T17:33:35Z</time>
      </trkpt>
      <trkpt lat="45.65735" lon="2.79661">
        <ele>955.3</ele>
        <time>2012-06-26T17:33:35Z</time>
      </trkpt>
      <trkpt lat="45.6573" lon="2.79658">
        <ele>955</ele>
        <time>2012-06-26T17:33:35Z</time>
      </trkpt>
      <trkpt lat="45.65724" lon="2.79655">
        <ele>954.7</ele>
        <time>2012-06-26T17:33:35Z</time>
      </trkpt>
      <trkpt lat="45.65718" lon="2.79652">
        <ele>954.6</ele>
        <time>2012-06-26T17:33:35Z</time>
      </trkpt>
      <trkpt lat="45.65712" lon="2.7965">
        <ele>954.7</ele>
        <time>2012-06-26T17:33:35Z</time>
      </trkpt>
      <trkpt lat="45.65706" lon="2.79647">
        <ele>954.9</ele>
        <time>2012-06-26T17:33:35Z</time>
      </trkpt>
      <trkpt lat="45.657" lon="2.79645">
        <ele>955.1</ele>
        <time>2012-06-26T17:33:35Z</time>
      </trkpt>
      <trkpt lat="45.65695" lon="2.79643">
        <ele>955.3</ele>
        <time>2012-06-26T17:33:35Z</time>
      </trkpt>
      <trkpt lat="45.6569" lon="2.79642">
        <ele>955.4</ele>
        <time>2012-06-26T17:33:35Z</time>
      </trkpt>
      <trkpt lat="45.65688" lon="2.79641">
        <ele>955.4</ele>
        <time>2012-06-26T17:33:35Z</time>
      </trkpt>
      <trkpt lat="45.65687" lon="2.7964">
        <ele>955.4</ele>
        <time>2012-06-26T17:33:35Z</time>
      </trkpt>
      <trkpt lat="45.65687" lon="2.7964">
        <ele>955.3</ele>
        <time>2012-06-26T17:33:35Z</time>
      </trkpt>
      <trkpt lat="45.65686" lon="2.79639">
        <ele>955.3</ele>
        <time>2012-06-26T17:33:35Z</time>
      </trkpt>
      <trkpt lat="45.65683" lon="2.79639">
        <ele>955.4</ele>
        <time>2012-06-26T17:33:35Z</time>
      </trkpt>
      <trkpt lat="45.65682" lon="2.79638">
        <ele>955.4</ele>
        <time>2012-06-26T17:33:35Z</time>
      </trkpt>
      <trkpt lat="45.65683" lon="2.79639">
        <ele>955.4</ele>
        <time>2012-06-26T17:33:35Z</time>
      </trkpt>
      <trkpt lat="45.65684" lon="2.79639">
        <ele>955.4</ele>
        <time>2012-06-26T17:33:35Z</time>
      </trkpt>
      <trkpt lat="45.65684" lon="2.7964">
        <ele>955.4</ele>
        <time>2012-06-26T17:33:35Z</time>
      </trkpt>
      <trkpt lat="45.65687" lon="2.79635">
        <ele>954.9</ele>
        <time>2012-06-26T17:33:35Z</time>
      </trkpt>
      <trkpt lat="45.65685" lon="2.79637">
        <ele>955.1</ele>
        <time>2012-06-26T17:33:35Z</time>
      </trkpt>
      <trkpt lat="45.6568" lon="2.79636">
        <ele>955.3</ele>
        <time>2012-06-26T17:33:35Z</time>
      </trkpt>
      <trkpt lat="45.65675" lon="2.79635">
        <ele>955.4</ele>
        <time>2012-06-26T17:33:35Z</time>
      </trkpt>
      <trkpt lat="45.65669" lon="2.79633">
        <ele>955.5</ele>
        <time>2012-06-26T17:33:35Z</time>
      </trkpt>
      <trkpt lat="45.65664" lon="2.79629">
        <ele>955.5</ele>
        <time>2012-06-26T17:33:35Z</time>
      </trkpt>
      <trkpt lat="45.65658" lon="2.79625">
        <ele>955.4</ele>
        <time>2012-06-26T17:33:35Z</time>
      </trkpt>
      <trkpt lat="45.65653" lon="2.79619">
        <ele>955.4</ele>
        <time>2012-06-26T17:33:35Z</time>
      </trkpt>
      <trkpt lat="45.65648" lon="2.79614">
        <ele>955.5</ele>
        <time>2012-06-26T17:33:35Z</time>
      </trkpt>
      <trkpt lat="45.65643" lon="2.79608">
        <ele>955.6</ele>
        <time>2012-06-26T17:33:35Z</time>
      </trkpt>
      <trkpt lat="45.65638" lon="2.79603">
        <ele>955.8</ele>
        <time>2012-06-26T17:33:35Z</time>
      </trkpt>
      <trkpt lat="45.65633" lon="2.79598">
        <ele>955.7</ele>
        <time>2012-06-26T17:33:35Z</time>
      </trkpt>
      <trkpt lat="45.65628" lon="2.79593">
        <ele>955.7</ele>
        <time>2012-06-26T17:33:35Z</time>
      </trkpt>
      <trkpt lat="45.65623" lon="2.79587">
        <ele>955.7</ele>
        <time>2012-06-26T17:33:35Z</time>
      </trkpt>
      <trkpt lat="45.65618" lon="2.79583">
        <ele>955.7</ele>
        <time>2012-06-26T17:33:35Z</time>
      </trkpt>
      <trkpt lat="45.65612" lon="2.79577">
        <ele>955.7</ele>
        <time>2012-06-26T17:33:35Z</time>
      </trkpt>
      <trkpt lat="45.65607" lon="2.79572">
        <ele>955.7</ele>
        <time>2012-06-26T17:33:35Z</time>
      </trkpt>
      <trkpt lat="45.65602" lon="2.79567">
        <ele>955.7</ele>
        <time>2012-06-26T17:33:35Z</time>
      </trkpt>
      <trkpt lat="45.65596" lon="2.79562">
        <ele>955.8</ele>
        <time>2012-06-26T17:33:35Z</time>
      </trkpt>
      <trkpt lat="45.65591" lon="2.79558">
        <ele>955.8</ele>
        <time>2012-06-26T17:33:35Z</time>
      </trkpt>
      <trkpt lat="45.65586" lon="2.79555">
        <ele>955.9</ele>
        <time>2012-06-26T17:33:35Z</time>
      </trkpt>
      <trkpt lat="45.6558" lon="2.79552">
        <ele>955.7</ele>
        <time>2012-06-26T17:33:35Z</time>
      </trkpt>
      <trkpt lat="45.65575" lon="2.7955">
        <ele>955.3</ele>
        <time>2012-06-26T17:33:35Z</time>
      </trkpt>
      <trkpt lat="45.65569" lon="2.79547">
        <ele>955.1</ele>
        <time>2012-06-26T17:33:35Z</time>
      </trkpt>
      <trkpt lat="45.65563" lon="2.79545">
        <ele>954.8</ele>
        <time>2012-06-26T17:33:35Z</time>
      </trkpt>
      <trkpt lat="45.65558" lon="2.79543">
        <ele>954.6</ele>
        <time>2012-06-26T17:33:35Z</time>
      </trkpt>
      <trkpt lat="45.65552" lon="2.79539">
        <ele>954.4</ele>
        <time>2012-06-26T17:33:35Z</time>
      </trkpt>
      <trkpt lat="45.65547" lon="2.79534">
        <ele>954.2</ele>
        <time>2012-06-26T17:33:35Z</time>
      </trkpt>
      <trkpt lat="45.65543" lon="2.79529">
        <ele>954</ele>
        <time>2012-06-26T17:33:35Z</time>
      </trkpt>
      <trkpt lat="45.65539" lon="2.79527">
        <ele>954</ele>
        <time>2012-06-26T17:33:35Z</time>
      </trkpt>
      <trkpt lat="45.65539" lon="2.79526">
        <ele>954</ele>
        <time>2012-06-26T17:33:35Z</time>
      </trkpt>
      <trkpt lat="45.65536" lon="2.79528">
        <ele>954</ele>
        <time>2012-06-26T17:33:35Z</time>
      </trkpt>
      <trkpt lat="45.65536" lon="2.79528">
        <ele>954</ele>
        <time>2012-06-26T17:33:35Z</time>
      </trkpt>
      <trkpt lat="45.65536" lon="2.79528">
        <ele>954</ele>
        <time>2012-06-26T17:33:35Z</time>
      </trkpt>
      <trkpt lat="45.65536" lon="2.79528">
        <ele>954</ele>
        <time>2012-06-26T17:33:35Z</time>
      </trkpt>
      <trkpt lat="45.65536" lon="2.79528">
        <ele>954</ele>
        <time>2012-06-26T17:33:35Z</time>
      </trkpt>
      <trkpt lat="45.65536" lon="2.79527">
        <ele>954</ele>
        <time>2012-06-26T17:33:35Z</time>
      </trkpt>
      <trkpt lat="45.65536" lon="2.79528">
        <ele>954</ele>
        <time>2012-06-26T17:33:35Z</time>
      </trkpt>
      <trkpt lat="45.65536" lon="2.79529">
        <ele>954</ele>
        <time>2012-06-26T17:33:35Z</time>
      </trkpt>
      <trkpt lat="45.65537" lon="2.79529">
        <ele>954</ele>
        <time>2012-06-26T17:33:35Z</time>
      </trkpt>
      <trkpt lat="45.65537" lon="2.79529">
        <ele>954</ele>
        <time>2012-06-26T17:33:35Z</time>
      </trkpt>
      <trkpt lat="45.65537" lon="2.7953">
        <ele>954.1</ele>
        <time>2012-06-26T17:33:35Z</time>
      </trkpt>
      <trkpt lat="45.65535" lon="2.79534">
        <ele>954.2</ele>
        <time>2012-06-26T17:33:35Z</time>
      </trkpt>
      <trkpt lat="45.65531" lon="2.79539">
        <ele>954.4</ele>
        <time>2012-06-26T17:33:35Z</time>
      </trkpt>
      <trkpt lat="45.65528" lon="2.79544">
        <ele>954.6</ele>
        <time>2012-06-26T17:33:35Z</time>
      </trkpt>
      <trkpt lat="45.65525" lon="2.7955">
        <ele>954.8</ele>
        <time>2012-06-26T17:33:35Z</time>
      </trkpt>
      <trkpt lat="45.65524" lon="2.79553">
        <ele>954.9</ele>
        <time>2012-06-26T17:33:35Z</time>
      </trkpt>
      <trkpt lat="45.65524" lon="2.79555">
        <ele>955</ele>
        <time>2012-06-26T17:33:35Z</time>
      </trkpt>
      <trkpt lat="45.65523" lon="2.79562">
        <ele>955.4</ele>
        <time>2012-06-26T17:33:35Z</time>
      </trkpt>
      <trkpt lat="45.65523" lon="2.7957">
        <ele>956</ele>
        <time>2012-06-26T17:33:35Z</time>
      </trkpt>
      <trkpt lat="45.65523" lon="2.79579">
        <ele>956.5</ele>
        <time>2012-06-26T17:33:35Z</time>
      </trkpt>
      <trkpt lat="45.65523" lon="2.79587">
        <ele>957</ele>
        <time>2012-06-26T17:33:35Z</time>
      </trkpt>
      <trkpt lat="45.65524" lon="2.79595">
        <ele>957.3</ele>
        <time>2012-06-26T17:33:35Z</time>
      </trkpt>
      <trkpt lat="45.65523" lon="2.79603">
        <ele>957.6</ele>
        <time>2012-06-26T17:33:35Z</time>
      </trkpt>
      <trkpt lat="45.65523" lon="2.79612">
        <ele>957.9</ele>
        <time>2012-06-26T17:33:35Z</time>
      </trkpt>
      <trkpt lat="45.65523" lon="2.7962">
        <ele>958.5</ele>
        <time>2012-06-26T17:33:35Z</time>
      </trkpt>
      <trkpt lat="45.65523" lon="2.79628">
        <ele>959.1</ele>
        <time>2012-06-26T17:33:35Z</time>
      </trkpt>
      <trkpt lat="45.65523" lon="2.79636">
        <ele>959.8</ele>
        <time>2012-06-26T17:33:35Z</time>
      </trkpt>
      <trkpt lat="45.65522" lon="2.79644">
        <ele>960.6</ele>
        <time>2012-06-26T17:33:35Z</time>
      </trkpt>
      <trkpt lat="45.65522" lon="2.79653">
        <ele>961.5</ele>
        <time>2012-06-26T17:33:35Z</time>
      </trkpt>
      <trkpt lat="45.6552" lon="2.7966">
        <ele>962.3</ele>
        <time>2012-06-26T17:33:35Z</time>
      </trkpt>
      <trkpt lat="45.65519" lon="2.79669">
        <ele>963.3</ele>
        <time>2012-06-26T17:33:35Z</time>
      </trkpt>
      <trkpt lat="45.65517" lon="2.79676">
        <ele>964.6</ele>
        <time>2012-06-26T17:33:35Z</time>
      </trkpt>
      <trkpt lat="45.65514" lon="2.79683">
        <ele>965.6</ele>
        <time>2012-06-26T17:33:35Z</time>
      </trkpt>
      <trkpt lat="45.65511" lon="2.79689">
        <ele>966.6</ele>
        <time>2012-06-26T17:33:35Z</time>
      </trkpt>
      <trkpt lat="45.65507" lon="2.79695">
        <ele>967.3</ele>
        <time>2012-06-26T17:33:35Z</time>
      </trkpt>
      <trkpt lat="45.65503" lon="2.79699">
        <ele>968</ele>
        <time>2012-06-26T17:33:35Z</time>
      </trkpt>
      <trkpt lat="45.65499" lon="2.79704">
        <ele>968.7</ele>
        <time>2012-06-26T17:33:35Z</time>
      </trkpt>
      <trkpt lat="45.65494" lon="2.79709">
        <ele>969.3</ele>
        <time>2012-06-26T17:33:35Z</time>
      </trkpt>
      <trkpt lat="45.65491" lon="2.79713">
        <ele>969.8</ele>
        <time>2012-06-26T17:33:35Z</time>
      </trkpt>
      <trkpt lat="45.65487" lon="2.79718">
        <ele>970.4</ele>
        <time>2012-06-26T17:33:35Z</time>
      </trkpt>
      <trkpt lat="45.65484" lon="2.79723">
        <ele>971</ele>
        <time>2012-06-26T17:33:35Z</time>
      </trkpt>
      <trkpt lat="45.65481" lon="2.79729">
        <ele>971.7</ele>
        <time>2012-06-26T17:33:35Z</time>
      </trkpt>
      <trkpt lat="45.65478" lon="2.79735">
        <ele>972.4</ele>
        <time>2012-06-26T17:33:35Z</time>
      </trkpt>
      <trkpt lat="45.65476" lon="2.79742">
        <ele>973.2</ele>
        <time>2012-06-26T17:33:35Z</time>
      </trkpt>
      <trkpt lat="45.65473" lon="2.79749">
        <ele>974</ele>
        <time>2012-06-26T17:33:35Z</time>
      </trkpt>
      <trkpt lat="45.65471" lon="2.79756">
        <ele>974.8</ele>
        <time>2012-06-26T17:33:35Z</time>
      </trkpt>
      <trkpt lat="45.65468" lon="2.79764">
        <ele>975.5</ele>
        <time>2012-06-26T17:33:35Z</time>
      </trkpt>
      <trkpt lat="45.65466" lon="2.79771">
        <ele>976.3</ele>
        <time>2012-06-26T17:33:35Z</time>
      </trkpt>
      <trkpt lat="45.65463" lon="2.79778">
        <ele>977.1</ele>
        <time>2012-06-26T17:33:35Z</time>
      </trkpt>
      <trkpt lat="45.65461" lon="2.79786">
        <ele>978</ele>
        <time>2012-06-26T17:33:35Z</time>
      </trkpt>
      <trkpt lat="45.65458" lon="2.79793">
        <ele>978.9</ele>
        <time>2012-06-26T17:33:35Z</time>
      </trkpt>
      <trkpt lat="45.65456" lon="2.798">
        <ele>979.8</ele>
        <time>2012-06-26T17:33:35Z</time>
      </trkpt>
      <trkpt lat="45.65453" lon="2.79808">
        <ele>980.5</ele>
        <time>2012-06-26T17:33:35Z</time>
      </trkpt>
      <trkpt lat="45.6545" lon="2.79815">
        <ele>981.2</ele>
        <time>2012-06-26T17:33:35Z</time>
      </trkpt>
      <trkpt lat="45.65448" lon="2.79822">
        <ele>981.9</ele>
        <time>2012-06-26T17:33:35Z</time>
      </trkpt>
      <trkpt lat="45.65445" lon="2.7983">
        <ele>982.6</ele>
        <time>2012-06-26T17:33:35Z</time>
      </trkpt>
      <trkpt lat="45.65442" lon="2.79836">
        <ele>983.2</ele>
        <time>2012-06-26T17:33:35Z</time>
      </trkpt>
      <trkpt lat="45.6544" lon="2.79843">
        <ele>984</ele>
        <time>2012-06-26T17:33:35Z</time>
      </trkpt>
      <trkpt lat="45.65438" lon="2.79846">
        <ele>984.5</ele>
        <time>2012-06-26T17:33:35Z</time>
      </trkpt>
      <trkpt lat="45.65438" lon="2.79846">
        <ele>984.4</ele>
        <time>2012-06-26T17:33:35Z</time>
      </trkpt>
      <trkpt lat="45.65438" lon="2.79846">
        <ele>984.4</ele>
        <time>2012-06-26T17:33:35Z</time>
      </trkpt>
      <trkpt lat="45.65438" lon="2.79845">
        <ele>984.3</ele>
        <time>2012-06-26T17:33:35Z</time>
      </trkpt>
      <trkpt lat="45.65438" lon="2.79845">
        <ele>984.3</ele>
        <time>2012-06-26T17:33:35Z</time>
      </trkpt>
      <trkpt lat="45.65438" lon="2.79845">
        <ele>984.3</ele>
        <time>2012-06-26T17:33:35Z</time>
      </trkpt>
      <trkpt lat="45.65438" lon="2.79845">
        <ele>984.2</ele>
        <time>2012-06-26T17:33:35Z</time>
      </trkpt>
      <trkpt lat="45.65438" lon="2.79845">
        <ele>984.2</ele>
        <time>2012-06-26T17:33:35Z</time>
      </trkpt>
      <trkpt lat="45.65436" lon="2.79847">
        <ele>984.4</ele>
        <time>2012-06-26T17:33:35Z</time>
      </trkpt>
      <trkpt lat="45.65436" lon="2.79848">
        <ele>984.6</ele>
        <time>2012-06-26T17:33:35Z</time>
      </trkpt>
      <trkpt lat="45.65436" lon="2.79848">
        <ele>984.6</ele>
        <time>2012-06-26T17:33:35Z</time>
      </trkpt>
      <trkpt lat="45.65436" lon="2.79848">
        <ele>984.5</ele>
        <time>2012-06-26T17:33:35Z</time>
      </trkpt>
      <trkpt lat="45.65434" lon="2.79852">
        <ele>985.1</ele>
        <time>2012-06-26T17:33:35Z</time>
      </trkpt>
      <trkpt lat="45.65431" lon="2.79857">
        <ele>985.7</ele>
        <time>2012-06-26T17:33:35Z</time>
      </trkpt>
      <trkpt lat="45.65428" lon="2.79862">
        <ele>986.4</ele>
        <time>2012-06-26T17:33:35Z</time>
      </trkpt>
      <trkpt lat="45.65426" lon="2.79868">
        <ele>987.1</ele>
        <time>2012-06-26T17:33:35Z</time>
      </trkpt>
      <trkpt lat="45.65424" lon="2.79874">
        <ele>987.8</ele>
        <time>2012-06-26T17:33:35Z</time>
      </trkpt>
      <trkpt lat="45.65423" lon="2.79879">
        <ele>988.4</ele>
        <time>2012-06-26T17:33:35Z</time>
      </trkpt>
      <trkpt lat="45.65422" lon="2.79883">
        <ele>988.9</ele>
        <time>2012-06-26T17:33:35Z</time>
      </trkpt>
      <trkpt lat="45.65422" lon="2.79883">
        <ele>988.9</ele>
        <time>2012-06-26T17:33:35Z</time>
      </trkpt>
      <trkpt lat="45.65423" lon="2.79884">
        <ele>989.1</ele>
        <time>2012-06-26T17:33:35Z</time>
      </trkpt>
      <trkpt lat="45.65424" lon="2.79886">
        <ele>989.7</ele>
        <time>2012-06-26T17:33:35Z</time>
      </trkpt>
      <trkpt lat="45.65424" lon="2.79887">
        <ele>989.7</ele>
        <time>2012-06-26T17:33:35Z</time>
      </trkpt>
      <trkpt lat="45.65426" lon="2.79889">
        <ele>990.4</ele>
        <time>2012-06-26T17:33:35Z</time>
      </trkpt>
      <trkpt lat="45.65432" lon="2.7989">
        <ele>991.3</ele>
        <time>2012-06-26T17:33:35Z</time>
      </trkpt>
      <trkpt lat="45.65437" lon="2.79889">
        <ele>992</ele>
        <time>2012-06-26T17:33:35Z</time>
      </trkpt>
      <trkpt lat="45.65443" lon="2.79888">
        <ele>992.6</ele>
        <time>2012-06-26T17:33:35Z</time>
      </trkpt>
      <trkpt lat="45.65448" lon="2.79887">
        <ele>993.2</ele>
        <time>2012-06-26T17:33:35Z</time>
      </trkpt>
      <trkpt lat="45.65454" lon="2.79886">
        <ele>993.8</ele>
        <time>2012-06-26T17:33:35Z</time>
      </trkpt>
      <trkpt lat="45.65459" lon="2.79885">
        <ele>994.4</ele>
        <time>2012-06-26T17:33:35Z</time>
      </trkpt>
      <trkpt lat="45.65464" lon="2.79885">
        <ele>995</ele>
        <time>2012-06-26T17:33:35Z</time>
      </trkpt>
      <trkpt lat="45.6547" lon="2.79884">
        <ele>995.6</ele>
        <time>2012-06-26T17:33:35Z</time>
      </trkpt>
      <trkpt lat="45.65476" lon="2.79883">
        <ele>996.2</ele>
        <time>2012-06-26T17:33:35Z</time>
      </trkpt>
      <trkpt lat="45.65482" lon="2.79882">
        <ele>996.7</ele>
        <time>2012-06-26T17:33:35Z</time>
      </trkpt>
      <trkpt lat="45.65487" lon="2.79882">
        <ele>997.3</ele>
        <time>2012-06-26T17:33:35Z</time>
      </trkpt>
      <trkpt lat="45.65493" lon="2.79882">
        <ele>997.9</ele>
        <time>2012-06-26T17:33:35Z</time>
      </trkpt>
      <trkpt lat="45.65497" lon="2.79884">
        <ele>998.9</ele>
        <time>2012-06-26T17:33:35Z</time>
      </trkpt>
      <trkpt lat="45.65503" lon="2.79885">
        <ele>999.4</ele>
        <time>2012-06-26T17:33:35Z</time>
      </trkpt>
      <trkpt lat="45.65508" lon="2.79885">
        <ele>999.8</ele>
        <time>2012-06-26T17:33:35Z</time>
      </trkpt>
      <trkpt lat="45.65514" lon="2.79887">
        <ele>1000.6</ele>
        <time>2012-06-26T17:33:35Z</time>
      </trkpt>
      <trkpt lat="45.65519" lon="2.79888">
        <ele>1001.3</ele>
        <time>2012-06-26T17:33:35Z</time>
      </trkpt>
      <trkpt lat="45.65525" lon="2.7989">
        <ele>1001.9</ele>
        <time>2012-06-26T17:33:35Z</time>
      </trkpt>
      <trkpt lat="45.6553" lon="2.79892">
        <ele>1002.5</ele>
        <time>2012-06-26T17:33:35Z</time>
      </trkpt>
      <trkpt lat="45.65536" lon="2.79894">
        <ele>1002.9</ele>
        <time>2012-06-26T17:33:35Z</time>
      </trkpt>
      <trkpt lat="45.65542" lon="2.79896">
        <ele>1003.4</ele>
        <time>2012-06-26T17:33:35Z</time>
      </trkpt>
      <trkpt lat="45.65547" lon="2.79898">
        <ele>1003.9</ele>
        <time>2012-06-26T17:33:35Z</time>
      </trkpt>
      <trkpt lat="45.65552" lon="2.799">
        <ele>1004.4</ele>
        <time>2012-06-26T17:33:35Z</time>
      </trkpt>
      <trkpt lat="45.65558" lon="2.79902">
        <ele>1005</ele>
        <time>2012-06-26T17:33:35Z</time>
      </trkpt>
      <trkpt lat="45.65563" lon="2.79905">
        <ele>1005.7</ele>
        <time>2012-06-26T17:33:35Z</time>
      </trkpt>
      <trkpt lat="45.65568" lon="2.79907">
        <ele>1006.4</ele>
        <time>2012-06-26T17:33:35Z</time>
      </trkpt>
      <trkpt lat="45.65574" lon="2.79909">
        <ele>1007</ele>
        <time>2012-06-26T17:33:35Z</time>
      </trkpt>
      <trkpt lat="45.6558" lon="2.79911">
        <ele>1007.7</ele>
        <time>2012-06-26T17:33:35Z</time>
      </trkpt>
      <trkpt lat="45.65585" lon="2.79914">
        <ele>1008.3</ele>
        <time>2012-06-26T17:33:35Z</time>
      </trkpt>
      <trkpt lat="45.65591" lon="2.79916">
        <ele>1008.8</ele>
        <time>2012-06-26T17:33:35Z</time>
      </trkpt>
      <trkpt lat="45.65597" lon="2.79918">
        <ele>1009.2</ele>
        <time>2012-06-26T17:33:35Z</time>
      </trkpt>
      <trkpt lat="45.65602" lon="2.7992">
        <ele>1009.6</ele>
        <time>2012-06-26T17:33:35Z</time>
      </trkpt>
      <trkpt lat="45.65607" lon="2.79922">
        <ele>1010</ele>
        <time>2012-06-26T17:33:35Z</time>
      </trkpt>
      <trkpt lat="45.65612" lon="2.79925">
        <ele>1010.4</ele>
        <time>2012-06-26T17:33:35Z</time>
      </trkpt>
      <trkpt lat="45.65617" lon="2.79928">
        <ele>1010.8</ele>
        <time>2012-06-26T17:33:35Z</time>
      </trkpt>
      <trkpt lat="45.65623" lon="2.7993">
        <ele>1011</ele>
        <time>2012-06-26T17:33:35Z</time>
      </trkpt>
      <trkpt lat="45.65624" lon="2.7993">
        <ele>1011</ele>
        <time>2012-06-26T17:33:35Z</time>
      </trkpt>
      <trkpt lat="45.65624" lon="2.7993">
        <ele>1011</ele>
        <time>2012-06-26T17:33:35Z</time>
      </trkpt>
      <trkpt lat="45.65624" lon="2.7993">
        <ele>1011</ele>
        <time>2012-06-26T17:33:35Z</time>
      </trkpt>
      <trkpt lat="45.65629" lon="2.79933">
        <ele>1011.2</ele>
        <time>2012-06-26T17:33:35Z</time>
      </trkpt>
      <trkpt lat="45.65634" lon="2.79936">
        <ele>1011.7</ele>
        <time>2012-06-26T17:33:35Z</time>
      </trkpt>
      <trkpt lat="45.6564" lon="2.79939">
        <ele>1011.9</ele>
        <time>2012-06-26T17:33:35Z</time>
      </trkpt>
      <trkpt lat="45.65645" lon="2.79942">
        <ele>1011.9</ele>
        <time>2012-06-26T17:33:35Z</time>
      </trkpt>
      <trkpt lat="45.65646" lon="2.79942">
        <ele>1011.8</ele>
        <time>2012-06-26T17:33:35Z</time>
      </trkpt>
      <trkpt lat="45.65646" lon="2.79943">
        <ele>1011.9</ele>
        <time>2012-06-26T17:33:35Z</time>
      </trkpt>
      <trkpt lat="45.65646" lon="2.79943">
        <ele>1012</ele>
        <time>2012-06-26T17:33:35Z</time>
      </trkpt>
      <trkpt lat="45.65651" lon="2.79946">
        <ele>1012</ele>
        <time>2012-06-26T17:33:35Z</time>
      </trkpt>
      <trkpt lat="45.65656" lon="2.7995">
        <ele>1012.3</ele>
        <time>2012-06-26T17:33:35Z</time>
      </trkpt>
      <trkpt lat="45.65661" lon="2.79954">
        <ele>1012.5</ele>
        <time>2012-06-26T17:33:35Z</time>
      </trkpt>
      <trkpt lat="45.65667" lon="2.79958">
        <ele>1012.8</ele>
        <time>2012-06-26T17:33:35Z</time>
      </trkpt>
      <trkpt lat="45.65672" lon="2.79962">
        <ele>1013.2</ele>
        <time>2012-06-26T17:33:35Z</time>
      </trkpt>
      <trkpt lat="45.65677" lon="2.79966">
        <ele>1013.5</ele>
        <time>2012-06-26T17:33:35Z</time>
      </trkpt>
      <trkpt lat="45.65682" lon="2.7997">
        <ele>1013.9</ele>
        <time>2012-06-26T17:33:35Z</time>
      </trkpt>
      <trkpt lat="45.65687" lon="2.79974">
        <ele>1014.2</ele>
        <time>2012-06-26T17:33:35Z</time>
      </trkpt>
      <trkpt lat="45.65693" lon="2.79978">
        <ele>1014.5</ele>
        <time>2012-06-26T17:33:35Z</time>
      </trkpt>
      <trkpt lat="45.65698" lon="2.79982">
        <ele>1014.8</ele>
        <time>2012-06-26T17:33:35Z</time>
      </trkpt>
      <trkpt lat="45.65703" lon="2.79987">
        <ele>1015</ele>
        <time>2012-06-26T17:33:35Z</time>
      </trkpt>
      <trkpt lat="45.65709" lon="2.7999">
        <ele>1015.2</ele>
        <time>2012-06-26T17:33:35Z</time>
      </trkpt>
      <trkpt lat="45.65713" lon="2.79994">
        <ele>1015.6</ele>
        <time>2012-06-26T17:33:35Z</time>
      </trkpt>
      <trkpt lat="45.65714" lon="2.79995">
        <ele>1015.7</ele>
        <time>2012-06-26T17:33:35Z</time>
      </trkpt>
      <trkpt lat="45.65714" lon="2.79995">
        <ele>1015.7</ele>
        <time>2012-06-26T17:33:35Z</time>
      </trkpt>
      <trkpt lat="45.65715" lon="2.79996">
        <ele>1015.8</ele>
        <time>2012-06-26T17:33:35Z</time>
      </trkpt>
      <trkpt lat="45.65719" lon="2.79994">
        <ele>1014.9</ele>
        <time>2012-06-26T17:33:35Z</time>
      </trkpt>
      <trkpt lat="45.65719" lon="2.79994">
        <ele>1014.8</ele>
        <time>2012-06-26T17:33:35Z</time>
      </trkpt>
      <trkpt lat="45.65719" lon="2.79994">
        <ele>1014.8</ele>
        <time>2012-06-26T17:33:35Z</time>
      </trkpt>
      <trkpt lat="45.6572" lon="2.79994">
        <ele>1014.7</ele>
        <time>2012-06-26T17:33:35Z</time>
      </trkpt>
      <trkpt lat="45.6572" lon="2.79994">
        <ele>1014.7</ele>
        <time>2012-06-26T17:33:35Z</time>
      </trkpt>
      <trkpt lat="45.6572" lon="2.79994">
        <ele>1014.6</ele>
        <time>2012-06-26T17:33:35Z</time>
      </trkpt>
      <trkpt lat="45.6572" lon="2.79994">
        <ele>1014.6</ele>
        <time>2012-06-26T17:33:35Z</time>
      </trkpt>
      <trkpt lat="45.65721" lon="2.79994">
        <ele>1014.6</ele>
        <time>2012-06-26T17:33:35Z</time>
      </trkpt>
      <trkpt lat="45.65721" lon="2.79994">
        <ele>1014.5</ele>
        <time>2012-06-26T17:33:35Z</time>
      </trkpt>
      <trkpt lat="45.65721" lon="2.79994">
        <ele>1014.5</ele>
        <time>2012-06-26T17:33:35Z</time>
      </trkpt>
      <trkpt lat="45.65721" lon="2.79993">
        <ele>1014.5</ele>
        <time>2012-06-26T17:33:35Z</time>
      </trkpt>
      <trkpt lat="45.65722" lon="2.79993">
        <ele>1014.4</ele>
        <time>2012-06-26T17:33:35Z</time>
      </trkpt>
      <trkpt lat="45.65722" lon="2.79993">
        <ele>1014.4</ele>
        <time>2012-06-26T17:33:35Z</time>
      </trkpt>
      <trkpt lat="45.65721" lon="2.79996">
        <ele>1015.1</ele>
        <time>2012-06-26T17:33:35Z</time>
      </trkpt>
      <trkpt lat="45.65723" lon="2.80002">
        <ele>1016.1</ele>
        <time>2012-06-26T17:33:35Z</time>
      </trkpt>
      <trkpt lat="45.65729" lon="2.80005">
        <ele>1016.1</ele>
        <time>2012-06-26T17:33:35Z</time>
      </trkpt>
      <trkpt lat="45.65734" lon="2.80009">
        <ele>1016</ele>
        <time>2012-06-26T17:33:35Z</time>
      </trkpt>
      <trkpt lat="45.65739" lon="2.80013">
        <ele>1016.1</ele>
        <time>2012-06-26T17:33:35Z</time>
      </trkpt>
      <trkpt lat="45.65745" lon="2.80017">
        <ele>1016.2</ele>
        <time>2012-06-26T17:33:35Z</time>
      </trkpt>
      <trkpt lat="45.6575" lon="2.8002">
        <ele>1016.3</ele>
        <time>2012-06-26T17:33:35Z</time>
      </trkpt>
      <trkpt lat="45.65755" lon="2.80023">
        <ele>1016.3</ele>
        <time>2012-06-26T17:33:35Z</time>
      </trkpt>
      <trkpt lat="45.6576" lon="2.80027">
        <ele>1016.4</ele>
        <time>2012-06-26T17:33:35Z</time>
      </trkpt>
      <trkpt lat="45.65765" lon="2.80031">
        <ele>1016.4</ele>
        <time>2012-06-26T17:33:35Z</time>
      </trkpt>
      <trkpt lat="45.6577" lon="2.80035">
        <ele>1016.4</ele>
        <time>2012-06-26T17:33:35Z</time>
      </trkpt>
      <trkpt lat="45.65775" lon="2.80039">
        <ele>1016.5</ele>
        <time>2012-06-26T17:33:35Z</time>
      </trkpt>
      <trkpt lat="45.6578" lon="2.80044">
        <ele>1016.7</ele>
        <time>2012-06-26T17:33:35Z</time>
      </trkpt>
      <trkpt lat="45.65783" lon="2.80047">
        <ele>1017</ele>
        <time>2012-06-26T17:33:35Z</time>
      </trkpt>
      <trkpt lat="45.65788" lon="2.80051">
        <ele>1017.4</ele>
        <time>2012-06-26T17:33:35Z</time>
      </trkpt>
      <trkpt lat="45.65793" lon="2.80055">
        <ele>1017.7</ele>
        <time>2012-06-26T17:33:35Z</time>
      </trkpt>
      <trkpt lat="45.65799" lon="2.80058">
        <ele>1018.1</ele>
        <time>2012-06-26T17:33:35Z</time>
      </trkpt>
      <trkpt lat="45.65804" lon="2.80062">
        <ele>1018.5</ele>
        <time>2012-06-26T17:33:35Z</time>
      </trkpt>
      <trkpt lat="45.6581" lon="2.80066">
        <ele>1019</ele>
        <time>2012-06-26T17:33:35Z</time>
      </trkpt>
      <trkpt lat="45.65815" lon="2.8007">
        <ele>1019.5</ele>
        <time>2012-06-26T17:33:35Z</time>
      </trkpt>
      <trkpt lat="45.6582" lon="2.80073">
        <ele>1019.8</ele>
        <time>2012-06-26T17:33:35Z</time>
      </trkpt>
      <trkpt lat="45.65826" lon="2.80077">
        <ele>1020.2</ele>
        <time>2012-06-26T17:33:35Z</time>
      </trkpt>
      <trkpt lat="45.65831" lon="2.80081">
        <ele>1020.7</ele>
        <time>2012-06-26T17:33:35Z</time>
      </trkpt>
      <trkpt lat="45.65836" lon="2.80085">
        <ele>1021.2</ele>
        <time>2012-06-26T17:33:35Z</time>
      </trkpt>
      <trkpt lat="45.65841" lon="2.80088">
        <ele>1021.9</ele>
        <time>2012-06-26T17:33:35Z</time>
      </trkpt>
      <trkpt lat="45.65846" lon="2.80091">
        <ele>1022.6</ele>
        <time>2012-06-26T17:33:35Z</time>
      </trkpt>
      <trkpt lat="45.65852" lon="2.80094">
        <ele>1023.4</ele>
        <time>2012-06-26T17:33:35Z</time>
      </trkpt>
      <trkpt lat="45.65857" lon="2.80096">
        <ele>1023.7</ele>
        <time>2012-06-26T17:33:35Z</time>
      </trkpt>
      <trkpt lat="45.65863" lon="2.80097">
        <ele>1024.2</ele>
        <time>2012-06-26T17:33:35Z</time>
      </trkpt>
      <trkpt lat="45.65869" lon="2.80098">
        <ele>1024.6</ele>
        <time>2012-06-26T17:33:35Z</time>
      </trkpt>
      <trkpt lat="45.65875" lon="2.80097">
        <ele>1024.9</ele>
        <time>2012-06-26T17:33:35Z</time>
      </trkpt>
      <trkpt lat="45.65882" lon="2.80097">
        <ele>1025</ele>
        <time>2012-06-26T17:33:35Z</time>
      </trkpt>
      <trkpt lat="45.65888" lon="2.80096">
        <ele>1025.2</ele>
        <time>2012-06-26T17:33:35Z</time>
      </trkpt>
      <trkpt lat="45.65894" lon="2.80096">
        <ele>1025.5</ele>
        <time>2012-06-26T17:33:35Z</time>
      </trkpt>
      <trkpt lat="45.659" lon="2.80096">
        <ele>1025.7</ele>
        <time>2012-06-26T17:33:35Z</time>
      </trkpt>
      <trkpt lat="45.65907" lon="2.80096">
        <ele>1026.1</ele>
        <time>2012-06-26T17:33:35Z</time>
      </trkpt>
      <trkpt lat="45.65914" lon="2.80096">
        <ele>1026.3</ele>
        <time>2012-06-26T17:33:35Z</time>
      </trkpt>
      <trkpt lat="45.6592" lon="2.80095">
        <ele>1026.7</ele>
        <time>2012-06-26T17:33:35Z</time>
      </trkpt>
      <trkpt lat="45.65926" lon="2.80096">
        <ele>1027.1</ele>
        <time>2012-06-26T17:33:35Z</time>
      </trkpt>
      <trkpt lat="45.65933" lon="2.80095">
        <ele>1027.4</ele>
        <time>2012-06-26T17:33:35Z</time>
      </trkpt>
      <trkpt lat="45.65939" lon="2.80095">
        <ele>1027.7</ele>
        <time>2012-06-26T17:33:35Z</time>
      </trkpt>
      <trkpt lat="45.65946" lon="2.80095">
        <ele>1028.1</ele>
        <time>2012-06-26T17:33:35Z</time>
      </trkpt>
      <trkpt lat="45.65951" lon="2.80095">
        <ele>1028.8</ele>
        <time>2012-06-26T17:33:35Z</time>
      </trkpt>
      <trkpt lat="45.65956" lon="2.80095">
        <ele>1029.4</ele>
        <time>2012-06-26T17:33:35Z</time>
      </trkpt>
      <trkpt lat="45.65962" lon="2.80094">
        <ele>1030</ele>
        <time>2012-06-26T17:33:35Z</time>
      </trkpt>
      <trkpt lat="45.65968" lon="2.80093">
        <ele>1030.5</ele>
        <time>2012-06-26T17:33:35Z</time>
      </trkpt>
      <trkpt lat="45.65975" lon="2.80092">
        <ele>1030.9</ele>
        <time>2012-06-26T17:33:35Z</time>
      </trkpt>
      <trkpt lat="45.6598" lon="2.80091">
        <ele>1031</ele>
        <time>2012-06-26T17:33:35Z</time>
      </trkpt>
      <trkpt lat="45.65987" lon="2.80091">
        <ele>1031.2</ele>
        <time>2012-06-26T17:33:35Z</time>
      </trkpt>
      <trkpt lat="45.65993" lon="2.80091">
        <ele>1031.4</ele>
        <time>2012-06-26T17:33:35Z</time>
      </trkpt>
      <trkpt lat="45.65999" lon="2.80092">
        <ele>1031.8</ele>
        <time>2012-06-26T17:33:35Z</time>
      </trkpt>
      <trkpt lat="45.66005" lon="2.80092">
        <ele>1031.8</ele>
        <time>2012-06-26T17:33:35Z</time>
      </trkpt>
      <trkpt lat="45.66011" lon="2.80093">
        <ele>1031.9</ele>
        <time>2012-06-26T17:33:35Z</time>
      </trkpt>
      <trkpt lat="45.66016" lon="2.80093">
        <ele>1031.9</ele>
        <time>2012-06-26T17:33:35Z</time>
      </trkpt>
      <trkpt lat="45.66023" lon="2.80094">
        <ele>1031.9</ele>
        <time>2012-06-26T17:33:35Z</time>
      </trkpt>
      <trkpt lat="45.66029" lon="2.80093">
        <ele>1031.8</ele>
        <time>2012-06-26T17:33:35Z</time>
      </trkpt>
      <trkpt lat="45.66035" lon="2.80093">
        <ele>1031.9</ele>
        <time>2012-06-26T17:33:35Z</time>
      </trkpt>
      <trkpt lat="45.66043" lon="2.80092">
        <ele>1031.9</ele>
        <time>2012-06-26T17:33:35Z</time>
      </trkpt>
      <trkpt lat="45.66049" lon="2.80091">
        <ele>1031.9</ele>
        <time>2012-06-26T17:33:35Z</time>
      </trkpt>
      <trkpt lat="45.66056" lon="2.80089">
        <ele>1031.8</ele>
        <time>2012-06-26T17:33:35Z</time>
      </trkpt>
      <trkpt lat="45.66059" lon="2.80087">
        <ele>1031.6</ele>
        <time>2012-06-26T17:33:35Z</time>
      </trkpt>
      <trkpt lat="45.6606" lon="2.80086">
        <ele>1031.6</ele>
        <time>2012-06-26T17:33:35Z</time>
      </trkpt>
      <trkpt lat="45.6606" lon="2.80086">
        <ele>1031.6</ele>
        <time>2012-06-26T17:33:35Z</time>
      </trkpt>
      <trkpt lat="45.6606" lon="2.80086">
        <ele>1031.6</ele>
        <time>2012-06-26T17:33:35Z</time>
      </trkpt>
      <trkpt lat="45.6606" lon="2.80086">
        <ele>1031.5</ele>
        <time>2012-06-26T17:33:35Z</time>
      </trkpt>
      <trkpt lat="45.6606" lon="2.80086">
        <ele>1031.5</ele>
        <time>2012-06-26T17:33:35Z</time>
      </trkpt>
      <trkpt lat="45.6606" lon="2.80085">
        <ele>1031.5</ele>
        <time>2012-06-26T17:33:35Z</time>
      </trkpt>
      <trkpt lat="45.6606" lon="2.80085">
        <ele>1031.4</ele>
        <time>2012-06-26T17:33:35Z</time>
      </trkpt>
      <trkpt lat="45.6606" lon="2.80085">
        <ele>1031.4</ele>
        <time>2012-06-26T17:33:35Z</time>
      </trkpt>
      <trkpt lat="45.6606" lon="2.80085">
        <ele>1031.4</ele>
        <time>2012-06-26T17:33:35Z</time>
      </trkpt>
      <trkpt lat="45.6606" lon="2.80085">
        <ele>1031.4</ele>
        <time>2012-06-26T17:33:35Z</time>
      </trkpt>
      <trkpt lat="45.6606" lon="2.80085">
        <ele>1031.5</ele>
        <time>2012-06-26T17:33:35Z</time>
      </trkpt>
      <trkpt lat="45.6606" lon="2.80086">
        <ele>1031.6</ele>
        <time>2012-06-26T17:33:35Z</time>
      </trkpt>
      <trkpt lat="45.6606" lon="2.80087">
        <ele>1031.7</ele>
        <time>2012-06-26T17:33:35Z</time>
      </trkpt>
      <trkpt lat="45.6606" lon="2.80087">
        <ele>1031.8</ele>
        <time>2012-06-26T17:33:35Z</time>
      </trkpt>
      <trkpt lat="45.6606" lon="2.80088">
        <ele>1031.8</ele>
        <time>2012-06-26T17:33:35Z</time>
      </trkpt>
      <trkpt lat="45.66059" lon="2.80088">
        <ele>1031.9</ele>
        <time>2012-06-26T17:33:35Z</time>
      </trkpt>
      <trkpt lat="45.66059" lon="2.80089">
        <ele>1031.9</ele>
        <time>2012-06-26T17:33:35Z</time>
      </trkpt>
      <trkpt lat="45.66059" lon="2.80089">
        <ele>1031.9</ele>
        <time>2012-06-26T17:33:35Z</time>
      </trkpt>
      <trkpt lat="45.6606" lon="2.80088">
        <ele>1031.9</ele>
        <time>2012-06-26T17:33:35Z</time>
      </trkpt>
      <trkpt lat="45.6606" lon="2.80088">
        <ele>1031.9</ele>
        <time>2012-06-26T17:33:35Z</time>
      </trkpt>
      <trkpt lat="45.6606" lon="2.80088">
        <ele>1031.8</ele>
        <time>2012-06-26T17:33:35Z</time>
      </trkpt>
      <trkpt lat="45.6606" lon="2.80088">
        <ele>1031.8</ele>
        <time>2012-06-26T17:33:35Z</time>
      </trkpt>
      <trkpt lat="45.66061" lon="2.80087">
        <ele>1031.7</ele>
        <time>2012-06-26T17:33:35Z</time>
      </trkpt>
      <trkpt lat="45.66061" lon="2.80086">
        <ele>1031.6</ele>
        <time>2012-06-26T17:33:35Z</time>
      </trkpt>
      <trkpt lat="45.66059" lon="2.80088">
        <ele>1031.8</ele>
        <time>2012-06-26T17:33:35Z</time>
      </trkpt>
      <trkpt lat="45.66061" lon="2.80089">
        <ele>1032.1</ele>
        <time>2012-06-26T17:33:35Z</time>
      </trkpt>
      <trkpt lat="45.66066" lon="2.80088">
        <ele>1032.2</ele>
        <time>2012-06-26T17:33:35Z</time>
      </trkpt>
      <trkpt lat="45.66072" lon="2.80088">
        <ele>1032.4</ele>
        <time>2012-06-26T17:33:35Z</time>
      </trkpt>
      <trkpt lat="45.66078" lon="2.80087">
        <ele>1032.5</ele>
        <time>2012-06-26T17:33:35Z</time>
      </trkpt>
      <trkpt lat="45.66083" lon="2.80087">
        <ele>1032.7</ele>
        <time>2012-06-26T17:33:35Z</time>
      </trkpt>
      <trkpt lat="45.66088" lon="2.80087">
        <ele>1032.8</ele>
        <time>2012-06-26T17:33:35Z</time>
      </trkpt>
      <trkpt lat="45.66093" lon="2.80088">
        <ele>1033.1</ele>
        <time>2012-06-26T17:33:35Z</time>
      </trkpt>
      <trkpt lat="45.66098" lon="2.80088">
        <ele>1033.3</ele>
        <time>2012-06-26T17:33:35Z</time>
      </trkpt>
      <trkpt lat="45.66103" lon="2.80089">
        <ele>1033.6</ele>
        <time>2012-06-26T17:33:35Z</time>
      </trkpt>
      <trkpt lat="45.66109" lon="2.8009">
        <ele>1033.9</ele>
        <time>2012-06-26T17:33:35Z</time>
      </trkpt>
      <trkpt lat="45.66116" lon="2.80091">
        <ele>1033.7</ele>
        <time>2012-06-26T17:33:35Z</time>
      </trkpt>
      <trkpt lat="45.66122" lon="2.80093">
        <ele>1033.4</ele>
        <time>2012-06-26T17:33:35Z</time>
      </trkpt>
      <trkpt lat="45.66128" lon="2.80095">
        <ele>1033</ele>
        <time>2012-06-26T17:33:35Z</time>
      </trkpt>
      <trkpt lat="45.66134" lon="2.80096">
        <ele>1032.8</ele>
        <time>2012-06-26T17:33:35Z</time>
      </trkpt>
      <trkpt lat="45.6614" lon="2.80098">
        <ele>1032.5</ele>
        <time>2012-06-26T17:33:35Z</time>
      </trkpt>
      <trkpt lat="45.66146" lon="2.801">
        <ele>1032.4</ele>
        <time>2012-06-26T17:33:35Z</time>
      </trkpt>
      <trkpt lat="45.66152" lon="2.80104">
        <ele>1032.6</ele>
        <time>2012-06-26T17:33:35Z</time>
      </trkpt>
      <trkpt lat="45.66159" lon="2.80106">
        <ele>1032.5</ele>
        <time>2012-06-26T17:33:35Z</time>
      </trkpt>
      <trkpt lat="45.66165" lon="2.80107">
        <ele>1032.2</ele>
        <time>2012-06-26T17:33:35Z</time>
      </trkpt>
      <trkpt lat="45.66171" lon="2.80109">
        <ele>1032.5</ele>
        <time>2012-06-26T17:33:35Z</time>
      </trkpt>
      <trkpt lat="45.66177" lon="2.80112">
        <ele>1033.2</ele>
        <time>2012-06-26T17:33:35Z</time>
      </trkpt>
      <trkpt lat="45.66181" lon="2.80118">
        <ele>1034</ele>
        <time>2012-06-26T17:33:35Z</time>
      </trkpt>
      <trkpt lat="45.66184" lon="2.80124">
        <ele>1034.9</ele>
        <time>2012-06-26T17:33:35Z</time>
      </trkpt>
      <trkpt lat="45.66185" lon="2.80131">
        <ele>1035.9</ele>
        <time>2012-06-26T17:33:35Z</time>
      </trkpt>
      <trkpt lat="45.66185" lon="2.80138">
        <ele>1036.9</ele>
        <time>2012-06-26T17:33:35Z</time>
      </trkpt>
      <trkpt lat="45.66187" lon="2.80145">
        <ele>1037.6</ele>
        <time>2012-06-26T17:33:35Z</time>
      </trkpt>
      <trkpt lat="45.66186" lon="2.80153">
        <ele>1038.4</ele>
        <time>2012-06-26T17:33:35Z</time>
      </trkpt>
      <trkpt lat="45.66186" lon="2.80161">
        <ele>1039.1</ele>
        <time>2012-06-26T17:33:35Z</time>
      </trkpt>
      <trkpt lat="45.66186" lon="2.80168">
        <ele>1039.8</ele>
        <time>2012-06-26T17:33:35Z</time>
      </trkpt>
      <trkpt lat="45.66186" lon="2.80176">
        <ele>1040.1</ele>
        <time>2012-06-26T17:33:35Z</time>
      </trkpt>
      <trkpt lat="45.66186" lon="2.80183">
        <ele>1040.5</ele>
        <time>2012-06-26T17:33:35Z</time>
      </trkpt>
      <trkpt lat="45.66185" lon="2.80191">
        <ele>1040.8</ele>
        <time>2012-06-26T17:33:35Z</time>
      </trkpt>
      <trkpt lat="45.66185" lon="2.80198">
        <ele>1041.1</ele>
        <time>2012-06-26T17:33:35Z</time>
      </trkpt>
      <trkpt lat="45.66184" lon="2.80206">
        <ele>1041.4</ele>
        <time>2012-06-26T17:33:35Z</time>
      </trkpt>
      <trkpt lat="45.66182" lon="2.80212">
        <ele>1041.6</ele>
        <time>2012-06-26T17:33:35Z</time>
      </trkpt>
      <trkpt lat="45.66178" lon="2.80215">
        <ele>1041.7</ele>
        <time>2012-06-26T17:33:35Z</time>
      </trkpt>
      <trkpt lat="45.66172" lon="2.80216">
        <ele>1041.8</ele>
        <time>2012-06-26T17:33:35Z</time>
      </trkpt>
      <trkpt lat="45.66166" lon="2.80216">
        <ele>1041.8</ele>
        <time>2012-06-26T17:33:35Z</time>
      </trkpt>
      <trkpt lat="45.6616" lon="2.80217">
        <ele>1042</ele>
        <time>2012-06-26T17:33:35Z</time>
      </trkpt>
      <trkpt lat="45.66155" lon="2.80217">
        <ele>1042.2</ele>
        <time>2012-06-26T17:33:35Z</time>
      </trkpt>
      <trkpt lat="45.66154" lon="2.80218">
        <ele>1042.2</ele>
        <time>2012-06-26T17:33:35Z</time>
      </trkpt>
      <trkpt lat="45.66153" lon="2.80218">
        <ele>1042.2</ele>
        <time>2012-06-26T17:33:35Z</time>
      </trkpt>
      <trkpt lat="45.66152" lon="2.80218">
        <ele>1042.3</ele>
        <time>2012-06-26T17:33:35Z</time>
      </trkpt>
      <trkpt lat="45.66152" lon="2.80218">
        <ele>1042.3</ele>
        <time>2012-06-26T17:33:35Z</time>
      </trkpt>
      <trkpt lat="45.66146" lon="2.80218">
        <ele>1042.5</ele>
        <time>2012-06-26T17:33:35Z</time>
      </trkpt>
      <trkpt lat="45.66139" lon="2.80218">
        <ele>1042.7</ele>
        <time>2012-06-26T17:33:35Z</time>
      </trkpt>
      <trkpt lat="45.66133" lon="2.80219">
        <ele>1043</ele>
        <time>2012-06-26T17:33:35Z</time>
      </trkpt>
      <trkpt lat="45.66127" lon="2.8022">
        <ele>1043.3</ele>
        <time>2012-06-26T17:33:35Z</time>
      </trkpt>
      <trkpt lat="45.6612" lon="2.80221">
        <ele>1043.6</ele>
        <time>2012-06-26T17:33:35Z</time>
      </trkpt>
      <trkpt lat="45.66114" lon="2.80222">
        <ele>1043.9</ele>
        <time>2012-06-26T17:33:35Z</time>
      </trkpt>
      <trkpt lat="45.66108" lon="2.80223">
        <ele>1044</ele>
        <time>2012-06-26T17:33:35Z</time>
      </trkpt>
      <trkpt lat="45.66102" lon="2.80223">
        <ele>1044</ele>
        <time>2012-06-26T17:33:35Z</time>
      </trkpt>
      <trkpt lat="45.66096" lon="2.80223">
        <ele>1044</ele>
        <time>2012-06-26T17:33:35Z</time>
      </trkpt>
      <trkpt lat="45.66089" lon="2.80222">
        <ele>1044</ele>
        <time>2012-06-26T17:33:35Z</time>
      </trkpt>
      <trkpt lat="45.66083" lon="2.80222">
        <ele>1044</ele>
        <time>2012-06-26T17:33:35Z</time>
      </trkpt>
      <trkpt lat="45.66077" lon="2.80222">
        <ele>1044.2</ele>
        <time>2012-06-26T17:33:35Z</time>
      </trkpt>
      <trkpt lat="45.66071" lon="2.80223">
        <ele>1044.4</ele>
        <time>2012-06-26T17:33:35Z</time>
      </trkpt>
      <trkpt lat="45.66065" lon="2.80225">
        <ele>1044.6</ele>
        <time>2012-06-26T17:33:35Z</time>
      </trkpt>
      <trkpt lat="45.6606" lon="2.80225">
        <ele>1044.8</ele>
        <time>2012-06-26T17:33:35Z</time>
      </trkpt>
      <trkpt lat="45.66054" lon="2.80225">
        <ele>1044.9</ele>
        <time>2012-06-26T17:33:35Z</time>
      </trkpt>
      <trkpt lat="45.66048" lon="2.80225">
        <ele>1044.8</ele>
        <time>2012-06-26T17:33:35Z</time>
      </trkpt>
      <trkpt lat="45.66042" lon="2.80226">
        <ele>1044.6</ele>
        <time>2012-06-26T17:33:35Z</time>
      </trkpt>
      <trkpt lat="45.66036" lon="2.80226">
        <ele>1044.4</ele>
        <time>2012-06-26T17:33:35Z</time>
      </trkpt>
      <trkpt lat="45.6603" lon="2.80226">
        <ele>1044.2</ele>
        <time>2012-06-26T17:33:35Z</time>
      </trkpt>
      <trkpt lat="45.66024" lon="2.80227">
        <ele>1044.3</ele>
        <time>2012-06-26T17:33:35Z</time>
      </trkpt>
      <trkpt lat="45.66018" lon="2.80227">
        <ele>1044.5</ele>
        <time>2012-06-26T17:33:35Z</time>
      </trkpt>
      <trkpt lat="45.66012" lon="2.80227">
        <ele>1044.6</ele>
        <time>2012-06-26T17:33:35Z</time>
      </trkpt>
      <trkpt lat="45.66006" lon="2.80227">
        <ele>1044.8</ele>
        <time>2012-06-26T17:33:35Z</time>
      </trkpt>
      <trkpt lat="45.66" lon="2.80227">
        <ele>1045</ele>
        <time>2012-06-26T17:33:35Z</time>
      </trkpt>
      <trkpt lat="45.65994" lon="2.80228">
        <ele>1045</ele>
        <time>2012-06-26T17:33:35Z</time>
      </trkpt>
      <trkpt lat="45.65988" lon="2.80228">
        <ele>1045</ele>
        <time>2012-06-26T17:33:35Z</time>
      </trkpt>
      <trkpt lat="45.65983" lon="2.80229">
        <ele>1045</ele>
        <time>2012-06-26T17:33:35Z</time>
      </trkpt>
      <trkpt lat="45.65977" lon="2.80229">
        <ele>1045</ele>
        <time>2012-06-26T17:33:35Z</time>
      </trkpt>
      <trkpt lat="45.65971" lon="2.8023">
        <ele>1045.1</ele>
        <time>2012-06-26T17:33:35Z</time>
      </trkpt>
      <trkpt lat="45.65965" lon="2.8023">
        <ele>1045.5</ele>
        <time>2012-06-26T17:33:35Z</time>
      </trkpt>
      <trkpt lat="45.65959" lon="2.8023">
        <ele>1045.8</ele>
        <time>2012-06-26T17:33:35Z</time>
      </trkpt>
      <trkpt lat="45.65953" lon="2.80231">
        <ele>1046.2</ele>
        <time>2012-06-26T17:33:35Z</time>
      </trkpt>
      <trkpt lat="45.65947" lon="2.80231">
        <ele>1046.5</ele>
        <time>2012-06-26T17:33:35Z</time>
      </trkpt>
      <trkpt lat="45.65941" lon="2.80231">
        <ele>1046.8</ele>
        <time>2012-06-26T17:33:35Z</time>
      </trkpt>
      <trkpt lat="45.65936" lon="2.80232">
        <ele>1047</ele>
        <time>2012-06-26T17:33:35Z</time>
      </trkpt>
      <trkpt lat="45.6593" lon="2.80232">
        <ele>1047.2</ele>
        <time>2012-06-26T17:33:35Z</time>
      </trkpt>
      <trkpt lat="45.65924" lon="2.80232">
        <ele>1047.4</ele>
        <time>2012-06-26T17:33:35Z</time>
      </trkpt>
      <trkpt lat="45.65918" lon="2.80232">
        <ele>1047.6</ele>
        <time>2012-06-26T17:33:35Z</time>
      </trkpt>
      <trkpt lat="45.65913" lon="2.80232">
        <ele>1047.8</ele>
        <time>2012-06-26T17:33:35Z</time>
      </trkpt>
      <trkpt lat="45.65907" lon="2.80232">
        <ele>1048</ele>
        <time>2012-06-26T17:33:35Z</time>
      </trkpt>
      <trkpt lat="45.65901" lon="2.80232">
        <ele>1048.2</ele>
        <time>2012-06-26T17:33:35Z</time>
      </trkpt>
      <trkpt lat="45.65895" lon="2.80232">
        <ele>1048.4</ele>
        <time>2012-06-26T17:33:35Z</time>
      </trkpt>
      <trkpt lat="45.6589" lon="2.80232">
        <ele>1048.6</ele>
        <time>2012-06-26T17:33:35Z</time>
      </trkpt>
      <trkpt lat="45.65884" lon="2.80232">
        <ele>1048.4</ele>
        <time>2012-06-26T17:33:35Z</time>
      </trkpt>
      <trkpt lat="45.65877" lon="2.80233">
        <ele>1048.1</ele>
        <time>2012-06-26T17:33:35Z</time>
      </trkpt>
      <trkpt lat="45.65871" lon="2.80233">
        <ele>1047.8</ele>
        <time>2012-06-26T17:33:35Z</time>
      </trkpt>
      <trkpt lat="45.65865" lon="2.80232">
        <ele>1047.5</ele>
        <time>2012-06-26T17:33:35Z</time>
      </trkpt>
      <trkpt lat="45.65859" lon="2.80232">
        <ele>1047</ele>
        <time>2012-06-26T17:33:35Z</time>
      </trkpt>
      <trkpt lat="45.65852" lon="2.80232">
        <ele>1046.4</ele>
        <time>2012-06-26T17:33:35Z</time>
      </trkpt>
      <trkpt lat="45.65846" lon="2.80231">
        <ele>1045.9</ele>
        <time>2012-06-26T17:33:35Z</time>
      </trkpt>
      <trkpt lat="45.65839" lon="2.80231">
        <ele>1045.2</ele>
        <time>2012-06-26T17:33:35Z</time>
      </trkpt>
      <trkpt lat="45.65833" lon="2.8023">
        <ele>1044.7</ele>
        <time>2012-06-26T17:33:35Z</time>
      </trkpt>
      <trkpt lat="45.65827" lon="2.80229">
        <ele>1043.6</ele>
        <time>2012-06-26T17:33:35Z</time>
      </trkpt>
      <trkpt lat="45.65821" lon="2.80228">
        <ele>1042.5</ele>
        <time>2012-06-26T17:33:35Z</time>
      </trkpt>
      <trkpt lat="45.65815" lon="2.80227">
        <ele>1041.5</ele>
        <time>2012-06-26T17:33:35Z</time>
      </trkpt>
      <trkpt lat="45.65809" lon="2.80226">
        <ele>1040.5</ele>
        <time>2012-06-26T17:33:35Z</time>
      </trkpt>
      <trkpt lat="45.65803" lon="2.80225">
        <ele>1039.7</ele>
        <time>2012-06-26T17:33:35Z</time>
      </trkpt>
      <trkpt lat="45.65797" lon="2.80224">
        <ele>1039.3</ele>
        <time>2012-06-26T17:33:35Z</time>
      </trkpt>
      <trkpt lat="45.65791" lon="2.80224">
        <ele>1038.9</ele>
        <time>2012-06-26T17:33:35Z</time>
      </trkpt>
      <trkpt lat="45.65786" lon="2.80223">
        <ele>1038.5</ele>
        <time>2012-06-26T17:33:35Z</time>
      </trkpt>
      <trkpt lat="45.65779" lon="2.80223">
        <ele>1038.1</ele>
        <time>2012-06-26T17:33:35Z</time>
      </trkpt>
      <trkpt lat="45.65774" lon="2.80222">
        <ele>1037.7</ele>
        <time>2012-06-26T17:33:35Z</time>
      </trkpt>
      <trkpt lat="45.65768" lon="2.80221">
        <ele>1037.4</ele>
        <time>2012-06-26T17:33:35Z</time>
      </trkpt>
      <trkpt lat="45.65762" lon="2.80219">
        <ele>1037.1</ele>
        <time>2012-06-26T17:33:35Z</time>
      </trkpt>
      <trkpt lat="45.65757" lon="2.80217">
        <ele>1036.8</ele>
        <time>2012-06-26T17:33:35Z</time>
      </trkpt>
      <trkpt lat="45.65752" lon="2.80215">
        <ele>1036.6</ele>
        <time>2012-06-26T17:33:35Z</time>
      </trkpt>
      <trkpt lat="45.65747" lon="2.80212">
        <ele>1036.6</ele>
        <time>2012-06-26T17:33:35Z</time>
      </trkpt>
      <trkpt lat="45.65742" lon="2.80209">
        <ele>1036.7</ele>
        <time>2012-06-26T17:33:35Z</time>
      </trkpt>
      <trkpt lat="45.65737" lon="2.80206">
        <ele>1036.7</ele>
        <time>2012-06-26T17:33:35Z</time>
      </trkpt>
      <trkpt lat="45.65731" lon="2.80203">
        <ele>1036.8</ele>
        <time>2012-06-26T17:33:35Z</time>
      </trkpt>
      <trkpt lat="45.65726" lon="2.80199">
        <ele>1036.8</ele>
        <time>2012-06-26T17:33:35Z</time>
      </trkpt>
      <trkpt lat="45.65721" lon="2.80196">
        <ele>1036.9</ele>
        <time>2012-06-26T17:33:35Z</time>
      </trkpt>
      <trkpt lat="45.65717" lon="2.80191">
        <ele>1037.2</ele>
        <time>2012-06-26T17:33:35Z</time>
      </trkpt>
      <trkpt lat="45.65714" lon="2.80186">
        <ele>1037.5</ele>
        <time>2012-06-26T17:33:35Z</time>
      </trkpt>
      <trkpt lat="45.65708" lon="2.80183">
        <ele>1037.6</ele>
        <time>2012-06-26T17:33:35Z</time>
      </trkpt>
      <trkpt lat="45.65703" lon="2.8018">
        <ele>1037.7</ele>
        <time>2012-06-26T17:33:35Z</time>
      </trkpt>
      <trkpt lat="45.65699" lon="2.80176">
        <ele>1037.8</ele>
        <time>2012-06-26T17:33:35Z</time>
      </trkpt>
      <trkpt lat="45.65693" lon="2.80172">
        <ele>1037.8</ele>
        <time>2012-06-26T17:33:35Z</time>
      </trkpt>
      <trkpt lat="45.65688" lon="2.80168">
        <ele>1038.2</ele>
        <time>2012-06-26T17:33:35Z</time>
      </trkpt>
      <trkpt lat="45.65683" lon="2.80164">
        <ele>1038.5</ele>
        <time>2012-06-26T17:33:35Z</time>
      </trkpt>
      <trkpt lat="45.65677" lon="2.80163">
        <ele>1038.7</ele>
        <time>2012-06-26T17:33:35Z</time>
      </trkpt>
      <trkpt lat="45.6567" lon="2.80158">
        <ele>1039.2</ele>
        <time>2012-06-26T17:33:35Z</time>
      </trkpt>
      <trkpt lat="45.65664" lon="2.80159">
        <ele>1039</ele>
        <time>2012-06-26T17:33:35Z</time>
      </trkpt>
      <trkpt lat="45.65661" lon="2.80161">
        <ele>1038.6</ele>
        <time>2012-06-26T17:33:35Z</time>
      </trkpt>
      <trkpt lat="45.65661" lon="2.80161">
        <ele>1038.5</ele>
        <time>2012-06-26T17:33:35Z</time>
      </trkpt>
      <trkpt lat="45.6566" lon="2.80159">
        <ele>1038.5</ele>
        <time>2012-06-26T17:33:35Z</time>
      </trkpt>
      <trkpt lat="45.6566" lon="2.80158">
        <ele>1038.7</ele>
        <time>2012-06-26T17:33:35Z</time>
      </trkpt>
      <trkpt lat="45.65659" lon="2.8016">
        <ele>1038.4</ele>
        <time>2012-06-26T17:33:35Z</time>
      </trkpt>
      <trkpt lat="45.65658" lon="2.80164">
        <ele>1038.1</ele>
        <time>2012-06-26T17:33:35Z</time>
      </trkpt>
      <trkpt lat="45.65657" lon="2.80166">
        <ele>1037.6</ele>
        <time>2012-06-26T17:33:35Z</time>
      </trkpt>
      <trkpt lat="45.65656" lon="2.8017">
        <ele>1036.8</ele>
        <time>2012-06-26T17:33:35Z</time>
      </trkpt>
      <trkpt lat="45.65657" lon="2.80176">
        <ele>1035.9</ele>
        <time>2012-06-26T17:33:35Z</time>
      </trkpt>
      <trkpt lat="45.65658" lon="2.80178">
        <ele>1035.7</ele>
        <time>2012-06-26T17:33:35Z</time>
      </trkpt>
      <trkpt lat="45.65662" lon="2.80183">
        <ele>1035.4</ele>
        <time>2012-06-26T17:33:35Z</time>
      </trkpt>
      <trkpt lat="45.65665" lon="2.80189">
        <ele>1034.9</ele>
        <time>2012-06-26T17:33:35Z</time>
      </trkpt>
      <trkpt lat="45.65669" lon="2.8019">
        <ele>1034.9</ele>
        <time>2012-06-26T17:33:35Z</time>
      </trkpt>
      <trkpt lat="45.65672" lon="2.80195">
        <ele>1034.3</ele>
        <time>2012-06-26T17:33:35Z</time>
      </trkpt>
      <trkpt lat="45.65675" lon="2.80201">
        <ele>1033.5</ele>
        <time>2012-06-26T17:33:35Z</time>
      </trkpt>
      <trkpt lat="45.6568" lon="2.80205">
        <ele>1033.2</ele>
        <time>2012-06-26T17:33:35Z</time>
      </trkpt>
      <trkpt lat="45.65684" lon="2.80209">
        <ele>1033</ele>
        <time>2012-06-26T17:33:35Z</time>
      </trkpt>
      <trkpt lat="45.65689" lon="2.80212">
        <ele>1033.1</ele>
        <time>2012-06-26T17:33:35Z</time>
      </trkpt>
      <trkpt lat="45.65695" lon="2.80216">
        <ele>1033.2</ele>
        <time>2012-06-26T17:33:35Z</time>
      </trkpt>
      <trkpt lat="45.65702" lon="2.80217">
        <ele>1033.5</ele>
        <time>2012-06-26T17:33:35Z</time>
      </trkpt>
      <trkpt lat="45.65703" lon="2.80224">
        <ele>1032.6</ele>
        <time>2012-06-26T17:33:35Z</time>
      </trkpt>
      <trkpt lat="45.65704" lon="2.8023">
        <ele>1031.7</ele>
        <time>2012-06-26T17:33:35Z</time>
      </trkpt>
      <trkpt lat="45.65708" lon="2.80235">
        <ele>1031.2</ele>
        <time>2012-06-26T17:33:35Z</time>
      </trkpt>
      <trkpt lat="45.65708" lon="2.80244">
        <ele>1029.4</ele>
        <time>2012-06-26T17:33:35Z</time>
      </trkpt>
      <trkpt lat="45.65712" lon="2.80251">
        <ele>1028.8</ele>
        <time>2012-06-26T17:33:35Z</time>
      </trkpt>
      <trkpt lat="45.65712" lon="2.80259">
        <ele>1028.5</ele>
        <time>2012-06-26T17:33:35Z</time>
      </trkpt>
      <trkpt lat="45.65714" lon="2.80263">
        <ele>1028.4</ele>
        <time>2012-06-26T17:33:35Z</time>
      </trkpt>
      <trkpt lat="45.65717" lon="2.80266">
        <ele>1028.2</ele>
        <time>2012-06-26T17:33:35Z</time>
      </trkpt>
      <trkpt lat="45.65716" lon="2.80266">
        <ele>1028.3</ele>
        <time>2012-06-26T17:33:35Z</time>
      </trkpt>
      <trkpt lat="45.65715" lon="2.80267">
        <ele>1028.2</ele>
        <time>2012-06-26T17:33:35Z</time>
      </trkpt>
      <trkpt lat="45.65713" lon="2.80263">
        <ele>1028.4</ele>
        <time>2012-06-26T17:33:35Z</time>
      </trkpt>
      <trkpt lat="45.65715" lon="2.80262">
        <ele>1028.5</ele>
        <time>2012-06-26T17:33:35Z</time>
      </trkpt>
      <trkpt lat="45.65718" lon="2.80265">
        <ele>1028.4</ele>
        <time>2012-06-26T17:33:35Z</time>
      </trkpt>
      <trkpt lat="45.65719" lon="2.80268">
        <ele>1028.1</ele>
        <time>2012-06-26T17:33:35Z</time>
      </trkpt>
      <trkpt lat="45.65719" lon="2.80269">
        <ele>1028</ele>
        <time>2012-06-26T17:33:35Z</time>
      </trkpt>
      <trkpt lat="45.65722" lon="2.80271">
        <ele>1027.7</ele>
        <time>2012-06-26T17:33:35Z</time>
      </trkpt>
      <trkpt lat="45.65727" lon="2.80276">
        <ele>1027.4</ele>
        <time>2012-06-26T17:33:35Z</time>
      </trkpt>
      <trkpt lat="45.65731" lon="2.80284">
        <ele>1026.6</ele>
        <time>2012-06-26T17:33:35Z</time>
      </trkpt>
      <trkpt lat="45.65736" lon="2.80288">
        <ele>1026.2</ele>
        <time>2012-06-26T17:33:35Z</time>
      </trkpt>
      <trkpt lat="45.65741" lon="2.80294">
        <ele>1025.6</ele>
        <time>2012-06-26T17:33:35Z</time>
      </trkpt>
      <trkpt lat="45.65746" lon="2.80299">
        <ele>1024.8</ele>
        <time>2012-06-26T17:33:35Z</time>
      </trkpt>
      <trkpt lat="45.65749" lon="2.80305">
        <ele>1024.1</ele>
        <time>2012-06-26T17:33:35Z</time>
      </trkpt>
      <trkpt lat="45.65755" lon="2.80311">
        <ele>1024</ele>
        <time>2012-06-26T17:33:35Z</time>
      </trkpt>
      <trkpt lat="45.65758" lon="2.80317">
        <ele>1023.7</ele>
        <time>2012-06-26T17:33:35Z</time>
      </trkpt>
      <trkpt lat="45.65762" lon="2.80326">
        <ele>1022.9</ele>
        <time>2012-06-26T17:33:35Z</time>
      </trkpt>
      <trkpt lat="45.65765" lon="2.80333">
        <ele>1022</ele>
        <time>2012-06-26T17:33:35Z</time>
      </trkpt>
      <trkpt lat="45.65766" lon="2.80342">
        <ele>1021.4</ele>
        <time>2012-06-26T17:33:35Z</time>
      </trkpt>
      <trkpt lat="45.65766" lon="2.8035">
        <ele>1020.8</ele>
        <time>2012-06-26T17:33:35Z</time>
      </trkpt>
      <trkpt lat="45.65767" lon="2.80359">
        <ele>1020.1</ele>
        <time>2012-06-26T17:33:35Z</time>
      </trkpt>
      <trkpt lat="45.65767" lon="2.80359">
        <ele>1020</ele>
        <time>2012-06-26T17:33:35Z</time>
      </trkpt>
      <trkpt lat="45.65767" lon="2.80365">
        <ele>1019.5</ele>
        <time>2012-06-26T17:33:35Z</time>
      </trkpt>
      <trkpt lat="45.65767" lon="2.80364">
        <ele>1019.6</ele>
        <time>2012-06-26T17:33:35Z</time>
      </trkpt>
      <trkpt lat="45.65766" lon="2.80363">
        <ele>1019.9</ele>
        <time>2012-06-26T17:33:35Z</time>
      </trkpt>
      <trkpt lat="45.65765" lon="2.80366">
        <ele>1019.8</ele>
        <time>2012-06-26T17:33:35Z</time>
      </trkpt>
      <trkpt lat="45.65765" lon="2.80371">
        <ele>1019.4</ele>
        <time>2012-06-26T17:33:35Z</time>
      </trkpt>
      <trkpt lat="45.65765" lon="2.80378">
        <ele>1018.8</ele>
        <time>2012-06-26T17:33:35Z</time>
      </trkpt>
      <trkpt lat="45.65767" lon="2.80386">
        <ele>1017.7</ele>
        <time>2012-06-26T17:33:35Z</time>
      </trkpt>
      <trkpt lat="45.65769" lon="2.80393">
        <ele>1016.4</ele>
        <time>2012-06-26T17:33:35Z</time>
      </trkpt>
      <trkpt lat="45.65774" lon="2.80395">
        <ele>1015.1</ele>
        <time>2012-06-26T17:33:35Z</time>
      </trkpt>
      <trkpt lat="45.6578" lon="2.80396">
        <ele>1013.6</ele>
        <time>2012-06-26T17:33:35Z</time>
      </trkpt>
      <trkpt lat="45.65786" lon="2.8039">
        <ele>1012.9</ele>
        <time>2012-06-26T17:33:35Z</time>
      </trkpt>
      <trkpt lat="45.65794" lon="2.80383">
        <ele>1011.9</ele>
        <time>2012-06-26T17:33:35Z</time>
      </trkpt>
      <trkpt lat="45.65799" lon="2.80376">
        <ele>1012.1</ele>
        <time>2012-06-26T17:33:35Z</time>
      </trkpt>
      <trkpt lat="45.65803" lon="2.80373">
        <ele>1011.8</ele>
        <time>2012-06-26T17:33:35Z</time>
      </trkpt>
      <trkpt lat="45.65809" lon="2.8037">
        <ele>1011.7</ele>
        <time>2012-06-26T17:33:35Z</time>
      </trkpt>
      <trkpt lat="45.65814" lon="2.80372">
        <ele>1010.6</ele>
        <time>2012-06-26T17:33:35Z</time>
      </trkpt>
      <trkpt lat="45.65819" lon="2.80376">
        <ele>1009.1</ele>
        <time>2012-06-26T17:33:35Z</time>
      </trkpt>
      <trkpt lat="45.65825" lon="2.80378">
        <ele>1007.6</ele>
        <time>2012-06-26T17:33:35Z</time>
      </trkpt>
      <trkpt lat="45.65829" lon="2.80384">
        <ele>1005.1</ele>
        <time>2012-06-26T17:33:35Z</time>
      </trkpt>
      <trkpt lat="45.65834" lon="2.80389">
        <ele>1002.9</ele>
        <time>2012-06-26T17:33:35Z</time>
      </trkpt>
      <trkpt lat="45.65842" lon="2.80391">
        <ele>1002</ele>
        <time>2012-06-26T17:33:35Z</time>
      </trkpt>
      <trkpt lat="45.65848" lon="2.80388">
        <ele>1002.1</ele>
        <time>2012-06-26T17:33:35Z</time>
      </trkpt>
      <trkpt lat="45.65854" lon="2.80392">
        <ele>1000.6</ele>
        <time>2012-06-26T17:33:35Z</time>
      </trkpt>
      <trkpt lat="45.65861" lon="2.80401">
        <ele>997.6</ele>
        <time>2012-06-26T17:33:35Z</time>
      </trkpt>
      <trkpt lat="45.65871" lon="2.80396">
        <ele>998.8</ele>
        <time>2012-06-26T17:33:35Z</time>
      </trkpt>
      <trkpt lat="45.65875" lon="2.80396">
        <ele>998.8</ele>
        <time>2012-06-26T17:33:35Z</time>
      </trkpt>
      <trkpt lat="45.65882" lon="2.80391">
        <ele>1000.3</ele>
        <time>2012-06-26T17:33:35Z</time>
      </trkpt>
      <trkpt lat="45.6589" lon="2.80388">
        <ele>1001.5</ele>
        <time>2012-06-26T17:33:35Z</time>
      </trkpt>
      <trkpt lat="45.65893" lon="2.80391">
        <ele>1000.4</ele>
        <time>2012-06-26T17:33:35Z</time>
      </trkpt>
      <trkpt lat="45.65895" lon="2.80397">
        <ele>998</ele>
        <time>2012-06-26T17:33:35Z</time>
      </trkpt>
      <trkpt lat="45.6589" lon="2.80402">
        <ele>996.2</ele>
        <time>2012-06-26T17:33:35Z</time>
      </trkpt>
      <trkpt lat="45.65882" lon="2.804">
        <ele>997</ele>
        <time>2012-06-26T17:33:35Z</time>
      </trkpt>
      <trkpt lat="45.65874" lon="2.80399">
        <ele>997.7</ele>
        <time>2012-06-26T17:33:35Z</time>
      </trkpt>
      <trkpt lat="45.65866" lon="2.80399">
        <ele>997.9</ele>
        <time>2012-06-26T17:33:35Z</time>
      </trkpt>
      <trkpt lat="45.65863" lon="2.80401">
        <ele>997.5</ele>
        <time>2012-06-26T17:33:35Z</time>
      </trkpt>
      <trkpt lat="45.65859" lon="2.80402">
        <ele>997.6</ele>
        <time>2012-06-26T17:33:35Z</time>
      </trkpt>
      <trkpt lat="45.65854" lon="2.80404">
        <ele>997.4</ele>
        <time>2012-06-26T17:33:35Z</time>
      </trkpt>
      <trkpt lat="45.65848" lon="2.80406">
        <ele>997.3</ele>
        <time>2012-06-26T17:33:35Z</time>
      </trkpt>
      <trkpt lat="45.65841" lon="2.80408">
        <ele>997.4</ele>
        <time>2012-06-26T17:33:35Z</time>
      </trkpt>
      <trkpt lat="45.65838" lon="2.80415">
        <ele>996</ele>
        <time>2012-06-26T17:33:35Z</time>
      </trkpt>
      <trkpt lat="45.65837" lon="2.80422">
        <ele>995.1</ele>
        <time>2012-06-26T17:33:35Z</time>
      </trkpt>
      <trkpt lat="45.65835" lon="2.80431">
        <ele>994.3</ele>
        <time>2012-06-26T17:33:35Z</time>
      </trkpt>
      <trkpt lat="45.65833" lon="2.80438">
        <ele>993.7</ele>
        <time>2012-06-26T17:33:35Z</time>
      </trkpt>
      <trkpt lat="45.65835" lon="2.80443">
        <ele>993</ele>
        <time>2012-06-26T17:33:35Z</time>
      </trkpt>
      <trkpt lat="45.65835" lon="2.80451">
        <ele>992.6</ele>
        <time>2012-06-26T17:33:35Z</time>
      </trkpt>
      <trkpt lat="45.65836" lon="2.80454">
        <ele>992.3</ele>
        <time>2012-06-26T17:33:35Z</time>
      </trkpt>
      <trkpt lat="45.6584" lon="2.80463">
        <ele>991.6</ele>
        <time>2012-06-26T17:33:35Z</time>
      </trkpt>
      <trkpt lat="45.65842" lon="2.80472">
        <ele>991.1</ele>
        <time>2012-06-26T17:33:35Z</time>
      </trkpt>
      <trkpt lat="45.65847" lon="2.80477">
        <ele>990.9</ele>
        <time>2012-06-26T17:33:35Z</time>
      </trkpt>
      <trkpt lat="45.65854" lon="2.8048">
        <ele>990.3</ele>
        <time>2012-06-26T17:33:35Z</time>
      </trkpt>
      <trkpt lat="45.65854" lon="2.80481">
        <ele>990.4</ele>
        <time>2012-06-26T17:33:35Z</time>
      </trkpt>
      <trkpt lat="45.65855" lon="2.80481">
        <ele>990.3</ele>
        <time>2012-06-26T17:33:35Z</time>
      </trkpt>
      <trkpt lat="45.65856" lon="2.80481">
        <ele>990.2</ele>
        <time>2012-06-26T17:33:35Z</time>
      </trkpt>
      <trkpt lat="45.6586" lon="2.80482">
        <ele>989.8</ele>
        <time>2012-06-26T17:33:35Z</time>
      </trkpt>
      <trkpt lat="45.65865" lon="2.80483">
        <ele>989.5</ele>
        <time>2012-06-26T17:33:35Z</time>
      </trkpt>
      <trkpt lat="45.65871" lon="2.80483">
        <ele>989.1</ele>
        <time>2012-06-26T17:33:35Z</time>
      </trkpt>
      <trkpt lat="45.65877" lon="2.80481">
        <ele>988.5</ele>
        <time>2012-06-26T17:33:35Z</time>
      </trkpt>
      <trkpt lat="45.65882" lon="2.80482">
        <ele>988.2</ele>
        <time>2012-06-26T17:33:35Z</time>
      </trkpt>
      <trkpt lat="45.65887" lon="2.80484">
        <ele>988</ele>
        <time>2012-06-26T17:33:35Z</time>
      </trkpt>
      <trkpt lat="45.6589" lon="2.80483">
        <ele>987.7</ele>
        <time>2012-06-26T17:33:35Z</time>
      </trkpt>
      <trkpt lat="45.6589" lon="2.80483">
        <ele>987.7</ele>
        <time>2012-06-26T17:33:35Z</time>
      </trkpt>
      <trkpt lat="45.6589" lon="2.80483">
        <ele>987.7</ele>
        <time>2012-06-26T17:33:35Z</time>
      </trkpt>
      <trkpt lat="45.65889" lon="2.80483">
        <ele>987.7</ele>
        <time>2012-06-26T17:33:35Z</time>
      </trkpt>
      <trkpt lat="45.65889" lon="2.80483">
        <ele>987.7</ele>
        <time>2012-06-26T17:33:35Z</time>
      </trkpt>
      <trkpt lat="45.65889" lon="2.80483">
        <ele>987.7</ele>
        <time>2012-06-26T17:33:35Z</time>
      </trkpt>
      <trkpt lat="45.6589" lon="2.80483">
        <ele>987.7</ele>
        <time>2012-06-26T17:33:35Z</time>
      </trkpt>
      <trkpt lat="45.6589" lon="2.80483">
        <ele>987.7</ele>
        <time>2012-06-26T17:33:35Z</time>
      </trkpt>
      <trkpt lat="45.6589" lon="2.80484">
        <ele>987.7</ele>
        <time>2012-06-26T17:33:35Z</time>
      </trkpt>
      <trkpt lat="45.65889" lon="2.80483">
        <ele>987.7</ele>
        <time>2012-06-26T17:33:35Z</time>
      </trkpt>
      <trkpt lat="45.6589" lon="2.80483">
        <ele>987.7</ele>
        <time>2012-06-26T17:33:35Z</time>
      </trkpt>
      <trkpt lat="45.6589" lon="2.80484">
        <ele>987.7</ele>
        <time>2012-06-26T17:33:35Z</time>
      </trkpt>
      <trkpt lat="45.6589" lon="2.80483">
        <ele>987.7</ele>
        <time>2012-06-26T17:33:35Z</time>
      </trkpt>
      <trkpt lat="45.6589" lon="2.80483">
        <ele>987.7</ele>
        <time>2012-06-26T17:33:35Z</time>
      </trkpt>
      <trkpt lat="45.6589" lon="2.80483">
        <ele>987.7</ele>
        <time>2012-06-26T17:33:35Z</time>
      </trkpt>
      <trkpt lat="45.6589" lon="2.80482">
        <ele>987.6</ele>
        <time>2012-06-26T17:33:35Z</time>
      </trkpt>
      <trkpt lat="45.65889" lon="2.80482">
        <ele>987.7</ele>
        <time>2012-06-26T17:33:35Z</time>
      </trkpt>
      <trkpt lat="45.6589" lon="2.80482">
        <ele>987.5</ele>
        <time>2012-06-26T17:33:35Z</time>
      </trkpt>
      <trkpt lat="45.65893" lon="2.80481">
        <ele>987.1</ele>
        <time>2012-06-26T17:33:35Z</time>
      </trkpt>
      <trkpt lat="45.65893" lon="2.80481">
        <ele>987.1</ele>
        <time>2012-06-26T17:33:35Z</time>
      </trkpt>
      <trkpt lat="45.65893" lon="2.80481">
        <ele>987.1</ele>
        <time>2012-06-26T17:33:35Z</time>
      </trkpt>
      <trkpt lat="45.65895" lon="2.80481">
        <ele>986.8</ele>
        <time>2012-06-26T17:33:35Z</time>
      </trkpt>
      <trkpt lat="45.659" lon="2.80481">
        <ele>986.2</ele>
        <time>2012-06-26T17:33:35Z</time>
      </trkpt>
      <trkpt lat="45.65906" lon="2.80485">
        <ele>985.6</ele>
        <time>2012-06-26T17:33:35Z</time>
      </trkpt>
      <trkpt lat="45.65906" lon="2.80485">
        <ele>985.6</ele>
        <time>2012-06-26T17:33:35Z</time>
      </trkpt>
      <trkpt lat="45.65909" lon="2.80488">
        <ele>985.2</ele>
        <time>2012-06-26T17:33:35Z</time>
      </trkpt>
      <trkpt lat="45.65912" lon="2.80495">
        <ele>984.7</ele>
        <time>2012-06-26T17:33:35Z</time>
      </trkpt>
      <trkpt lat="45.65914" lon="2.80501">
        <ele>984.5</ele>
        <time>2012-06-26T17:33:35Z</time>
      </trkpt>
      <trkpt lat="45.65915" lon="2.80505">
        <ele>984.4</ele>
        <time>2012-06-26T17:33:35Z</time>
      </trkpt>
      <trkpt lat="45.65916" lon="2.80508">
        <ele>984.4</ele>
        <time>2012-06-26T17:33:35Z</time>
      </trkpt>
      <trkpt lat="45.65915" lon="2.80515">
        <ele>984.8</ele>
        <time>2012-06-26T17:33:35Z</time>
      </trkpt>
      <trkpt lat="45.65914" lon="2.80523">
        <ele>985.3</ele>
        <time>2012-06-26T17:33:35Z</time>
      </trkpt>
      <trkpt lat="45.65911" lon="2.80529">
        <ele>985.6</ele>
        <time>2012-06-26T17:33:35Z</time>
      </trkpt>
      <trkpt lat="45.6591" lon="2.80535">
        <ele>985.1</ele>
        <time>2012-06-26T17:33:35Z</time>
      </trkpt>
      <trkpt lat="45.65906" lon="2.80541">
        <ele>984.8</ele>
        <time>2012-06-26T17:33:35Z</time>
      </trkpt>
      <trkpt lat="45.65902" lon="2.80546">
        <ele>984.9</ele>
        <time>2012-06-26T17:33:35Z</time>
      </trkpt>
      <trkpt lat="45.65898" lon="2.80549">
        <ele>985.2</ele>
        <time>2012-06-26T17:33:35Z</time>
      </trkpt>
      <trkpt lat="45.65893" lon="2.80553">
        <ele>985.7</ele>
        <time>2012-06-26T17:33:35Z</time>
      </trkpt>
      <trkpt lat="45.65887" lon="2.80555">
        <ele>986.2</ele>
        <time>2012-06-26T17:33:35Z</time>
      </trkpt>
      <trkpt lat="45.65882" lon="2.80556">
        <ele>986.7</ele>
        <time>2012-06-26T17:33:35Z</time>
      </trkpt>
      <trkpt lat="45.6588" lon="2.80556">
        <ele>987</ele>
        <time>2012-06-26T17:33:35Z</time>
      </trkpt>
      <trkpt lat="45.65875" lon="2.80556">
        <ele>987.5</ele>
        <time>2012-06-26T17:33:35Z</time>
      </trkpt>
      <trkpt lat="45.65869" lon="2.80556">
        <ele>987.9</ele>
        <time>2012-06-26T17:33:35Z</time>
      </trkpt>
      <trkpt lat="45.65864" lon="2.80557">
        <ele>988.3</ele>
        <time>2012-06-26T17:33:35Z</time>
      </trkpt>
      <trkpt lat="45.65858" lon="2.80559">
        <ele>988.4</ele>
        <time>2012-06-26T17:33:35Z</time>
      </trkpt>
      <trkpt lat="45.65852" lon="2.8056">
        <ele>988.2</ele>
        <time>2012-06-26T17:33:35Z</time>
      </trkpt>
      <trkpt lat="45.65845" lon="2.80563">
        <ele>988</ele>
        <time>2012-06-26T17:33:35Z</time>
      </trkpt>
      <trkpt lat="45.6584" lon="2.80565">
        <ele>987.6</ele>
        <time>2012-06-26T17:33:35Z</time>
      </trkpt>
      <trkpt lat="45.65835" lon="2.80567">
        <ele>987.4</ele>
        <time>2012-06-26T17:33:35Z</time>
      </trkpt>
      <trkpt lat="45.65831" lon="2.80569">
        <ele>987.2</ele>
        <time>2012-06-26T17:33:35Z</time>
      </trkpt>
      <trkpt lat="45.65825" lon="2.80571">
        <ele>987</ele>
        <time>2012-06-26T17:33:35Z</time>
      </trkpt>
      <trkpt lat="45.65819" lon="2.80572">
        <ele>986.9</ele>
        <time>2012-06-26T17:33:35Z</time>
      </trkpt>
      <trkpt lat="45.65813" lon="2.80574">
        <ele>986.5</ele>
        <time>2012-06-26T17:33:35Z</time>
      </trkpt>
      <trkpt lat="45.65807" lon="2.80576">
        <ele>986.1</ele>
        <time>2012-06-26T17:33:35Z</time>
      </trkpt>
      <trkpt lat="45.65801" lon="2.80578">
        <ele>986</ele>
        <time>2012-06-26T17:33:35Z</time>
      </trkpt>
      <trkpt lat="45.65796" lon="2.80579">
        <ele>986.2</ele>
        <time>2012-06-26T17:33:35Z</time>
      </trkpt>
      <trkpt lat="45.6579" lon="2.80583">
        <ele>985.7</ele>
        <time>2012-06-26T17:33:35Z</time>
      </trkpt>
      <trkpt lat="45.65784" lon="2.80586">
        <ele>985.6</ele>
        <time>2012-06-26T17:33:35Z</time>
      </trkpt>
      <trkpt lat="45.65779" lon="2.80587">
        <ele>985.6</ele>
        <time>2012-06-26T17:33:35Z</time>
      </trkpt>
      <trkpt lat="45.65775" lon="2.8059">
        <ele>985</ele>
        <time>2012-06-26T17:33:35Z</time>
      </trkpt>
      <trkpt lat="45.65769" lon="2.80591">
        <ele>984.9</ele>
        <time>2012-06-26T17:33:35Z</time>
      </trkpt>
      <trkpt lat="45.65765" lon="2.80593">
        <ele>984.6</ele>
        <time>2012-06-26T17:33:35Z</time>
      </trkpt>
      <trkpt lat="45.6576" lon="2.80596">
        <ele>984</ele>
        <time>2012-06-26T17:33:35Z</time>
      </trkpt>
      <trkpt lat="45.65754" lon="2.80601">
        <ele>982.8</ele>
        <time>2012-06-26T17:33:35Z</time>
      </trkpt>
      <trkpt lat="45.65748" lon="2.80606">
        <ele>981.7</ele>
        <time>2012-06-26T17:33:35Z</time>
      </trkpt>
      <trkpt lat="45.65742" lon="2.80611">
        <ele>980.7</ele>
        <time>2012-06-26T17:33:35Z</time>
      </trkpt>
      <trkpt lat="45.65736" lon="2.80616">
        <ele>980.1</ele>
        <time>2012-06-26T17:33:35Z</time>
      </trkpt>
      <trkpt lat="45.65731" lon="2.80621">
        <ele>979.5</ele>
        <time>2012-06-26T17:33:35Z</time>
      </trkpt>
      <trkpt lat="45.65726" lon="2.80626">
        <ele>978.8</ele>
        <time>2012-06-26T17:33:35Z</time>
      </trkpt>
      <trkpt lat="45.65722" lon="2.80632">
        <ele>978.2</ele>
        <time>2012-06-26T17:33:35Z</time>
      </trkpt>
      <trkpt lat="45.65717" lon="2.80638">
        <ele>977.5</ele>
        <time>2012-06-26T17:33:35Z</time>
      </trkpt>
      <trkpt lat="45.65712" lon="2.80644">
        <ele>977</ele>
        <time>2012-06-26T17:33:35Z</time>
      </trkpt>
      <trkpt lat="45.65707" lon="2.80649">
        <ele>976.6</ele>
        <time>2012-06-26T17:33:35Z</time>
      </trkpt>
      <trkpt lat="45.65702" lon="2.80655">
        <ele>976.4</ele>
        <time>2012-06-26T17:33:35Z</time>
      </trkpt>
      <trkpt lat="45.65698" lon="2.80661">
        <ele>976.2</ele>
        <time>2012-06-26T17:33:35Z</time>
      </trkpt>
      <trkpt lat="45.65694" lon="2.80667">
        <ele>976</ele>
        <time>2012-06-26T17:33:35Z</time>
      </trkpt>
      <trkpt lat="45.65692" lon="2.80669">
        <ele>975.8</ele>
        <time>2012-06-26T17:33:35Z</time>
      </trkpt>
      <trkpt lat="45.65693" lon="2.80669">
        <ele>975.8</ele>
        <time>2012-06-26T17:33:35Z</time>
      </trkpt>
      <trkpt lat="45.65689" lon="2.80671">
        <ele>975.7</ele>
        <time>2012-06-26T17:33:35Z</time>
      </trkpt>
      <trkpt lat="45.65684" lon="2.80676">
        <ele>975.5</ele>
        <time>2012-06-26T17:33:35Z</time>
      </trkpt>
      <trkpt lat="45.65679" lon="2.80681">
        <ele>975.1</ele>
        <time>2012-06-26T17:33:35Z</time>
      </trkpt>
      <trkpt lat="45.65673" lon="2.80685">
        <ele>974.9</ele>
        <time>2012-06-26T17:33:35Z</time>
      </trkpt>
      <trkpt lat="45.65668" lon="2.80688">
        <ele>974.9</ele>
        <time>2012-06-26T17:33:35Z</time>
      </trkpt>
      <trkpt lat="45.65662" lon="2.80691">
        <ele>975.1</ele>
        <time>2012-06-26T17:33:35Z</time>
      </trkpt>
      <trkpt lat="45.65656" lon="2.80695">
        <ele>975.5</ele>
        <time>2012-06-26T17:33:35Z</time>
      </trkpt>
      <trkpt lat="45.6565" lon="2.80698">
        <ele>975.8</ele>
        <time>2012-06-26T17:33:35Z</time>
      </trkpt>
      <trkpt lat="45.65645" lon="2.80702">
        <ele>976</ele>
        <time>2012-06-26T17:33:35Z</time>
      </trkpt>
      <trkpt lat="45.65639" lon="2.80705">
        <ele>976</ele>
        <time>2012-06-26T17:33:35Z</time>
      </trkpt>
      <trkpt lat="45.65634" lon="2.8071">
        <ele>976</ele>
        <time>2012-06-26T17:33:35Z</time>
      </trkpt>
      <trkpt lat="45.65629" lon="2.80716">
        <ele>975.8</ele>
        <time>2012-06-26T17:33:35Z</time>
      </trkpt>
      <trkpt lat="45.65624" lon="2.80722">
        <ele>975.6</ele>
        <time>2012-06-26T17:33:35Z</time>
      </trkpt>
      <trkpt lat="45.6562" lon="2.80727">
        <ele>975.7</ele>
        <time>2012-06-26T17:33:35Z</time>
      </trkpt>
      <trkpt lat="45.65615" lon="2.80732">
        <ele>975.9</ele>
        <time>2012-06-26T17:33:35Z</time>
      </trkpt>
      <trkpt lat="45.6561" lon="2.80739">
        <ele>975.8</ele>
        <time>2012-06-26T17:33:35Z</time>
      </trkpt>
      <trkpt lat="45.65605" lon="2.80744">
        <ele>976</ele>
        <time>2012-06-26T17:33:35Z</time>
      </trkpt>
      <trkpt lat="45.656" lon="2.8075">
        <ele>976.1</ele>
        <time>2012-06-26T17:33:35Z</time>
      </trkpt>
      <trkpt lat="45.65594" lon="2.80754">
        <ele>976.1</ele>
        <time>2012-06-26T17:33:35Z</time>
      </trkpt>
      <trkpt lat="45.65589" lon="2.80759">
        <ele>976.1</ele>
        <time>2012-06-26T17:33:35Z</time>
      </trkpt>
      <trkpt lat="45.65584" lon="2.80763">
        <ele>976.2</ele>
        <time>2012-06-26T17:33:35Z</time>
      </trkpt>
      <trkpt lat="45.6558" lon="2.80766">
        <ele>975.9</ele>
        <time>2012-06-26T17:33:35Z</time>
      </trkpt>
      <trkpt lat="45.6558" lon="2.80766">
        <ele>975.9</ele>
        <time>2012-06-26T17:33:35Z</time>
      </trkpt>
      <trkpt lat="45.6558" lon="2.80766">
        <ele>975.9</ele>
        <time>2012-06-26T17:33:35Z</time>
      </trkpt>
      <trkpt lat="45.6558" lon="2.80766">
        <ele>975.9</ele>
        <time>2012-06-26T17:33:35Z</time>
      </trkpt>
      <trkpt lat="45.6558" lon="2.80766">
        <ele>975.9</ele>
        <time>2012-06-26T17:33:35Z</time>
      </trkpt>
      <trkpt lat="45.65581" lon="2.80766">
        <ele>975.8</ele>
        <time>2012-06-26T17:33:35Z</time>
      </trkpt>
      <trkpt lat="45.65581" lon="2.80767">
        <ele>975.7</ele>
        <time>2012-06-26T17:33:35Z</time>
      </trkpt>
      <trkpt lat="45.65581" lon="2.80767">
        <ele>975.7</ele>
        <time>2012-06-26T17:33:35Z</time>
      </trkpt>
      <trkpt lat="45.65581" lon="2.80767">
        <ele>975.7</ele>
        <time>2012-06-26T17:33:35Z</time>
      </trkpt>
      <trkpt lat="45.65582" lon="2.80767">
        <ele>975.5</ele>
        <time>2012-06-26T17:33:35Z</time>
      </trkpt>
      <trkpt lat="45.65582" lon="2.80769">
        <ele>975.1</ele>
        <time>2012-06-26T17:33:35Z</time>
      </trkpt>
      <trkpt lat="45.65582" lon="2.80769">
        <ele>975.1</ele>
        <time>2012-06-26T17:33:35Z</time>
      </trkpt>
      <trkpt lat="45.65582" lon="2.80769">
        <ele>975.1</ele>
        <time>2012-06-26T17:33:35Z</time>
      </trkpt>
      <trkpt lat="45.65582" lon="2.80769">
        <ele>975.2</ele>
        <time>2012-06-26T17:33:35Z</time>
      </trkpt>
      <trkpt lat="45.65582" lon="2.80769">
        <ele>975</ele>
        <time>2012-06-26T17:33:35Z</time>
      </trkpt>
      <trkpt lat="45.65583" lon="2.8077">
        <ele>974.8</ele>
        <time>2012-06-26T17:33:35Z</time>
      </trkpt>
      <trkpt lat="45.65583" lon="2.8077">
        <ele>974.9</ele>
        <time>2012-06-26T17:33:35Z</time>
      </trkpt>
      <trkpt lat="45.65582" lon="2.80769">
        <ele>975</ele>
        <time>2012-06-26T17:33:35Z</time>
      </trkpt>
      <trkpt lat="45.65582" lon="2.80769">
        <ele>975.1</ele>
        <time>2012-06-26T17:33:35Z</time>
      </trkpt>
      <trkpt lat="45.65578" lon="2.80771">
        <ele>975.4</ele>
        <time>2012-06-26T17:33:35Z</time>
      </trkpt>
      <trkpt lat="45.65572" lon="2.80774">
        <ele>975.7</ele>
        <time>2012-06-26T17:33:35Z</time>
      </trkpt>
      <trkpt lat="45.65567" lon="2.80776">
        <ele>976.3</ele>
        <time>2012-06-26T17:33:35Z</time>
      </trkpt>
      <trkpt lat="45.65561" lon="2.80778">
        <ele>977</ele>
        <time>2012-06-26T17:33:35Z</time>
      </trkpt>
      <trkpt lat="45.65556" lon="2.80779">
        <ele>977.9</ele>
        <time>2012-06-26T17:33:35Z</time>
      </trkpt>
      <trkpt lat="45.65551" lon="2.80781">
        <ele>978.2</ele>
        <time>2012-06-26T17:33:35Z</time>
      </trkpt>
      <trkpt lat="45.65549" lon="2.80781">
        <ele>978.4</ele>
        <time>2012-06-26T17:33:35Z</time>
      </trkpt>
      <trkpt lat="45.65546" lon="2.80781">
        <ele>978.6</ele>
        <time>2012-06-26T17:33:35Z</time>
      </trkpt>
      <trkpt lat="45.65542" lon="2.80778">
        <ele>979</ele>
        <time>2012-06-26T17:33:35Z</time>
      </trkpt>
      <trkpt lat="45.65542" lon="2.80778">
        <ele>979</ele>
        <time>2012-06-26T17:33:35Z</time>
      </trkpt>
      <trkpt lat="45.65542" lon="2.80778">
        <ele>979</ele>
        <time>2012-06-26T17:33:35Z</time>
      </trkpt>
      <trkpt lat="45.65543" lon="2.80777">
        <ele>978.9</ele>
        <time>2012-06-26T17:33:35Z</time>
      </trkpt>
      <trkpt lat="45.65543" lon="2.80777">
        <ele>979</ele>
        <time>2012-06-26T17:33:35Z</time>
      </trkpt>
      <trkpt lat="45.65541" lon="2.80777">
        <ele>979.2</ele>
        <time>2012-06-26T17:33:35Z</time>
      </trkpt>
      <trkpt lat="45.65536" lon="2.80777">
        <ele>979.4</ele>
        <time>2012-06-26T17:33:35Z</time>
      </trkpt>
      <trkpt lat="45.65532" lon="2.80778">
        <ele>979.7</ele>
        <time>2012-06-26T17:33:35Z</time>
      </trkpt>
      <trkpt lat="45.65528" lon="2.80779">
        <ele>980</ele>
        <time>2012-06-26T17:33:35Z</time>
      </trkpt>
      <trkpt lat="45.65522" lon="2.80781">
        <ele>979.9</ele>
        <time>2012-06-26T17:33:35Z</time>
      </trkpt>
      <trkpt lat="45.65516" lon="2.80782">
        <ele>979.8</ele>
        <time>2012-06-26T17:33:35Z</time>
      </trkpt>
      <trkpt lat="45.6551" lon="2.80782">
        <ele>979.6</ele>
        <time>2012-06-26T17:33:35Z</time>
      </trkpt>
      <trkpt lat="45.65504" lon="2.80783">
        <ele>979.5</ele>
        <time>2012-06-26T17:33:35Z</time>
      </trkpt>
      <trkpt lat="45.65498" lon="2.80785">
        <ele>979.3</ele>
        <time>2012-06-26T17:33:35Z</time>
      </trkpt>
      <trkpt lat="45.65493" lon="2.80787">
        <ele>979</ele>
        <time>2012-06-26T17:33:35Z</time>
      </trkpt>
      <trkpt lat="45.6549" lon="2.80791">
        <ele>978.8</ele>
        <time>2012-06-26T17:33:35Z</time>
      </trkpt>
      <trkpt lat="45.65485" lon="2.80796">
        <ele>978.6</ele>
        <time>2012-06-26T17:33:35Z</time>
      </trkpt>
      <trkpt lat="45.65481" lon="2.80801">
        <ele>978.2</ele>
        <time>2012-06-26T17:33:35Z</time>
      </trkpt>
      <trkpt lat="45.65477" lon="2.80808">
        <ele>977.7</ele>
        <time>2012-06-26T17:33:35Z</time>
      </trkpt>
      <trkpt lat="45.65473" lon="2.80814">
        <ele>977.1</ele>
        <time>2012-06-26T17:33:35Z</time>
      </trkpt>
      <trkpt lat="45.65469" lon="2.8082">
        <ele>976.6</ele>
        <time>2012-06-26T17:33:35Z</time>
      </trkpt>
      <trkpt lat="45.65466" lon="2.80828">
        <ele>975.9</ele>
        <time>2012-06-26T17:33:35Z</time>
      </trkpt>
      <trkpt lat="45.65462" lon="2.80835">
        <ele>975.2</ele>
        <time>2012-06-26T17:33:35Z</time>
      </trkpt>
      <trkpt lat="45.6546" lon="2.80843">
        <ele>974.7</ele>
        <time>2012-06-26T17:33:35Z</time>
      </trkpt>
      <trkpt lat="45.65456" lon="2.80851">
        <ele>974.1</ele>
        <time>2012-06-26T17:33:35Z</time>
      </trkpt>
      <trkpt lat="45.65454" lon="2.80859">
        <ele>973.7</ele>
        <time>2012-06-26T17:33:35Z</time>
      </trkpt>
      <trkpt lat="45.65451" lon="2.80867">
        <ele>972.9</ele>
        <time>2012-06-26T17:33:35Z</time>
      </trkpt>
      <trkpt lat="45.65449" lon="2.80876">
        <ele>972.3</ele>
        <time>2012-06-26T17:33:35Z</time>
      </trkpt>
      <trkpt lat="45.65449" lon="2.80885">
        <ele>971.8</ele>
        <time>2012-06-26T17:33:35Z</time>
      </trkpt>
      <trkpt lat="45.65449" lon="2.80893">
        <ele>971.5</ele>
        <time>2012-06-26T17:33:35Z</time>
      </trkpt>
      <trkpt lat="45.6545" lon="2.80902">
        <ele>971.2</ele>
        <time>2012-06-26T17:33:35Z</time>
      </trkpt>
      <trkpt lat="45.65451" lon="2.8091">
        <ele>971.1</ele>
        <time>2012-06-26T17:33:35Z</time>
      </trkpt>
      <trkpt lat="45.65454" lon="2.80918">
        <ele>970.9</ele>
        <time>2012-06-26T17:33:35Z</time>
      </trkpt>
      <trkpt lat="45.65456" lon="2.80926">
        <ele>970.7</ele>
        <time>2012-06-26T17:33:35Z</time>
      </trkpt>
      <trkpt lat="45.65458" lon="2.80933">
        <ele>970.6</ele>
        <time>2012-06-26T17:33:35Z</time>
      </trkpt>
      <trkpt lat="45.65459" lon="2.80941">
        <ele>970.3</ele>
        <time>2012-06-26T17:33:35Z</time>
      </trkpt>
      <trkpt lat="45.65461" lon="2.80949">
        <ele>970.5</ele>
        <time>2012-06-26T17:33:35Z</time>
      </trkpt>
      <trkpt lat="45.65458" lon="2.80958">
        <ele>971</ele>
        <time>2012-06-26T17:33:35Z</time>
      </trkpt>
      <trkpt lat="45.65457" lon="2.80965">
        <ele>971.4</ele>
        <time>2012-06-26T17:33:35Z</time>
      </trkpt>
      <trkpt lat="45.65454" lon="2.80971">
        <ele>971.6</ele>
        <time>2012-06-26T17:33:35Z</time>
      </trkpt>
      <trkpt lat="45.65452" lon="2.80975">
        <ele>972.2</ele>
        <time>2012-06-26T17:33:35Z</time>
      </trkpt>
      <trkpt lat="45.65448" lon="2.80978">
        <ele>972.5</ele>
        <time>2012-06-26T17:33:35Z</time>
      </trkpt>
      <trkpt lat="45.65443" lon="2.8098">
        <ele>972.7</ele>
        <time>2012-06-26T17:33:35Z</time>
      </trkpt>
      <trkpt lat="45.65438" lon="2.80982">
        <ele>972.8</ele>
        <time>2012-06-26T17:33:35Z</time>
      </trkpt>
      <trkpt lat="45.65432" lon="2.80984">
        <ele>972.8</ele>
        <time>2012-06-26T17:33:35Z</time>
      </trkpt>
      <trkpt lat="45.65427" lon="2.80986">
        <ele>973.1</ele>
        <time>2012-06-26T17:33:35Z</time>
      </trkpt>
      <trkpt lat="45.65423" lon="2.8099">
        <ele>973.6</ele>
        <time>2012-06-26T17:33:35Z</time>
      </trkpt>
      <trkpt lat="45.65422" lon="2.80992">
        <ele>973.9</ele>
        <time>2012-06-26T17:33:35Z</time>
      </trkpt>
      <trkpt lat="45.65423" lon="2.80992">
        <ele>974</ele>
        <time>2012-06-26T17:33:35Z</time>
      </trkpt>
      <trkpt lat="45.65423" lon="2.80995">
        <ele>974.5</ele>
        <time>2012-06-26T17:33:35Z</time>
      </trkpt>
      <trkpt lat="45.65423" lon="2.81002">
        <ele>975.9</ele>
        <time>2012-06-26T17:33:35Z</time>
      </trkpt>
      <trkpt lat="45.65426" lon="2.81007">
        <ele>977.1</ele>
        <time>2012-06-26T17:33:35Z</time>
      </trkpt>
      <trkpt lat="45.65432" lon="2.8101">
        <ele>978.4</ele>
        <time>2012-06-26T17:33:35Z</time>
      </trkpt>
      <trkpt lat="45.65439" lon="2.81012">
        <ele>979.5</ele>
        <time>2012-06-26T17:33:35Z</time>
      </trkpt>
      <trkpt lat="45.65444" lon="2.81012">
        <ele>980</ele>
        <time>2012-06-26T17:33:35Z</time>
      </trkpt>
      <trkpt lat="45.65449" lon="2.81011">
        <ele>980.2</ele>
        <time>2012-06-26T17:33:35Z</time>
      </trkpt>
      <trkpt lat="45.65455" lon="2.81009">
        <ele>980.4</ele>
        <time>2012-06-26T17:33:35Z</time>
      </trkpt>
      <trkpt lat="45.6546" lon="2.81008">
        <ele>980.6</ele>
        <time>2012-06-26T17:33:35Z</time>
      </trkpt>
      <trkpt lat="45.65465" lon="2.81007">
        <ele>980.9</ele>
        <time>2012-06-26T17:33:35Z</time>
      </trkpt>
      <trkpt lat="45.6547" lon="2.81005">
        <ele>981</ele>
        <time>2012-06-26T17:33:35Z</time>
      </trkpt>
      <trkpt lat="45.65475" lon="2.81004">
        <ele>981.3</ele>
        <time>2012-06-26T17:33:35Z</time>
      </trkpt>
      <trkpt lat="45.6548" lon="2.81003">
        <ele>981.5</ele>
        <time>2012-06-26T17:33:35Z</time>
      </trkpt>
      <trkpt lat="45.65485" lon="2.81002">
        <ele>981.9</ele>
        <time>2012-06-26T17:33:35Z</time>
      </trkpt>
      <trkpt lat="45.65491" lon="2.81003">
        <ele>982.6</ele>
        <time>2012-06-26T17:33:35Z</time>
      </trkpt>
      <trkpt lat="45.65496" lon="2.81004">
        <ele>983.3</ele>
        <time>2012-06-26T17:33:35Z</time>
      </trkpt>
      <trkpt lat="45.65501" lon="2.81005">
        <ele>984.1</ele>
        <time>2012-06-26T17:33:35Z</time>
      </trkpt>
      <trkpt lat="45.65506" lon="2.81008">
        <ele>985.1</ele>
        <time>2012-06-26T17:33:35Z</time>
      </trkpt>
      <trkpt lat="45.65511" lon="2.81011">
        <ele>985.9</ele>
        <time>2012-06-26T17:33:35Z</time>
      </trkpt>
      <trkpt lat="45.65515" lon="2.81014">
        <ele>986.6</ele>
        <time>2012-06-26T17:33:35Z</time>
      </trkpt>
      <trkpt lat="45.6552" lon="2.81018">
        <ele>987.2</ele>
        <time>2012-06-26T17:33:35Z</time>
      </trkpt>
      <trkpt lat="45.65524" lon="2.81022">
        <ele>987.6</ele>
        <time>2012-06-26T17:33:35Z</time>
      </trkpt>
      <trkpt lat="45.65529" lon="2.81026">
        <ele>987.9</ele>
        <time>2012-06-26T17:33:35Z</time>
      </trkpt>
      <trkpt lat="45.65532" lon="2.8103">
        <ele>988.4</ele>
        <time>2012-06-26T17:33:35Z</time>
      </trkpt>
      <trkpt lat="45.65535" lon="2.81034">
        <ele>989</ele>
        <time>2012-06-26T17:33:35Z</time>
      </trkpt>
      <trkpt lat="45.6554" lon="2.81039">
        <ele>989.4</ele>
        <time>2012-06-26T17:33:35Z</time>
      </trkpt>
      <trkpt lat="45.65545" lon="2.81043">
        <ele>989.7</ele>
        <time>2012-06-26T17:33:35Z</time>
      </trkpt>
      <trkpt lat="45.65549" lon="2.81045">
        <ele>989.7</ele>
        <time>2012-06-26T17:33:35Z</time>
      </trkpt>
      <trkpt lat="45.6555" lon="2.81046">
        <ele>989.7</ele>
        <time>2012-06-26T17:33:35Z</time>
      </trkpt>
      <trkpt lat="45.6555" lon="2.81046">
        <ele>989.7</ele>
        <time>2012-06-26T17:33:35Z</time>
      </trkpt>
      <trkpt lat="45.65551" lon="2.81048">
        <ele>989.8</ele>
        <time>2012-06-26T17:33:35Z</time>
      </trkpt>
      <trkpt lat="45.65552" lon="2.81051">
        <ele>989.9</ele>
        <time>2012-06-26T17:33:35Z</time>
      </trkpt>
      <trkpt lat="45.65554" lon="2.81055">
        <ele>990.1</ele>
        <time>2012-06-26T17:33:35Z</time>
      </trkpt>
      <trkpt lat="45.65561" lon="2.81059">
        <ele>990.9</ele>
        <time>2012-06-26T17:33:35Z</time>
      </trkpt>
      <trkpt lat="45.65567" lon="2.81062">
        <ele>991.6</ele>
        <time>2012-06-26T17:33:35Z</time>
      </trkpt>
      <trkpt lat="45.65572" lon="2.81067">
        <ele>992.4</ele>
        <time>2012-06-26T17:33:35Z</time>
      </trkpt>
      <trkpt lat="45.65577" lon="2.81071">
        <ele>992.9</ele>
        <time>2012-06-26T17:33:35Z</time>
      </trkpt>
      <trkpt lat="45.65582" lon="2.81071">
        <ele>993.1</ele>
        <time>2012-06-26T17:33:35Z</time>
      </trkpt>
      <trkpt lat="45.65587" lon="2.81072">
        <ele>993.3</ele>
        <time>2012-06-26T17:33:35Z</time>
      </trkpt>
      <trkpt lat="45.65591" lon="2.81071">
        <ele>993.5</ele>
        <time>2012-06-26T17:33:35Z</time>
      </trkpt>
      <trkpt lat="45.65596" lon="2.81069">
        <ele>993.6</ele>
        <time>2012-06-26T17:33:35Z</time>
      </trkpt>
      <trkpt lat="45.65601" lon="2.81068">
        <ele>993.9</ele>
        <time>2012-06-26T17:33:35Z</time>
      </trkpt>
      <trkpt lat="45.65607" lon="2.81069">
        <ele>994.3</ele>
        <time>2012-06-26T17:33:35Z</time>
      </trkpt>
      <trkpt lat="45.65612" lon="2.81072">
        <ele>994.6</ele>
        <time>2012-06-26T17:33:35Z</time>
      </trkpt>
      <trkpt lat="45.65618" lon="2.81075">
        <ele>994.9</ele>
        <time>2012-06-26T17:33:35Z</time>
      </trkpt>
      <trkpt lat="45.65623" lon="2.81079">
        <ele>995.3</ele>
        <time>2012-06-26T17:33:35Z</time>
      </trkpt>
      <trkpt lat="45.65629" lon="2.81083">
        <ele>995.6</ele>
        <time>2012-06-26T17:33:35Z</time>
      </trkpt>
      <trkpt lat="45.65634" lon="2.81087">
        <ele>996.1</ele>
        <time>2012-06-26T17:33:35Z</time>
      </trkpt>
      <trkpt lat="45.65639" lon="2.81091">
        <ele>996.5</ele>
        <time>2012-06-26T17:33:35Z</time>
      </trkpt>
      <trkpt lat="45.65645" lon="2.81094">
        <ele>996.6</ele>
        <time>2012-06-26T17:33:35Z</time>
      </trkpt>
      <trkpt lat="45.65646" lon="2.81095">
        <ele>996.6</ele>
        <time>2012-06-26T17:33:35Z</time>
      </trkpt>
      <trkpt lat="45.65651" lon="2.81099">
        <ele>996.7</ele>
        <time>2012-06-26T17:33:35Z</time>
      </trkpt>
      <trkpt lat="45.65656" lon="2.81103">
        <ele>996.8</ele>
        <time>2012-06-26T17:33:35Z</time>
      </trkpt>
      <trkpt lat="45.65662" lon="2.81108">
        <ele>996.9</ele>
        <time>2012-06-26T17:33:35Z</time>
      </trkpt>
      <trkpt lat="45.65667" lon="2.81112">
        <ele>997.1</ele>
        <time>2012-06-26T17:33:35Z</time>
      </trkpt>
      <trkpt lat="45.65673" lon="2.81117">
        <ele>997.3</ele>
        <time>2012-06-26T17:33:35Z</time>
      </trkpt>
      <trkpt lat="45.65678" lon="2.8112">
        <ele>997.4</ele>
        <time>2012-06-26T17:33:35Z</time>
      </trkpt>
      <trkpt lat="45.65683" lon="2.81123">
        <ele>997.5</ele>
        <time>2012-06-26T17:33:35Z</time>
      </trkpt>
      <trkpt lat="45.65688" lon="2.81126">
        <ele>997.8</ele>
        <time>2012-06-26T17:33:35Z</time>
      </trkpt>
      <trkpt lat="45.65692" lon="2.81129">
        <ele>998</ele>
        <time>2012-06-26T17:33:35Z</time>
      </trkpt>
      <trkpt lat="45.65696" lon="2.81131">
        <ele>998.1</ele>
        <time>2012-06-26T17:33:35Z</time>
      </trkpt>
      <trkpt lat="45.65703" lon="2.81134">
        <ele>998.2</ele>
        <time>2012-06-26T17:33:35Z</time>
      </trkpt>
      <trkpt lat="45.65708" lon="2.81136">
        <ele>998.3</ele>
        <time>2012-06-26T17:33:35Z</time>
      </trkpt>
      <trkpt lat="45.65712" lon="2.81139">
        <ele>998.4</ele>
        <time>2012-06-26T17:33:35Z</time>
      </trkpt>
      <trkpt lat="45.65716" lon="2.81141">
        <ele>998.7</ele>
        <time>2012-06-26T17:33:35Z</time>
      </trkpt>
      <trkpt lat="45.65721" lon="2.81143">
        <ele>998.8</ele>
        <time>2012-06-26T17:33:35Z</time>
      </trkpt>
      <trkpt lat="45.65726" lon="2.81144">
        <ele>999.1</ele>
        <time>2012-06-26T17:33:35Z</time>
      </trkpt>
      <trkpt lat="45.65732" lon="2.81146">
        <ele>999.4</ele>
        <time>2012-06-26T17:33:35Z</time>
      </trkpt>
      <trkpt lat="45.65738" lon="2.81147">
        <ele>999.8</ele>
        <time>2012-06-26T17:33:35Z</time>
      </trkpt>
      <trkpt lat="45.65744" lon="2.81148">
        <ele>1000.2</ele>
        <time>2012-06-26T17:33:35Z</time>
      </trkpt>
      <trkpt lat="45.6575" lon="2.81148">
        <ele>1000.3</ele>
        <time>2012-06-26T17:33:35Z</time>
      </trkpt>
      <trkpt lat="45.65756" lon="2.81148">
        <ele>1000.7</ele>
        <time>2012-06-26T17:33:35Z</time>
      </trkpt>
      <trkpt lat="45.65762" lon="2.81148">
        <ele>1001.1</ele>
        <time>2012-06-26T17:33:35Z</time>
      </trkpt>
      <trkpt lat="45.65768" lon="2.81146">
        <ele>1001.2</ele>
        <time>2012-06-26T17:33:35Z</time>
      </trkpt>
      <trkpt lat="45.65774" lon="2.81145">
        <ele>1001.1</ele>
        <time>2012-06-26T17:33:35Z</time>
      </trkpt>
      <trkpt lat="45.65779" lon="2.81143">
        <ele>1001.1</ele>
        <time>2012-06-26T17:33:35Z</time>
      </trkpt>
      <trkpt lat="45.65785" lon="2.8114">
        <ele>1001.4</ele>
        <time>2012-06-26T17:33:35Z</time>
      </trkpt>
      <trkpt lat="45.65791" lon="2.81137">
        <ele>1001.5</ele>
        <time>2012-06-26T17:33:35Z</time>
      </trkpt>
      <trkpt lat="45.65797" lon="2.81134">
        <ele>1001.6</ele>
        <time>2012-06-26T17:33:35Z</time>
      </trkpt>
      <trkpt lat="45.65802" lon="2.81131">
        <ele>1001.5</ele>
        <time>2012-06-26T17:33:35Z</time>
      </trkpt>
      <trkpt lat="45.65808" lon="2.81127">
        <ele>1001.2</ele>
        <time>2012-06-26T17:33:35Z</time>
      </trkpt>
      <trkpt lat="45.65814" lon="2.81124">
        <ele>1000.9</ele>
        <time>2012-06-26T17:33:35Z</time>
      </trkpt>
      <trkpt lat="45.6582" lon="2.8112">
        <ele>1000.7</ele>
        <time>2012-06-26T17:33:35Z</time>
      </trkpt>
      <trkpt lat="45.65826" lon="2.81116">
        <ele>1000.3</ele>
        <time>2012-06-26T17:33:35Z</time>
      </trkpt>
      <trkpt lat="45.65832" lon="2.81113">
        <ele>1000.2</ele>
        <time>2012-06-26T17:33:35Z</time>
      </trkpt>
      <trkpt lat="45.65837" lon="2.81109">
        <ele>1000.2</ele>
        <time>2012-06-26T17:33:35Z</time>
      </trkpt>
      <trkpt lat="45.65843" lon="2.81107">
        <ele>1000.3</ele>
        <time>2012-06-26T17:33:35Z</time>
      </trkpt>
      <trkpt lat="45.65849" lon="2.81104">
        <ele>1000.4</ele>
        <time>2012-06-26T17:33:35Z</time>
      </trkpt>
      <trkpt lat="45.65855" lon="2.811">
        <ele>1000</ele>
        <time>2012-06-26T17:33:35Z</time>
      </trkpt>
      <trkpt lat="45.6586" lon="2.81097">
        <ele>999.9</ele>
        <time>2012-06-26T17:33:35Z</time>
      </trkpt>
      <trkpt lat="45.65865" lon="2.81095">
        <ele>999.3</ele>
        <time>2012-06-26T17:33:35Z</time>
      </trkpt>
      <trkpt lat="45.65871" lon="2.81093">
        <ele>998.5</ele>
        <time>2012-06-26T17:33:35Z</time>
      </trkpt>
      <trkpt lat="45.65878" lon="2.81092">
        <ele>998.3</ele>
        <time>2012-06-26T17:33:35Z</time>
      </trkpt>
      <trkpt lat="45.65885" lon="2.81092">
        <ele>998.3</ele>
        <time>2012-06-26T17:33:35Z</time>
      </trkpt>
      <trkpt lat="45.65891" lon="2.81092">
        <ele>998.3</ele>
        <time>2012-06-26T17:33:35Z</time>
      </trkpt>
      <trkpt lat="45.65898" lon="2.81093">
        <ele>998.4</ele>
        <time>2012-06-26T17:33:35Z</time>
      </trkpt>
      <trkpt lat="45.65905" lon="2.81093">
        <ele>998.4</ele>
        <time>2012-06-26T17:33:35Z</time>
      </trkpt>
      <trkpt lat="45.65912" lon="2.81093">
        <ele>998.5</ele>
        <time>2012-06-26T17:33:35Z</time>
      </trkpt>
      <trkpt lat="45.65919" lon="2.81095">
        <ele>998.4</ele>
        <time>2012-06-26T17:33:35Z</time>
      </trkpt>
      <trkpt lat="45.65926" lon="2.81095">
        <ele>997.8</ele>
        <time>2012-06-26T17:33:35Z</time>
      </trkpt>
      <trkpt lat="45.65931" lon="2.81097">
        <ele>997.4</ele>
        <time>2012-06-26T17:33:35Z</time>
      </trkpt>
      <trkpt lat="45.65938" lon="2.81099">
        <ele>996.9</ele>
        <time>2012-06-26T17:33:35Z</time>
      </trkpt>
      <trkpt lat="45.65943" lon="2.81101">
        <ele>996.4</ele>
        <time>2012-06-26T17:33:35Z</time>
      </trkpt>
      <trkpt lat="45.65948" lon="2.81103">
        <ele>996</ele>
        <time>2012-06-26T17:33:35Z</time>
      </trkpt>
      <trkpt lat="45.65954" lon="2.81107">
        <ele>995.7</ele>
        <time>2012-06-26T17:33:35Z</time>
      </trkpt>
      <trkpt lat="45.65962" lon="2.81114">
        <ele>995.3</ele>
        <time>2012-06-26T17:33:35Z</time>
      </trkpt>
      <trkpt lat="45.65967" lon="2.81121">
        <ele>995</ele>
        <time>2012-06-26T17:33:35Z</time>
      </trkpt>
      <trkpt lat="45.65974" lon="2.81129">
        <ele>994.5</ele>
        <time>2012-06-26T17:33:35Z</time>
      </trkpt>
      <trkpt lat="45.65979" lon="2.81137">
        <ele>994.2</ele>
        <time>2012-06-26T17:33:35Z</time>
      </trkpt>
      <trkpt lat="45.65983" lon="2.81144">
        <ele>994.2</ele>
        <time>2012-06-26T17:33:35Z</time>
      </trkpt>
      <trkpt lat="45.65985" lon="2.81149">
        <ele>994.3</ele>
        <time>2012-06-26T17:33:35Z</time>
      </trkpt>
      <trkpt lat="45.65988" lon="2.81155">
        <ele>994.4</ele>
        <time>2012-06-26T17:33:35Z</time>
      </trkpt>
      <trkpt lat="45.65994" lon="2.81164">
        <ele>993.9</ele>
        <time>2012-06-26T17:33:35Z</time>
      </trkpt>
      <trkpt lat="45.65999" lon="2.81171">
        <ele>993.6</ele>
        <time>2012-06-26T17:33:35Z</time>
      </trkpt>
      <trkpt lat="45.66003" lon="2.81178">
        <ele>993.5</ele>
        <time>2012-06-26T17:33:35Z</time>
      </trkpt>
      <trkpt lat="45.66006" lon="2.81184">
        <ele>993.6</ele>
        <time>2012-06-26T17:33:35Z</time>
      </trkpt>
      <trkpt lat="45.66011" lon="2.81192">
        <ele>993.3</ele>
        <time>2012-06-26T17:33:35Z</time>
      </trkpt>
      <trkpt lat="45.66014" lon="2.81198">
        <ele>993.5</ele>
        <time>2012-06-26T17:33:35Z</time>
      </trkpt>
      <trkpt lat="45.6602" lon="2.81207">
        <ele>993.2</ele>
        <time>2012-06-26T17:33:35Z</time>
      </trkpt>
      <trkpt lat="45.6603" lon="2.81217">
        <ele>992.2</ele>
        <time>2012-06-26T17:33:35Z</time>
      </trkpt>
      <trkpt lat="45.66033" lon="2.81224">
        <ele>992.4</ele>
        <time>2012-06-26T17:33:35Z</time>
      </trkpt>
      <trkpt lat="45.66034" lon="2.81229">
        <ele>992.9</ele>
        <time>2012-06-26T17:33:35Z</time>
      </trkpt>
      <trkpt lat="45.66036" lon="2.81233">
        <ele>993.3</ele>
        <time>2012-06-26T17:33:35Z</time>
      </trkpt>
      <trkpt lat="45.66039" lon="2.81239">
        <ele>993.6</ele>
        <time>2012-06-26T17:33:35Z</time>
      </trkpt>
      <trkpt lat="45.66046" lon="2.81247">
        <ele>993.4</ele>
        <time>2012-06-26T17:33:35Z</time>
      </trkpt>
      <trkpt lat="45.66047" lon="2.81251">
        <ele>993.6</ele>
        <time>2012-06-26T17:33:35Z</time>
      </trkpt>
      <trkpt lat="45.6605" lon="2.81256">
        <ele>993.8</ele>
        <time>2012-06-26T17:33:35Z</time>
      </trkpt>
      <trkpt lat="45.66055" lon="2.81263">
        <ele>994</ele>
        <time>2012-06-26T17:33:35Z</time>
      </trkpt>
      <trkpt lat="45.6606" lon="2.81269">
        <ele>994.3</ele>
        <time>2012-06-26T17:33:35Z</time>
      </trkpt>
      <trkpt lat="45.66064" lon="2.81275">
        <ele>994.7</ele>
        <time>2012-06-26T17:33:35Z</time>
      </trkpt>
      <trkpt lat="45.66068" lon="2.8128">
        <ele>994.9</ele>
        <time>2012-06-26T17:33:35Z</time>
      </trkpt>
      <trkpt lat="45.66073" lon="2.81285">
        <ele>994.9</ele>
        <time>2012-06-26T17:33:35Z</time>
      </trkpt>
      <trkpt lat="45.66078" lon="2.81291">
        <ele>994.9</ele>
        <time>2012-06-26T17:33:35Z</time>
      </trkpt>
      <trkpt lat="45.66083" lon="2.81296">
        <ele>995</ele>
        <time>2012-06-26T17:33:35Z</time>
      </trkpt>
      <trkpt lat="45.66087" lon="2.81301">
        <ele>994.8</ele>
        <time>2012-06-26T17:33:35Z</time>
      </trkpt>
      <trkpt lat="45.66092" lon="2.81307">
        <ele>994.6</ele>
        <time>2012-06-26T17:33:35Z</time>
      </trkpt>
      <trkpt lat="45.66099" lon="2.81313">
        <ele>994.2</ele>
        <time>2012-06-26T17:33:35Z</time>
      </trkpt>
      <trkpt lat="45.66103" lon="2.81318">
        <ele>994.1</ele>
        <time>2012-06-26T17:33:35Z</time>
      </trkpt>
      <trkpt lat="45.66104" lon="2.81319">
        <ele>994.2</ele>
        <time>2012-06-26T17:33:35Z</time>
      </trkpt>
      <trkpt lat="45.66109" lon="2.81324">
        <ele>994</ele>
        <time>2012-06-26T17:33:35Z</time>
      </trkpt>
      <trkpt lat="45.66119" lon="2.81331">
        <ele>993.9</ele>
        <time>2012-06-26T17:33:35Z</time>
      </trkpt>
      <trkpt lat="45.66125" lon="2.81336">
        <ele>993.8</ele>
        <time>2012-06-26T17:33:35Z</time>
      </trkpt>
      <trkpt lat="45.6613" lon="2.8134">
        <ele>994</ele>
        <time>2012-06-26T17:33:35Z</time>
      </trkpt>
      <trkpt lat="45.66135" lon="2.81344">
        <ele>994</ele>
        <time>2012-06-26T17:33:35Z</time>
      </trkpt>
      <trkpt lat="45.6614" lon="2.81348">
        <ele>994</ele>
        <time>2012-06-26T17:33:35Z</time>
      </trkpt>
      <trkpt lat="45.66144" lon="2.81352">
        <ele>994.1</ele>
        <time>2012-06-26T17:33:35Z</time>
      </trkpt>
      <trkpt lat="45.66147" lon="2.81354">
        <ele>994.1</ele>
        <time>2012-06-26T17:33:35Z</time>
      </trkpt>
      <trkpt lat="45.6615" lon="2.81358">
        <ele>994.1</ele>
        <time>2012-06-26T17:33:35Z</time>
      </trkpt>
      <trkpt lat="45.66156" lon="2.81363">
        <ele>993.7</ele>
        <time>2012-06-26T17:33:35Z</time>
      </trkpt>
      <trkpt lat="45.66162" lon="2.81368">
        <ele>993.2</ele>
        <time>2012-06-26T17:33:35Z</time>
      </trkpt>
      <trkpt lat="45.66167" lon="2.81373">
        <ele>992.4</ele>
        <time>2012-06-26T17:33:35Z</time>
      </trkpt>
      <trkpt lat="45.66169" lon="2.81374">
        <ele>992.1</ele>
        <time>2012-06-26T17:33:35Z</time>
      </trkpt>
      <trkpt lat="45.6617" lon="2.81376">
        <ele>992</ele>
        <time>2012-06-26T17:33:35Z</time>
      </trkpt>
      <trkpt lat="45.66173" lon="2.81377">
        <ele>991.5</ele>
        <time>2012-06-26T17:33:35Z</time>
      </trkpt>
      <trkpt lat="45.66175" lon="2.8138">
        <ele>991.1</ele>
        <time>2012-06-26T17:33:35Z</time>
      </trkpt>
      <trkpt lat="45.66174" lon="2.81385">
        <ele>991.3</ele>
        <time>2012-06-26T17:33:35Z</time>
      </trkpt>
      <trkpt lat="45.66175" lon="2.81389">
        <ele>991.2</ele>
        <time>2012-06-26T17:33:35Z</time>
      </trkpt>
      <trkpt lat="45.66177" lon="2.81392">
        <ele>991</ele>
        <time>2012-06-26T17:33:35Z</time>
      </trkpt>
      <trkpt lat="45.66178" lon="2.81395">
        <ele>991</ele>
        <time>2012-06-26T17:33:35Z</time>
      </trkpt>
      <trkpt lat="45.66178" lon="2.81395">
        <ele>990.9</ele>
        <time>2012-06-26T17:33:35Z</time>
      </trkpt>
      <trkpt lat="45.66178" lon="2.81394">
        <ele>990.9</ele>
        <time>2012-06-26T17:33:35Z</time>
      </trkpt>
      <trkpt lat="45.66179" lon="2.81395">
        <ele>990.7</ele>
        <time>2012-06-26T17:33:35Z</time>
      </trkpt>
      <trkpt lat="45.66186" lon="2.81401">
        <ele>989.2</ele>
        <time>2012-06-26T17:33:35Z</time>
      </trkpt>
      <trkpt lat="45.66187" lon="2.81401">
        <ele>988.9</ele>
        <time>2012-06-26T17:33:35Z</time>
      </trkpt>
      <trkpt lat="45.66187" lon="2.814">
        <ele>988.9</ele>
        <time>2012-06-26T17:33:35Z</time>
      </trkpt>
      <trkpt lat="45.66186" lon="2.81398">
        <ele>989.1</ele>
        <time>2012-06-26T17:33:35Z</time>
      </trkpt>
      <trkpt lat="45.66184" lon="2.81403">
        <ele>989.8</ele>
        <time>2012-06-26T17:33:35Z</time>
      </trkpt>
      <trkpt lat="45.66182" lon="2.81409">
        <ele>990.6</ele>
        <time>2012-06-26T17:33:35Z</time>
      </trkpt>
      <trkpt lat="45.66182" lon="2.81417">
        <ele>991</ele>
        <time>2012-06-26T17:33:35Z</time>
      </trkpt>
      <trkpt lat="45.66182" lon="2.81415">
        <ele>991.1</ele>
        <time>2012-06-26T17:33:35Z</time>
      </trkpt>
      <trkpt lat="45.66181" lon="2.81418">
        <ele>991.3</ele>
        <time>2012-06-26T17:33:35Z</time>
      </trkpt>
      <trkpt lat="45.66179" lon="2.81416">
        <ele>991.9</ele>
        <time>2012-06-26T17:33:35Z</time>
      </trkpt>
      <trkpt lat="45.66178" lon="2.81415">
        <ele>992.3</ele>
        <time>2012-06-26T17:33:35Z</time>
      </trkpt>
      <trkpt lat="45.66178" lon="2.8142">
        <ele>992.5</ele>
        <time>2012-06-26T17:33:35Z</time>
      </trkpt>
      <trkpt lat="45.66177" lon="2.81427">
        <ele>993.3</ele>
        <time>2012-06-26T17:33:35Z</time>
      </trkpt>
      <trkpt lat="45.66181" lon="2.81438">
        <ele>992.5</ele>
        <time>2012-06-26T17:33:35Z</time>
      </trkpt>
      <trkpt lat="45.66184" lon="2.81446">
        <ele>992.3</ele>
        <time>2012-06-26T17:33:35Z</time>
      </trkpt>
      <trkpt lat="45.66188" lon="2.81453">
        <ele>992.1</ele>
        <time>2012-06-26T17:33:35Z</time>
      </trkpt>
      <trkpt lat="45.66191" lon="2.81459">
        <ele>992</ele>
        <time>2012-06-26T17:33:35Z</time>
      </trkpt>
      <trkpt lat="45.66194" lon="2.81463">
        <ele>991.8</ele>
        <time>2012-06-26T17:33:35Z</time>
      </trkpt>
      <trkpt lat="45.66198" lon="2.81467">
        <ele>992.2</ele>
        <time>2012-06-26T17:33:35Z</time>
      </trkpt>
      <trkpt lat="45.66203" lon="2.81468">
        <ele>992.3</ele>
        <time>2012-06-26T17:33:35Z</time>
      </trkpt>
      <trkpt lat="45.66205" lon="2.81468">
        <ele>992.3</ele>
        <time>2012-06-26T17:33:35Z</time>
      </trkpt>
      <trkpt lat="45.6621" lon="2.81463">
        <ele>991.3</ele>
        <time>2012-06-26T17:33:35Z</time>
      </trkpt>
      <trkpt lat="45.66216" lon="2.81459">
        <ele>990.4</ele>
        <time>2012-06-26T17:33:35Z</time>
      </trkpt>
      <trkpt lat="45.6622" lon="2.81454">
        <ele>989.2</ele>
        <time>2012-06-26T17:33:35Z</time>
      </trkpt>
      <trkpt lat="45.66222" lon="2.81453">
        <ele>989</ele>
        <time>2012-06-26T17:33:35Z</time>
      </trkpt>
      <trkpt lat="45.66218" lon="2.81454">
        <ele>989.2</ele>
        <time>2012-06-26T17:33:35Z</time>
      </trkpt>
      <trkpt lat="45.66217" lon="2.81451">
        <ele>988.6</ele>
        <time>2012-06-26T17:33:35Z</time>
      </trkpt>
      <trkpt lat="45.66218" lon="2.81447">
        <ele>987.8</ele>
        <time>2012-06-26T17:33:35Z</time>
      </trkpt>
      <trkpt lat="45.66222" lon="2.81445">
        <ele>987.2</ele>
        <time>2012-06-26T17:33:35Z</time>
      </trkpt>
      <trkpt lat="45.66227" lon="2.81445">
        <ele>988.2</ele>
        <time>2012-06-26T17:33:35Z</time>
      </trkpt>
      <trkpt lat="45.66231" lon="2.81442">
        <ele>988.5</ele>
        <time>2012-06-26T17:33:35Z</time>
      </trkpt>
      <trkpt lat="45.66238" lon="2.8144">
        <ele>989.4</ele>
        <time>2012-06-26T17:33:35Z</time>
      </trkpt>
      <trkpt lat="45.66243" lon="2.81437">
        <ele>989.4</ele>
        <time>2012-06-26T17:33:35Z</time>
      </trkpt>
      <trkpt lat="45.6625" lon="2.81432">
        <ele>989.5</ele>
        <time>2012-06-26T17:33:35Z</time>
      </trkpt>
      <trkpt lat="45.66255" lon="2.81429">
        <ele>989.7</ele>
        <time>2012-06-26T17:33:35Z</time>
      </trkpt>
      <trkpt lat="45.66259" lon="2.81428">
        <ele>990.2</ele>
        <time>2012-06-26T17:33:35Z</time>
      </trkpt>
      <trkpt lat="45.66262" lon="2.81427">
        <ele>990.5</ele>
        <time>2012-06-26T17:33:35Z</time>
      </trkpt>
      <trkpt lat="45.66267" lon="2.81427">
        <ele>991.6</ele>
        <time>2012-06-26T17:33:35Z</time>
      </trkpt>
      <trkpt lat="45.66273" lon="2.81428">
        <ele>992.8</ele>
        <time>2012-06-26T17:33:35Z</time>
      </trkpt>
      <trkpt lat="45.66278" lon="2.81427">
        <ele>993.7</ele>
        <time>2012-06-26T17:33:35Z</time>
      </trkpt>
      <trkpt lat="45.66283" lon="2.81427">
        <ele>994.4</ele>
        <time>2012-06-26T17:33:35Z</time>
      </trkpt>
      <trkpt lat="45.66289" lon="2.81427">
        <ele>995.1</ele>
        <time>2012-06-26T17:33:35Z</time>
      </trkpt>
      <trkpt lat="45.66294" lon="2.81428">
        <ele>995.9</ele>
        <time>2012-06-26T17:33:35Z</time>
      </trkpt>
      <trkpt lat="45.663" lon="2.81425">
        <ele>996.1</ele>
        <time>2012-06-26T17:33:35Z</time>
      </trkpt>
      <trkpt lat="45.66305" lon="2.81422">
        <ele>996.1</ele>
        <time>2012-06-26T17:33:35Z</time>
      </trkpt>
      <trkpt lat="45.6631" lon="2.81418">
        <ele>996.3</ele>
        <time>2012-06-26T17:33:35Z</time>
      </trkpt>
      <trkpt lat="45.66312" lon="2.81418">
        <ele>996.6</ele>
        <time>2012-06-26T17:33:35Z</time>
      </trkpt>
      <trkpt lat="45.66311" lon="2.81417">
        <ele>996.4</ele>
        <time>2012-06-26T17:33:35Z</time>
      </trkpt>
      <trkpt lat="45.66311" lon="2.81417">
        <ele>996.2</ele>
        <time>2012-06-26T17:33:35Z</time>
      </trkpt>
      <trkpt lat="45.66311" lon="2.81417">
        <ele>996.1</ele>
        <time>2012-06-26T17:33:35Z</time>
      </trkpt>
      <trkpt lat="45.6631" lon="2.81417">
        <ele>995.9</ele>
        <time>2012-06-26T17:33:35Z</time>
      </trkpt>
      <trkpt lat="45.66308" lon="2.81416">
        <ele>995.4</ele>
        <time>2012-06-26T17:33:35Z</time>
      </trkpt>
      <trkpt lat="45.66304" lon="2.81414">
        <ele>994.4</ele>
        <time>2012-06-26T17:33:35Z</time>
      </trkpt>
      <trkpt lat="45.66305" lon="2.81413">
        <ele>994.4</ele>
        <time>2012-06-26T17:33:35Z</time>
      </trkpt>
      <trkpt lat="45.66308" lon="2.81416">
        <ele>995.4</ele>
        <time>2012-06-26T17:33:35Z</time>
      </trkpt>
      <trkpt lat="45.66316" lon="2.8142">
        <ele>997.9</ele>
        <time>2012-06-26T17:33:35Z</time>
      </trkpt>
      <trkpt lat="45.66323" lon="2.81419">
        <ele>999.4</ele>
        <time>2012-06-26T17:33:35Z</time>
      </trkpt>
      <trkpt lat="45.66329" lon="2.81417">
        <ele>1000</ele>
        <time>2012-06-26T17:33:35Z</time>
      </trkpt>
      <trkpt lat="45.66334" lon="2.81414">
        <ele>1000.9</ele>
        <time>2012-06-26T17:33:35Z</time>
      </trkpt>
      <trkpt lat="45.66339" lon="2.81411">
        <ele>1002.3</ele>
        <time>2012-06-26T17:33:35Z</time>
      </trkpt>
      <trkpt lat="45.66344" lon="2.81406">
        <ele>1003.2</ele>
        <time>2012-06-26T17:33:35Z</time>
      </trkpt>
      <trkpt lat="45.66346" lon="2.81397">
        <ele>1002.6</ele>
        <time>2012-06-26T17:33:35Z</time>
      </trkpt>
      <trkpt lat="45.66348" lon="2.81389">
        <ele>1002.2</ele>
        <time>2012-06-26T17:33:35Z</time>
      </trkpt>
      <trkpt lat="45.66349" lon="2.81382">
        <ele>1001.5</ele>
        <time>2012-06-26T17:33:35Z</time>
      </trkpt>
      <trkpt lat="45.66354" lon="2.81376">
        <ele>1002.2</ele>
        <time>2012-06-26T17:33:35Z</time>
      </trkpt>
      <trkpt lat="45.66358" lon="2.8137">
        <ele>1002.5</ele>
        <time>2012-06-26T17:33:35Z</time>
      </trkpt>
      <trkpt lat="45.66362" lon="2.81363">
        <ele>1002.5</ele>
        <time>2012-06-26T17:33:35Z</time>
      </trkpt>
      <trkpt lat="45.66366" lon="2.81356">
        <ele>1002.9</ele>
        <time>2012-06-26T17:33:35Z</time>
      </trkpt>
      <trkpt lat="45.6637" lon="2.81349">
        <ele>1003.1</ele>
        <time>2012-06-26T17:33:35Z</time>
      </trkpt>
      <trkpt lat="45.66374" lon="2.81341">
        <ele>1002.9</ele>
        <time>2012-06-26T17:33:35Z</time>
      </trkpt>
      <trkpt lat="45.66377" lon="2.81333">
        <ele>1002.5</ele>
        <time>2012-06-26T17:33:35Z</time>
      </trkpt>
      <trkpt lat="45.66382" lon="2.81329">
        <ele>1003.3</ele>
        <time>2012-06-26T17:33:35Z</time>
      </trkpt>
      <trkpt lat="45.66385" lon="2.81323">
        <ele>1003.4</ele>
        <time>2012-06-26T17:33:35Z</time>
      </trkpt>
      <trkpt lat="45.66388" lon="2.81315">
        <ele>1003</ele>
        <time>2012-06-26T17:33:35Z</time>
      </trkpt>
      <trkpt lat="45.66392" lon="2.81308">
        <ele>1003.1</ele>
        <time>2012-06-26T17:33:35Z</time>
      </trkpt>
      <trkpt lat="45.66396" lon="2.81301">
        <ele>1003.1</ele>
        <time>2012-06-26T17:33:35Z</time>
      </trkpt>
      <trkpt lat="45.66397" lon="2.81292">
        <ele>1002.3</ele>
        <time>2012-06-26T17:33:35Z</time>
      </trkpt>
      <trkpt lat="45.66399" lon="2.81284">
        <ele>1001.7</ele>
        <time>2012-06-26T17:33:35Z</time>
      </trkpt>
      <trkpt lat="45.66405" lon="2.81282">
        <ele>1002.5</ele>
        <time>2012-06-26T17:33:35Z</time>
      </trkpt>
      <trkpt lat="45.66408" lon="2.81274">
        <ele>1001.7</ele>
        <time>2012-06-26T17:33:35Z</time>
      </trkpt>
      <trkpt lat="45.66415" lon="2.8127">
        <ele>1002.3</ele>
        <time>2012-06-26T17:33:35Z</time>
      </trkpt>
      <trkpt lat="45.6642" lon="2.81269">
        <ele>1002.9</ele>
        <time>2012-06-26T17:33:35Z</time>
      </trkpt>
      <trkpt lat="45.66425" lon="2.81267">
        <ele>1003.2</ele>
        <time>2012-06-26T17:33:35Z</time>
      </trkpt>
      <trkpt lat="45.66432" lon="2.81265">
        <ele>1004</ele>
        <time>2012-06-26T17:33:35Z</time>
      </trkpt>
      <trkpt lat="45.66439" lon="2.81262">
        <ele>1004.4</ele>
        <time>2012-06-26T17:33:35Z</time>
      </trkpt>
      <trkpt lat="45.66442" lon="2.81259">
        <ele>1004.4</ele>
        <time>2012-06-26T17:33:35Z</time>
      </trkpt>
      <trkpt lat="45.6645" lon="2.8126">
        <ele>1005.3</ele>
        <time>2012-06-26T17:33:35Z</time>
      </trkpt>
      <trkpt lat="45.66457" lon="2.8126">
        <ele>1006.1</ele>
        <time>2012-06-26T17:33:35Z</time>
      </trkpt>
      <trkpt lat="45.66465" lon="2.81259">
        <ele>1006.8</ele>
        <time>2012-06-26T17:33:35Z</time>
      </trkpt>
      <trkpt lat="45.6647" lon="2.81257">
        <ele>1007</ele>
        <time>2012-06-26T17:33:35Z</time>
      </trkpt>
      <trkpt lat="45.66476" lon="2.81258">
        <ele>1008.1</ele>
        <time>2012-06-26T17:33:35Z</time>
      </trkpt>
      <trkpt lat="45.66482" lon="2.81258">
        <ele>1008.8</ele>
        <time>2012-06-26T17:33:35Z</time>
      </trkpt>
      <trkpt lat="45.66488" lon="2.81256">
        <ele>1009.3</ele>
        <time>2012-06-26T17:33:35Z</time>
      </trkpt>
      <trkpt lat="45.66495" lon="2.81254">
        <ele>1010.1</ele>
        <time>2012-06-26T17:33:35Z</time>
      </trkpt>
      <trkpt lat="45.66501" lon="2.81253">
        <ele>1010.9</ele>
        <time>2012-06-26T17:33:35Z</time>
      </trkpt>
      <trkpt lat="45.66508" lon="2.8125">
        <ele>1012.5</ele>
        <time>2012-06-26T17:33:35Z</time>
      </trkpt>
      <trkpt lat="45.66514" lon="2.81247">
        <ele>1013.4</ele>
        <time>2012-06-26T17:33:35Z</time>
      </trkpt>
      <trkpt lat="45.6652" lon="2.81244">
        <ele>1014.8</ele>
        <time>2012-06-26T17:33:35Z</time>
      </trkpt>
      <trkpt lat="45.66526" lon="2.8124">
        <ele>1015.3</ele>
        <time>2012-06-26T17:33:35Z</time>
      </trkpt>
      <trkpt lat="45.66531" lon="2.81235">
        <ele>1016.1</ele>
        <time>2012-06-26T17:33:35Z</time>
      </trkpt>
      <trkpt lat="45.66535" lon="2.81228">
        <ele>1016</ele>
        <time>2012-06-26T17:33:35Z</time>
      </trkpt>
      <trkpt lat="45.6654" lon="2.81222">
        <ele>1016.2</ele>
        <time>2012-06-26T17:33:35Z</time>
      </trkpt>
      <trkpt lat="45.66545" lon="2.81216">
        <ele>1017</ele>
        <time>2012-06-26T17:33:35Z</time>
      </trkpt>
      <trkpt lat="45.6655" lon="2.81211">
        <ele>1017.7</ele>
        <time>2012-06-26T17:33:35Z</time>
      </trkpt>
      <trkpt lat="45.6655" lon="2.81207">
        <ele>1017</ele>
        <time>2012-06-26T17:33:35Z</time>
      </trkpt>
      <trkpt lat="45.66549" lon="2.81205">
        <ele>1016.4</ele>
        <time>2012-06-26T17:33:35Z</time>
      </trkpt>
      <trkpt lat="45.66551" lon="2.81202">
        <ele>1016.2</ele>
        <time>2012-06-26T17:33:35Z</time>
      </trkpt>
      <trkpt lat="45.66554" lon="2.81197">
        <ele>1016.2</ele>
        <time>2012-06-26T17:33:35Z</time>
      </trkpt>
      <trkpt lat="45.66555" lon="2.81196">
        <ele>1016.3</ele>
        <time>2012-06-26T17:33:35Z</time>
      </trkpt>
      <trkpt lat="45.66555" lon="2.81196">
        <ele>1016.3</ele>
        <time>2012-06-26T17:33:35Z</time>
      </trkpt>
      <trkpt lat="45.66559" lon="2.8119">
        <ele>1016.3</ele>
        <time>2012-06-26T17:33:35Z</time>
      </trkpt>
      <trkpt lat="45.66563" lon="2.81183">
        <ele>1016.2</ele>
        <time>2012-06-26T17:33:35Z</time>
      </trkpt>
      <trkpt lat="45.66567" lon="2.81177">
        <ele>1016.5</ele>
        <time>2012-06-26T17:33:35Z</time>
      </trkpt>
      <trkpt lat="45.66571" lon="2.81171">
        <ele>1016.3</ele>
        <time>2012-06-26T17:33:35Z</time>
      </trkpt>
      <trkpt lat="45.66575" lon="2.81164">
        <ele>1016</ele>
        <time>2012-06-26T17:33:35Z</time>
      </trkpt>
      <trkpt lat="45.66578" lon="2.81157">
        <ele>1015.5</ele>
        <time>2012-06-26T17:33:35Z</time>
      </trkpt>
      <trkpt lat="45.66583" lon="2.81152">
        <ele>1015.8</ele>
        <time>2012-06-26T17:33:35Z</time>
      </trkpt>
      <trkpt lat="45.6659" lon="2.8115">
        <ele>1016.5</ele>
        <time>2012-06-26T17:33:35Z</time>
      </trkpt>
      <trkpt lat="45.66598" lon="2.81149">
        <ele>1017.8</ele>
        <time>2012-06-26T17:33:35Z</time>
      </trkpt>
      <trkpt lat="45.66604" lon="2.81146">
        <ele>1017.9</ele>
        <time>2012-06-26T17:33:35Z</time>
      </trkpt>
      <trkpt lat="45.6661" lon="2.81145">
        <ele>1018.4</ele>
        <time>2012-06-26T17:33:35Z</time>
      </trkpt>
      <trkpt lat="45.66615" lon="2.81143">
        <ele>1018.8</ele>
        <time>2012-06-26T17:33:35Z</time>
      </trkpt>
      <trkpt lat="45.66621" lon="2.8114">
        <ele>1018.5</ele>
        <time>2012-06-26T17:33:35Z</time>
      </trkpt>
      <trkpt lat="45.66627" lon="2.8114">
        <ele>1019</ele>
        <time>2012-06-26T17:33:35Z</time>
      </trkpt>
      <trkpt lat="45.66633" lon="2.8114">
        <ele>1019.6</ele>
        <time>2012-06-26T17:33:35Z</time>
      </trkpt>
      <trkpt lat="45.66638" lon="2.81139">
        <ele>1019.9</ele>
        <time>2012-06-26T17:33:35Z</time>
      </trkpt>
      <trkpt lat="45.66645" lon="2.8114">
        <ele>1020.6</ele>
        <time>2012-06-26T17:33:35Z</time>
      </trkpt>
      <trkpt lat="45.66651" lon="2.81139">
        <ele>1021</ele>
        <time>2012-06-26T17:33:35Z</time>
      </trkpt>
      <trkpt lat="45.66658" lon="2.8114">
        <ele>1021.8</ele>
        <time>2012-06-26T17:33:35Z</time>
      </trkpt>
      <trkpt lat="45.66661" lon="2.81138">
        <ele>1021.4</ele>
        <time>2012-06-26T17:33:35Z</time>
      </trkpt>
      <trkpt lat="45.66668" lon="2.8114">
        <ele>1022.1</ele>
        <time>2012-06-26T17:33:35Z</time>
      </trkpt>
      <trkpt lat="45.66674" lon="2.81141">
        <ele>1021.6</ele>
        <time>2012-06-26T17:33:35Z</time>
      </trkpt>
      <trkpt lat="45.66679" lon="2.81142">
        <ele>1021.6</ele>
        <time>2012-06-26T17:33:35Z</time>
      </trkpt>
      <trkpt lat="45.66684" lon="2.81145">
        <ele>1021.8</ele>
        <time>2012-06-26T17:33:35Z</time>
      </trkpt>
      <trkpt lat="45.66689" lon="2.81147">
        <ele>1022</ele>
        <time>2012-06-26T17:33:35Z</time>
      </trkpt>
      <trkpt lat="45.66695" lon="2.81151">
        <ele>1022.5</ele>
        <time>2012-06-26T17:33:35Z</time>
      </trkpt>
      <trkpt lat="45.66702" lon="2.81155">
        <ele>1023.4</ele>
        <time>2012-06-26T17:33:35Z</time>
      </trkpt>
      <trkpt lat="45.66706" lon="2.8116">
        <ele>1024.8</ele>
        <time>2012-06-26T17:33:35Z</time>
      </trkpt>
      <trkpt lat="45.6671" lon="2.81166">
        <ele>1026.2</ele>
        <time>2012-06-26T17:33:35Z</time>
      </trkpt>
      <trkpt lat="45.66713" lon="2.81171">
        <ele>1026.7</ele>
        <time>2012-06-26T17:33:35Z</time>
      </trkpt>
      <trkpt lat="45.66718" lon="2.81179">
        <ele>1027.1</ele>
        <time>2012-06-26T17:33:35Z</time>
      </trkpt>
      <trkpt lat="45.66721" lon="2.81185">
        <ele>1027.4</ele>
        <time>2012-06-26T17:33:35Z</time>
      </trkpt>
      <trkpt lat="45.66725" lon="2.81192">
        <ele>1027.8</ele>
        <time>2012-06-26T17:33:35Z</time>
      </trkpt>
      <trkpt lat="45.66727" lon="2.812">
        <ele>1028.5</ele>
        <time>2012-06-26T17:33:35Z</time>
      </trkpt>
      <trkpt lat="45.6673" lon="2.81207">
        <ele>1029.1</ele>
        <time>2012-06-26T17:33:35Z</time>
      </trkpt>
      <trkpt lat="45.66733" lon="2.81214">
        <ele>1029.6</ele>
        <time>2012-06-26T17:33:35Z</time>
      </trkpt>
      <trkpt lat="45.66734" lon="2.8122">
        <ele>1029.9</ele>
        <time>2012-06-26T17:33:35Z</time>
      </trkpt>
      <trkpt lat="45.66733" lon="2.8122">
        <ele>1030.1</ele>
        <time>2012-06-26T17:33:35Z</time>
      </trkpt>
      <trkpt lat="45.66735" lon="2.81227">
        <ele>1030.2</ele>
        <time>2012-06-26T17:33:35Z</time>
      </trkpt>
      <trkpt lat="45.66739" lon="2.81234">
        <ele>1030.2</ele>
        <time>2012-06-26T17:33:35Z</time>
      </trkpt>
      <trkpt lat="45.66742" lon="2.81241">
        <ele>1030.3</ele>
        <time>2012-06-26T17:33:35Z</time>
      </trkpt>
      <trkpt lat="45.66744" lon="2.81248">
        <ele>1030.4</ele>
        <time>2012-06-26T17:33:35Z</time>
      </trkpt>
      <trkpt lat="45.66747" lon="2.81257">
        <ele>1030.7</ele>
        <time>2012-06-26T17:33:35Z</time>
      </trkpt>
      <trkpt lat="45.6675" lon="2.81264">
        <ele>1031</ele>
        <time>2012-06-26T17:33:35Z</time>
      </trkpt>
      <trkpt lat="45.66753" lon="2.8127">
        <ele>1031.3</ele>
        <time>2012-06-26T17:33:35Z</time>
      </trkpt>
      <trkpt lat="45.66756" lon="2.81278">
        <ele>1031.5</ele>
        <time>2012-06-26T17:33:35Z</time>
      </trkpt>
      <trkpt lat="45.66759" lon="2.81285">
        <ele>1031.8</ele>
        <time>2012-06-26T17:33:35Z</time>
      </trkpt>
      <trkpt lat="45.66761" lon="2.8129">
        <ele>1032.1</ele>
        <time>2012-06-26T17:33:35Z</time>
      </trkpt>
      <trkpt lat="45.66765" lon="2.81297">
        <ele>1032.4</ele>
        <time>2012-06-26T17:33:35Z</time>
      </trkpt>
      <trkpt lat="45.66767" lon="2.81304">
        <ele>1032.7</ele>
        <time>2012-06-26T17:33:35Z</time>
      </trkpt>
      <trkpt lat="45.6677" lon="2.81312">
        <ele>1032.8</ele>
        <time>2012-06-26T17:33:35Z</time>
      </trkpt>
      <trkpt lat="45.66773" lon="2.81319">
        <ele>1032.8</ele>
        <time>2012-06-26T17:33:35Z</time>
      </trkpt>
      <trkpt lat="45.66776" lon="2.81328">
        <ele>1032.9</ele>
        <time>2012-06-26T17:33:35Z</time>
      </trkpt>
      <trkpt lat="45.66779" lon="2.81334">
        <ele>1032.9</ele>
        <time>2012-06-26T17:33:35Z</time>
      </trkpt>
      <trkpt lat="45.66781" lon="2.8134">
        <ele>1033</ele>
        <time>2012-06-26T17:33:35Z</time>
      </trkpt>
      <trkpt lat="45.66784" lon="2.81348">
        <ele>1033.1</ele>
        <time>2012-06-26T17:33:35Z</time>
      </trkpt>
      <trkpt lat="45.66788" lon="2.81354">
        <ele>1033</ele>
        <time>2012-06-26T17:33:35Z</time>
      </trkpt>
      <trkpt lat="45.66792" lon="2.81362">
        <ele>1033</ele>
        <time>2012-06-26T17:33:35Z</time>
      </trkpt>
      <trkpt lat="45.66795" lon="2.81369">
        <ele>1033</ele>
        <time>2012-06-26T17:33:35Z</time>
      </trkpt>
      <trkpt lat="45.66799" lon="2.81376">
        <ele>1033</ele>
        <time>2012-06-26T17:33:35Z</time>
      </trkpt>
      <trkpt lat="45.668" lon="2.81379">
        <ele>1033</ele>
        <time>2012-06-26T17:33:35Z</time>
      </trkpt>
      <trkpt lat="45.668" lon="2.81379">
        <ele>1033</ele>
        <time>2012-06-26T17:33:35Z</time>
      </trkpt>
      <trkpt lat="45.66805" lon="2.81369">
        <ele>1032.3</ele>
        <time>2012-06-26T17:33:35Z</time>
      </trkpt>
      <trkpt lat="45.66805" lon="2.8137">
        <ele>1032.4</ele>
        <time>2012-06-26T17:33:35Z</time>
      </trkpt>
      <trkpt lat="45.66806" lon="2.81368">
        <ele>1032.2</ele>
        <time>2012-06-26T17:33:35Z</time>
      </trkpt>
      <trkpt lat="45.66806" lon="2.81368">
        <ele>1032.2</ele>
        <time>2012-06-26T17:33:35Z</time>
      </trkpt>
      <trkpt lat="45.66804" lon="2.81368">
        <ele>1032.4</ele>
        <time>2012-06-26T17:33:35Z</time>
      </trkpt>
      <trkpt lat="45.66803" lon="2.81369">
        <ele>1032.5</ele>
        <time>2012-06-26T17:33:35Z</time>
      </trkpt>
      <trkpt lat="45.66801" lon="2.8137">
        <ele>1032.6</ele>
        <time>2012-06-26T17:33:35Z</time>
      </trkpt>
      <trkpt lat="45.66801" lon="2.81372">
        <ele>1032.7</ele>
        <time>2012-06-26T17:33:35Z</time>
      </trkpt>
      <trkpt lat="45.66801" lon="2.81373">
        <ele>1032.7</ele>
        <time>2012-06-26T17:33:35Z</time>
      </trkpt>
      <trkpt lat="45.66801" lon="2.81373">
        <ele>1032.8</ele>
        <time>2012-06-26T17:33:35Z</time>
      </trkpt>
      <trkpt lat="45.668" lon="2.81372">
        <ele>1032.8</ele>
        <time>2012-06-26T17:33:35Z</time>
      </trkpt>
      <trkpt lat="45.668" lon="2.81372">
        <ele>1032.8</ele>
        <time>2012-06-26T17:33:35Z</time>
      </trkpt>
      <trkpt lat="45.66801" lon="2.81375">
        <ele>1032.9</ele>
        <time>2012-06-26T17:33:35Z</time>
      </trkpt>
      <trkpt lat="45.66799" lon="2.8138">
        <ele>1033.1</ele>
        <time>2012-06-26T17:33:35Z</time>
      </trkpt>
      <trkpt lat="45.66795" lon="2.81385">
        <ele>1033.6</ele>
        <time>2012-06-26T17:33:35Z</time>
      </trkpt>
      <trkpt lat="45.66791" lon="2.8139">
        <ele>1034.1</ele>
        <time>2012-06-26T17:33:35Z</time>
      </trkpt>
      <trkpt lat="45.66787" lon="2.81394">
        <ele>1034.6</ele>
        <time>2012-06-26T17:33:35Z</time>
      </trkpt>
      <trkpt lat="45.66783" lon="2.81399">
        <ele>1035.3</ele>
        <time>2012-06-26T17:33:35Z</time>
      </trkpt>
      <trkpt lat="45.66779" lon="2.81404">
        <ele>1036</ele>
        <time>2012-06-26T17:33:35Z</time>
      </trkpt>
      <trkpt lat="45.66776" lon="2.81408">
        <ele>1036.5</ele>
        <time>2012-06-26T17:33:35Z</time>
      </trkpt>
      <trkpt lat="45.66772" lon="2.81413">
        <ele>1037.2</ele>
        <time>2012-06-26T17:33:35Z</time>
      </trkpt>
      <trkpt lat="45.66767" lon="2.81418">
        <ele>1037.8</ele>
        <time>2012-06-26T17:33:35Z</time>
      </trkpt>
      <trkpt lat="45.66763" lon="2.81422">
        <ele>1038.3</ele>
        <time>2012-06-26T17:33:35Z</time>
      </trkpt>
      <trkpt lat="45.66759" lon="2.81427">
        <ele>1038.8</ele>
        <time>2012-06-26T17:33:35Z</time>
      </trkpt>
      <trkpt lat="45.66754" lon="2.81432">
        <ele>1039.2</ele>
        <time>2012-06-26T17:33:35Z</time>
      </trkpt>
      <trkpt lat="45.6675" lon="2.81436">
        <ele>1039.7</ele>
        <time>2012-06-26T17:33:35Z</time>
      </trkpt>
      <trkpt lat="45.66746" lon="2.8144">
        <ele>1040.3</ele>
        <time>2012-06-26T17:33:35Z</time>
      </trkpt>
      <trkpt lat="45.66742" lon="2.81445">
        <ele>1040.9</ele>
        <time>2012-06-26T17:33:35Z</time>
      </trkpt>
      <trkpt lat="45.66738" lon="2.8145">
        <ele>1041.6</ele>
        <time>2012-06-26T17:33:35Z</time>
      </trkpt>
      <trkpt lat="45.66734" lon="2.81454">
        <ele>1042.2</ele>
        <time>2012-06-26T17:33:35Z</time>
      </trkpt>
      <trkpt lat="45.6673" lon="2.81458">
        <ele>1042.8</ele>
        <time>2012-06-26T17:33:35Z</time>
      </trkpt>
      <trkpt lat="45.66726" lon="2.81463">
        <ele>1043.4</ele>
        <time>2012-06-26T17:33:35Z</time>
      </trkpt>
      <trkpt lat="45.66722" lon="2.81468">
        <ele>1043.9</ele>
        <time>2012-06-26T17:33:35Z</time>
      </trkpt>
      <trkpt lat="45.66717" lon="2.81472">
        <ele>1044.5</ele>
        <time>2012-06-26T17:33:35Z</time>
      </trkpt>
      <trkpt lat="45.66713" lon="2.81477">
        <ele>1045.3</ele>
        <time>2012-06-26T17:33:35Z</time>
      </trkpt>
      <trkpt lat="45.66709" lon="2.81481">
        <ele>1046</ele>
        <time>2012-06-26T17:33:35Z</time>
      </trkpt>
      <trkpt lat="45.66705" lon="2.81485">
        <ele>1046.8</ele>
        <time>2012-06-26T17:33:35Z</time>
      </trkpt>
      <trkpt lat="45.66701" lon="2.81489">
        <ele>1047.5</ele>
        <time>2012-06-26T17:33:35Z</time>
      </trkpt>
      <trkpt lat="45.66697" lon="2.81493">
        <ele>1048.2</ele>
        <time>2012-06-26T17:33:35Z</time>
      </trkpt>
      <trkpt lat="45.66692" lon="2.81498">
        <ele>1049</ele>
        <time>2012-06-26T17:33:35Z</time>
      </trkpt>
      <trkpt lat="45.66689" lon="2.81503">
        <ele>1049.5</ele>
        <time>2012-06-26T17:33:35Z</time>
      </trkpt>
      <trkpt lat="45.66686" lon="2.81507">
        <ele>1049.9</ele>
        <time>2012-06-26T17:33:35Z</time>
      </trkpt>
      <trkpt lat="45.66684" lon="2.8151">
        <ele>1050.2</ele>
        <time>2012-06-26T17:33:35Z</time>
      </trkpt>
      <trkpt lat="45.66681" lon="2.81506">
        <ele>1050.3</ele>
        <time>2012-06-26T17:33:35Z</time>
      </trkpt>
      <trkpt lat="45.66678" lon="2.81501">
        <ele>1050.2</ele>
        <time>2012-06-26T17:33:35Z</time>
      </trkpt>
      <trkpt lat="45.66675" lon="2.81494">
        <ele>1050.1</ele>
        <time>2012-06-26T17:33:35Z</time>
      </trkpt>
      <trkpt lat="45.66671" lon="2.81489">
        <ele>1050.2</ele>
        <time>2012-06-26T17:33:35Z</time>
      </trkpt>
      <trkpt lat="45.66669" lon="2.81484">
        <ele>1050.3</ele>
        <time>2012-06-26T17:33:35Z</time>
      </trkpt>
      <trkpt lat="45.66665" lon="2.81479">
        <ele>1050.3</ele>
        <time>2012-06-26T17:33:35Z</time>
      </trkpt>
      <trkpt lat="45.66662" lon="2.81473">
        <ele>1050.3</ele>
        <time>2012-06-26T17:33:35Z</time>
      </trkpt>
      <trkpt lat="45.66659" lon="2.81468">
        <ele>1050.2</ele>
        <time>2012-06-26T17:33:35Z</time>
      </trkpt>
      <trkpt lat="45.66656" lon="2.81465">
        <ele>1050.2</ele>
        <time>2012-06-26T17:33:35Z</time>
      </trkpt>
      <trkpt lat="45.66653" lon="2.8146">
        <ele>1050.1</ele>
        <time>2012-06-26T17:33:35Z</time>
      </trkpt>
      <trkpt lat="45.66649" lon="2.81456">
        <ele>1050.1</ele>
        <time>2012-06-26T17:33:35Z</time>
      </trkpt>
      <trkpt lat="45.66645" lon="2.81451">
        <ele>1050</ele>
        <time>2012-06-26T17:33:35Z</time>
      </trkpt>
      <trkpt lat="45.66641" lon="2.81445">
        <ele>1049.9</ele>
        <time>2012-06-26T17:33:35Z</time>
      </trkpt>
      <trkpt lat="45.66637" lon="2.81441">
        <ele>1049.8</ele>
        <time>2012-06-26T17:33:35Z</time>
      </trkpt>
      <trkpt lat="45.66635" lon="2.81438">
        <ele>1049.8</ele>
        <time>2012-06-26T17:33:35Z</time>
      </trkpt>
      <trkpt lat="45.66631" lon="2.81433">
        <ele>1049.7</ele>
        <time>2012-06-26T17:33:35Z</time>
      </trkpt>
      <trkpt lat="45.66627" lon="2.81427">
        <ele>1049.6</ele>
        <time>2012-06-26T17:33:35Z</time>
      </trkpt>
      <trkpt lat="45.66624" lon="2.81422">
        <ele>1049.5</ele>
        <time>2012-06-26T17:33:35Z</time>
      </trkpt>
      <trkpt lat="45.6662" lon="2.81418">
        <ele>1049.5</ele>
        <time>2012-06-26T17:33:35Z</time>
      </trkpt>
      <trkpt lat="45.66617" lon="2.81414">
        <ele>1049.4</ele>
        <time>2012-06-26T17:33:35Z</time>
      </trkpt>
      <trkpt lat="45.66614" lon="2.8141">
        <ele>1049.4</ele>
        <time>2012-06-26T17:33:35Z</time>
      </trkpt>
      <trkpt lat="45.6661" lon="2.81405">
        <ele>1049.2</ele>
        <time>2012-06-26T17:33:35Z</time>
      </trkpt>
      <trkpt lat="45.66605" lon="2.814">
        <ele>1049</ele>
        <time>2012-06-26T17:33:35Z</time>
      </trkpt>
      <trkpt lat="45.66601" lon="2.81395">
        <ele>1048.8</ele>
        <time>2012-06-26T17:33:35Z</time>
      </trkpt>
      <trkpt lat="45.66597" lon="2.81389">
        <ele>1048.6</ele>
        <time>2012-06-26T17:33:35Z</time>
      </trkpt>
      <trkpt lat="45.66593" lon="2.81384">
        <ele>1048.3</ele>
        <time>2012-06-26T17:33:35Z</time>
      </trkpt>
      <trkpt lat="45.66588" lon="2.81379">
        <ele>1047.9</ele>
        <time>2012-06-26T17:33:35Z</time>
      </trkpt>
      <trkpt lat="45.66584" lon="2.81374">
        <ele>1047.4</ele>
        <time>2012-06-26T17:33:35Z</time>
      </trkpt>
      <trkpt lat="45.6658" lon="2.81369">
        <ele>1046.9</ele>
        <time>2012-06-26T17:33:35Z</time>
      </trkpt>
      <trkpt lat="45.66576" lon="2.81365">
        <ele>1046.4</ele>
        <time>2012-06-26T17:33:35Z</time>
      </trkpt>
      <trkpt lat="45.66572" lon="2.81361">
        <ele>1046</ele>
        <time>2012-06-26T17:33:35Z</time>
      </trkpt>
      <trkpt lat="45.66567" lon="2.81359">
        <ele>1045.8</ele>
        <time>2012-06-26T17:33:35Z</time>
      </trkpt>
      <trkpt lat="45.66562" lon="2.81357">
        <ele>1045.6</ele>
        <time>2012-06-26T17:33:35Z</time>
      </trkpt>
      <trkpt lat="45.66556" lon="2.81355">
        <ele>1045.4</ele>
        <time>2012-06-26T17:33:35Z</time>
      </trkpt>
      <trkpt lat="45.66553" lon="2.8136">
        <ele>1045.4</ele>
        <time>2012-06-26T17:33:35Z</time>
      </trkpt>
      <trkpt lat="45.66551" lon="2.81365">
        <ele>1045.7</ele>
        <time>2012-06-26T17:33:35Z</time>
      </trkpt>
      <trkpt lat="45.6655" lon="2.8137">
        <ele>1045.9</ele>
        <time>2012-06-26T17:33:35Z</time>
      </trkpt>
      <trkpt lat="45.66549" lon="2.8137">
        <ele>1045.8</ele>
        <time>2012-06-26T17:33:35Z</time>
      </trkpt>
      <trkpt lat="45.66548" lon="2.81376">
        <ele>1046.2</ele>
        <time>2012-06-26T17:33:35Z</time>
      </trkpt>
      <trkpt lat="45.66547" lon="2.81382">
        <ele>1046.6</ele>
        <time>2012-06-26T17:33:35Z</time>
      </trkpt>
      <trkpt lat="45.66545" lon="2.81388">
        <ele>1046.9</ele>
        <time>2012-06-26T17:33:35Z</time>
      </trkpt>
      <trkpt lat="45.66543" lon="2.81394">
        <ele>1047.4</ele>
        <time>2012-06-26T17:33:35Z</time>
      </trkpt>
      <trkpt lat="45.66541" lon="2.814">
        <ele>1047.8</ele>
        <time>2012-06-26T17:33:35Z</time>
      </trkpt>
      <trkpt lat="45.6654" lon="2.81406">
        <ele>1048.4</ele>
        <time>2012-06-26T17:33:35Z</time>
      </trkpt>
      <trkpt lat="45.66538" lon="2.81412">
        <ele>1049.1</ele>
        <time>2012-06-26T17:33:35Z</time>
      </trkpt>
      <trkpt lat="45.66536" lon="2.81419">
        <ele>1049.8</ele>
        <time>2012-06-26T17:33:35Z</time>
      </trkpt>
      <trkpt lat="45.66535" lon="2.81425">
        <ele>1050.4</ele>
        <time>2012-06-26T17:33:35Z</time>
      </trkpt>
      <trkpt lat="45.66533" lon="2.81432">
        <ele>1051</ele>
        <time>2012-06-26T17:33:35Z</time>
      </trkpt>
      <trkpt lat="45.66533" lon="2.81432">
        <ele>1051</ele>
        <time>2012-06-26T17:33:35Z</time>
      </trkpt>
      <trkpt lat="45.66533" lon="2.81433">
        <ele>1051.1</ele>
        <time>2012-06-26T17:33:35Z</time>
      </trkpt>
      <trkpt lat="45.66531" lon="2.81439">
        <ele>1051.7</ele>
        <time>2012-06-26T17:33:35Z</time>
      </trkpt>
      <trkpt lat="45.66531" lon="2.8144">
        <ele>1051.7</ele>
        <time>2012-06-26T17:33:35Z</time>
      </trkpt>
      <trkpt lat="45.66531" lon="2.8144">
        <ele>1051.7</ele>
        <time>2012-06-26T17:33:35Z</time>
      </trkpt>
      <trkpt lat="45.66531" lon="2.8144">
        <ele>1051.7</ele>
        <time>2012-06-26T17:33:35Z</time>
      </trkpt>
      <trkpt lat="45.66531" lon="2.8144">
        <ele>1051.7</ele>
        <time>2012-06-26T17:33:35Z</time>
      </trkpt>
      <trkpt lat="45.66531" lon="2.8144">
        <ele>1051.7</ele>
        <time>2012-06-26T17:33:35Z</time>
      </trkpt>
      <trkpt lat="45.66529" lon="2.81445">
        <ele>1052.1</ele>
        <time>2012-06-26T17:33:35Z</time>
      </trkpt>
      <trkpt lat="45.66528" lon="2.81451">
        <ele>1052.9</ele>
        <time>2012-06-26T17:33:35Z</time>
      </trkpt>
      <trkpt lat="45.66526" lon="2.81456">
        <ele>1053.4</ele>
        <time>2012-06-26T17:33:35Z</time>
      </trkpt>
      <trkpt lat="45.66525" lon="2.81462">
        <ele>1053.9</ele>
        <time>2012-06-26T17:33:35Z</time>
      </trkpt>
      <trkpt lat="45.66523" lon="2.81468">
        <ele>1054.5</ele>
        <time>2012-06-26T17:33:35Z</time>
      </trkpt>
      <trkpt lat="45.66522" lon="2.81474">
        <ele>1055.1</ele>
        <time>2012-06-26T17:33:35Z</time>
      </trkpt>
      <trkpt lat="45.6652" lon="2.8148">
        <ele>1055.4</ele>
        <time>2012-06-26T17:33:35Z</time>
      </trkpt>
      <trkpt lat="45.66519" lon="2.81486">
        <ele>1055.7</ele>
        <time>2012-06-26T17:33:35Z</time>
      </trkpt>
      <trkpt lat="45.66517" lon="2.81492">
        <ele>1056.1</ele>
        <time>2012-06-26T17:33:35Z</time>
      </trkpt>
      <trkpt lat="45.66515" lon="2.81498">
        <ele>1056.5</ele>
        <time>2012-06-26T17:33:35Z</time>
      </trkpt>
      <trkpt lat="45.66514" lon="2.81504">
        <ele>1057.1</ele>
        <time>2012-06-26T17:33:35Z</time>
      </trkpt>
      <trkpt lat="45.66513" lon="2.8151">
        <ele>1057.8</ele>
        <time>2012-06-26T17:33:35Z</time>
      </trkpt>
      <trkpt lat="45.66511" lon="2.81515">
        <ele>1058.4</ele>
        <time>2012-06-26T17:33:35Z</time>
      </trkpt>
      <trkpt lat="45.6651" lon="2.81521">
        <ele>1059.1</ele>
        <time>2012-06-26T17:33:35Z</time>
      </trkpt>
      <trkpt lat="45.66508" lon="2.81526">
        <ele>1059.7</ele>
        <time>2012-06-26T17:33:35Z</time>
      </trkpt>
      <trkpt lat="45.66507" lon="2.81532">
        <ele>1060.3</ele>
        <time>2012-06-26T17:33:35Z</time>
      </trkpt>
      <trkpt lat="45.66505" lon="2.81537">
        <ele>1060.8</ele>
        <time>2012-06-26T17:33:35Z</time>
      </trkpt>
      <trkpt lat="45.66504" lon="2.81543">
        <ele>1061.4</ele>
        <time>2012-06-26T17:33:35Z</time>
      </trkpt>
      <trkpt lat="45.66502" lon="2.81548">
        <ele>1062.1</ele>
        <time>2012-06-26T17:33:35Z</time>
      </trkpt>
      <trkpt lat="45.66501" lon="2.81554">
        <ele>1062.8</ele>
        <time>2012-06-26T17:33:35Z</time>
      </trkpt>
      <trkpt lat="45.665" lon="2.81559">
        <ele>1063.5</ele>
        <time>2012-06-26T17:33:35Z</time>
      </trkpt>
      <trkpt lat="45.66499" lon="2.81564">
        <ele>1064</ele>
        <time>2012-06-26T17:33:35Z</time>
      </trkpt>
      <trkpt lat="45.66498" lon="2.8157">
        <ele>1064.7</ele>
        <time>2012-06-26T17:33:35Z</time>
      </trkpt>
      <trkpt lat="45.66496" lon="2.81576">
        <ele>1065.3</ele>
        <time>2012-06-26T17:33:35Z</time>
      </trkpt>
      <trkpt lat="45.66494" lon="2.81582">
        <ele>1066</ele>
        <time>2012-06-26T17:33:35Z</time>
      </trkpt>
      <trkpt lat="45.66493" lon="2.81588">
        <ele>1066.6</ele>
        <time>2012-06-26T17:33:35Z</time>
      </trkpt>
      <trkpt lat="45.66492" lon="2.81595">
        <ele>1067.2</ele>
        <time>2012-06-26T17:33:35Z</time>
      </trkpt>
      <trkpt lat="45.66494" lon="2.816">
        <ele>1068</ele>
        <time>2012-06-26T17:33:35Z</time>
      </trkpt>
      <trkpt lat="45.66496" lon="2.81605">
        <ele>1068.9</ele>
        <time>2012-06-26T17:33:35Z</time>
      </trkpt>
      <trkpt lat="45.66498" lon="2.81611">
        <ele>1069.8</ele>
        <time>2012-06-26T17:33:35Z</time>
      </trkpt>
      <trkpt lat="45.66499" lon="2.81617">
        <ele>1070.7</ele>
        <time>2012-06-26T17:33:35Z</time>
      </trkpt>
      <trkpt lat="45.665" lon="2.8162">
        <ele>1071.3</ele>
        <time>2012-06-26T17:33:35Z</time>
      </trkpt>
      <trkpt lat="45.66502" lon="2.81624">
        <ele>1071.9</ele>
        <time>2012-06-26T17:33:35Z</time>
      </trkpt>
      <trkpt lat="45.665" lon="2.81628">
        <ele>1072.5</ele>
        <time>2012-06-26T17:33:35Z</time>
      </trkpt>
      <trkpt lat="45.66498" lon="2.81631">
        <ele>1072.6</ele>
        <time>2012-06-26T17:33:35Z</time>
      </trkpt>
      <trkpt lat="45.66495" lon="2.81635">
        <ele>1072.9</ele>
        <time>2012-06-26T17:33:35Z</time>
      </trkpt>
      <trkpt lat="45.66492" lon="2.81638">
        <ele>1073</ele>
        <time>2012-06-26T17:33:35Z</time>
      </trkpt>
      <trkpt lat="45.6649" lon="2.81642">
        <ele>1073.4</ele>
        <time>2012-06-26T17:33:35Z</time>
      </trkpt>
      <trkpt lat="45.66488" lon="2.81645">
        <ele>1073.8</ele>
        <time>2012-06-26T17:33:35Z</time>
      </trkpt>
      <trkpt lat="45.66488" lon="2.81646">
        <ele>1074</ele>
        <time>2012-06-26T17:33:35Z</time>
      </trkpt>
      <trkpt lat="45.66488" lon="2.81647">
        <ele>1074.2</ele>
        <time>2012-06-26T17:33:35Z</time>
      </trkpt>
      <trkpt lat="45.66489" lon="2.81647">
        <ele>1074.3</ele>
        <time>2012-06-26T17:33:35Z</time>
      </trkpt>
      <trkpt lat="45.66489" lon="2.81647">
        <ele>1074.3</ele>
        <time>2012-06-26T17:33:35Z</time>
      </trkpt>
      <trkpt lat="45.6649" lon="2.81647">
        <ele>1074.4</ele>
        <time>2012-06-26T17:33:35Z</time>
      </trkpt>
      <trkpt lat="45.66491" lon="2.81647">
        <ele>1074.5</ele>
        <time>2012-06-26T17:33:35Z</time>
      </trkpt>
      <trkpt lat="45.66491" lon="2.81648">
        <ele>1074.7</ele>
        <time>2012-06-26T17:33:35Z</time>
      </trkpt>
      <trkpt lat="45.66488" lon="2.81651">
        <ele>1074.8</ele>
        <time>2012-06-26T17:33:35Z</time>
      </trkpt>
      <trkpt lat="45.66486" lon="2.81656">
        <ele>1075.5</ele>
        <time>2012-06-26T17:33:35Z</time>
      </trkpt>
      <trkpt lat="45.66484" lon="2.81662">
        <ele>1076.5</ele>
        <time>2012-06-26T17:33:35Z</time>
      </trkpt>
      <trkpt lat="45.66484" lon="2.81668">
        <ele>1077.4</ele>
        <time>2012-06-26T17:33:35Z</time>
      </trkpt>
      <trkpt lat="45.66484" lon="2.81675">
        <ele>1078.4</ele>
        <time>2012-06-26T17:33:35Z</time>
      </trkpt>
      <trkpt lat="45.66486" lon="2.81681">
        <ele>1079.3</ele>
        <time>2012-06-26T17:33:35Z</time>
      </trkpt>
      <trkpt lat="45.66486" lon="2.81687">
        <ele>1080.1</ele>
        <time>2012-06-26T17:33:35Z</time>
      </trkpt>
      <trkpt lat="45.66487" lon="2.81695">
        <ele>1081</ele>
        <time>2012-06-26T17:33:35Z</time>
      </trkpt>
      <trkpt lat="45.66487" lon="2.81702">
        <ele>1081.6</ele>
        <time>2012-06-26T17:33:35Z</time>
      </trkpt>
      <trkpt lat="45.66487" lon="2.81709">
        <ele>1082.2</ele>
        <time>2012-06-26T17:33:35Z</time>
      </trkpt>
      <trkpt lat="45.66488" lon="2.81716">
        <ele>1082.9</ele>
        <time>2012-06-26T17:33:35Z</time>
      </trkpt>
      <trkpt lat="45.66489" lon="2.81723">
        <ele>1083.4</ele>
        <time>2012-06-26T17:33:35Z</time>
      </trkpt>
      <trkpt lat="45.6649" lon="2.8173">
        <ele>1083.8</ele>
        <time>2012-06-26T17:33:35Z</time>
      </trkpt>
      <trkpt lat="45.6649" lon="2.81737">
        <ele>1084.1</ele>
        <time>2012-06-26T17:33:35Z</time>
      </trkpt>
      <trkpt lat="45.66491" lon="2.81744">
        <ele>1084.4</ele>
        <time>2012-06-26T17:33:35Z</time>
      </trkpt>
      <trkpt lat="45.66492" lon="2.81751">
        <ele>1084.6</ele>
        <time>2012-06-26T17:33:35Z</time>
      </trkpt>
      <trkpt lat="45.66492" lon="2.81758">
        <ele>1084.6</ele>
        <time>2012-06-26T17:33:35Z</time>
      </trkpt>
      <trkpt lat="45.66491" lon="2.81763">
        <ele>1084.7</ele>
        <time>2012-06-26T17:33:35Z</time>
      </trkpt>
      <trkpt lat="45.66487" lon="2.81763">
        <ele>1084.9</ele>
        <time>2012-06-26T17:33:35Z</time>
      </trkpt>
      <trkpt lat="45.66486" lon="2.81762">
        <ele>1085</ele>
        <time>2012-06-26T17:33:35Z</time>
      </trkpt>
      <trkpt lat="45.66486" lon="2.81762">
        <ele>1085</ele>
        <time>2012-06-26T17:33:35Z</time>
      </trkpt>
      <trkpt lat="45.66486" lon="2.81762">
        <ele>1085</ele>
        <time>2012-06-26T17:33:35Z</time>
      </trkpt>
      <trkpt lat="45.66486" lon="2.81762">
        <ele>1085</ele>
        <time>2012-06-26T17:33:35Z</time>
      </trkpt>
      <trkpt lat="45.66486" lon="2.81762">
        <ele>1085</ele>
        <time>2012-06-26T17:33:35Z</time>
      </trkpt>
      <trkpt lat="45.66486" lon="2.81761">
        <ele>1085</ele>
        <time>2012-06-26T17:33:35Z</time>
      </trkpt>
      <trkpt lat="45.66487" lon="2.81761">
        <ele>1085</ele>
        <time>2012-06-26T17:33:35Z</time>
      </trkpt>
      <trkpt lat="45.66487" lon="2.81761">
        <ele>1085</ele>
        <time>2012-06-26T17:33:35Z</time>
      </trkpt>
      <trkpt lat="45.66487" lon="2.81761">
        <ele>1085</ele>
        <time>2012-06-26T17:33:35Z</time>
      </trkpt>
      <trkpt lat="45.66485" lon="2.81763">
        <ele>1085.1</ele>
        <time>2012-06-26T17:33:35Z</time>
      </trkpt>
      <trkpt lat="45.66479" lon="2.81762">
        <ele>1085.5</ele>
        <time>2012-06-26T17:33:35Z</time>
      </trkpt>
      <trkpt lat="45.66474" lon="2.81763">
        <ele>1085.9</ele>
        <time>2012-06-26T17:33:35Z</time>
      </trkpt>
      <trkpt lat="45.66469" lon="2.81763">
        <ele>1086</ele>
        <time>2012-06-26T17:33:35Z</time>
      </trkpt>
      <trkpt lat="45.66463" lon="2.81762">
        <ele>1086</ele>
        <time>2012-06-26T17:33:35Z</time>
      </trkpt>
      <trkpt lat="45.66457" lon="2.81761">
        <ele>1086</ele>
        <time>2012-06-26T17:33:35Z</time>
      </trkpt>
      <trkpt lat="45.66452" lon="2.81762">
        <ele>1086</ele>
        <time>2012-06-26T17:33:35Z</time>
      </trkpt>
      <trkpt lat="45.66446" lon="2.81761">
        <ele>1086</ele>
        <time>2012-06-26T17:33:35Z</time>
      </trkpt>
      <trkpt lat="45.6644" lon="2.8176">
        <ele>1085.4</ele>
        <time>2012-06-26T17:33:35Z</time>
      </trkpt>
      <trkpt lat="45.66434" lon="2.8176">
        <ele>1084.7</ele>
        <time>2012-06-26T17:33:35Z</time>
      </trkpt>
      <trkpt lat="45.66428" lon="2.8176">
        <ele>1083.9</ele>
        <time>2012-06-26T17:33:35Z</time>
      </trkpt>
      <trkpt lat="45.66423" lon="2.8176">
        <ele>1083.2</ele>
        <time>2012-06-26T17:33:35Z</time>
      </trkpt>
      <trkpt lat="45.66417" lon="2.81759">
        <ele>1082.3</ele>
        <time>2012-06-26T17:33:35Z</time>
      </trkpt>
      <trkpt lat="45.66411" lon="2.81759">
        <ele>1081.5</ele>
        <time>2012-06-26T17:33:35Z</time>
      </trkpt>
      <trkpt lat="45.66405" lon="2.81759">
        <ele>1080.7</ele>
        <time>2012-06-26T17:33:35Z</time>
      </trkpt>
      <trkpt lat="45.66399" lon="2.81758">
        <ele>1079.8</ele>
        <time>2012-06-26T17:33:35Z</time>
      </trkpt>
      <trkpt lat="45.66393" lon="2.81758">
        <ele>1079.1</ele>
        <time>2012-06-26T17:33:35Z</time>
      </trkpt>
      <trkpt lat="45.66388" lon="2.81759">
        <ele>1078.5</ele>
        <time>2012-06-26T17:33:35Z</time>
      </trkpt>
      <trkpt lat="45.66382" lon="2.81761">
        <ele>1077.9</ele>
        <time>2012-06-26T17:33:35Z</time>
      </trkpt>
      <trkpt lat="45.66378" lon="2.81761">
        <ele>1077.1</ele>
        <time>2012-06-26T17:33:35Z</time>
      </trkpt>
      <trkpt lat="45.66377" lon="2.81761">
        <ele>1077</ele>
        <time>2012-06-26T17:33:35Z</time>
      </trkpt>
      <trkpt lat="45.66377" lon="2.81761">
        <ele>1076.9</ele>
        <time>2012-06-26T17:33:35Z</time>
      </trkpt>
      <trkpt lat="45.66376" lon="2.81761">
        <ele>1076.9</ele>
        <time>2012-06-26T17:33:35Z</time>
      </trkpt>
      <trkpt lat="45.66376" lon="2.81761">
        <ele>1076.9</ele>
        <time>2012-06-26T17:33:35Z</time>
      </trkpt>
      <trkpt lat="45.66376" lon="2.81761">
        <ele>1076.9</ele>
        <time>2012-06-26T17:33:35Z</time>
      </trkpt>
      <trkpt lat="45.66376" lon="2.81761">
        <ele>1076.9</ele>
        <time>2012-06-26T17:33:35Z</time>
      </trkpt>
      <trkpt lat="45.66376" lon="2.81761">
        <ele>1077</ele>
        <time>2012-06-26T17:33:35Z</time>
      </trkpt>
      <trkpt lat="45.66376" lon="2.81762">
        <ele>1077</ele>
        <time>2012-06-26T17:33:35Z</time>
      </trkpt>
      <trkpt lat="45.66375" lon="2.81762">
        <ele>1076.9</ele>
        <time>2012-06-26T17:33:35Z</time>
      </trkpt>
      <trkpt lat="45.66375" lon="2.81762">
        <ele>1077</ele>
        <time>2012-06-26T17:33:35Z</time>
      </trkpt>
      <trkpt lat="45.66375" lon="2.81763">
        <ele>1077.1</ele>
        <time>2012-06-26T17:33:35Z</time>
      </trkpt>
      <trkpt lat="45.66375" lon="2.81763">
        <ele>1077.1</ele>
        <time>2012-06-26T17:33:35Z</time>
      </trkpt>
      <trkpt lat="45.66375" lon="2.81763">
        <ele>1077.1</ele>
        <time>2012-06-26T17:33:35Z</time>
      </trkpt>
      <trkpt lat="45.66374" lon="2.81763">
        <ele>1077.1</ele>
        <time>2012-06-26T17:33:35Z</time>
      </trkpt>
      <trkpt lat="45.66374" lon="2.81763">
        <ele>1077</ele>
        <time>2012-06-26T17:33:35Z</time>
      </trkpt>
      <trkpt lat="45.66374" lon="2.81764">
        <ele>1077.1</ele>
        <time>2012-06-26T17:33:35Z</time>
      </trkpt>
      <trkpt lat="45.66374" lon="2.81764">
        <ele>1077.1</ele>
        <time>2012-06-26T17:33:35Z</time>
      </trkpt>
      <trkpt lat="45.66373" lon="2.81764">
        <ele>1076.9</ele>
        <time>2012-06-26T17:33:35Z</time>
      </trkpt>
      <trkpt lat="45.66373" lon="2.81763">
        <ele>1076.8</ele>
        <time>2012-06-26T17:33:35Z</time>
      </trkpt>
      <trkpt lat="45.66373" lon="2.81763">
        <ele>1076.8</ele>
        <time>2012-06-26T17:33:35Z</time>
      </trkpt>
      <trkpt lat="45.66373" lon="2.81763">
        <ele>1076.8</ele>
        <time>2012-06-26T17:33:35Z</time>
      </trkpt>
      <trkpt lat="45.66373" lon="2.81763">
        <ele>1076.8</ele>
        <time>2012-06-26T17:33:35Z</time>
      </trkpt>
      <trkpt lat="45.66373" lon="2.81763">
        <ele>1076.7</ele>
        <time>2012-06-26T17:33:35Z</time>
      </trkpt>
      <trkpt lat="45.66373" lon="2.81763">
        <ele>1076.8</ele>
        <time>2012-06-26T17:33:35Z</time>
      </trkpt>
      <trkpt lat="45.66373" lon="2.81763">
        <ele>1076.8</ele>
        <time>2012-06-26T17:33:35Z</time>
      </trkpt>
      <trkpt lat="45.66374" lon="2.81763">
        <ele>1076.8</ele>
        <time>2012-06-26T17:33:35Z</time>
      </trkpt>
      <trkpt lat="45.66374" lon="2.81763">
        <ele>1076.8</ele>
        <time>2012-06-26T17:33:35Z</time>
      </trkpt>
      <trkpt lat="45.66374" lon="2.81763">
        <ele>1076.8</ele>
        <time>2012-06-26T17:33:35Z</time>
      </trkpt>
      <trkpt lat="45.66373" lon="2.81763">
        <ele>1076.7</ele>
        <time>2012-06-26T17:33:35Z</time>
      </trkpt>
      <trkpt lat="45.66373" lon="2.81763">
        <ele>1076.7</ele>
        <time>2012-06-26T17:33:35Z</time>
      </trkpt>
      <trkpt lat="45.66373" lon="2.81762">
        <ele>1076.7</ele>
        <time>2012-06-26T17:33:35Z</time>
      </trkpt>
      <trkpt lat="45.66373" lon="2.81763">
        <ele>1076.7</ele>
        <time>2012-06-26T17:33:35Z</time>
      </trkpt>
      <trkpt lat="45.66373" lon="2.81763">
        <ele>1076.7</ele>
        <time>2012-06-26T17:33:35Z</time>
      </trkpt>
      <trkpt lat="45.66372" lon="2.81762">
        <ele>1076.5</ele>
        <time>2012-06-26T17:33:35Z</time>
      </trkpt>
      <trkpt lat="45.66372" lon="2.81762">
        <ele>1076.4</ele>
        <time>2012-06-26T17:33:35Z</time>
      </trkpt>
      <trkpt lat="45.66372" lon="2.81762">
        <ele>1076.4</ele>
        <time>2012-06-26T17:33:35Z</time>
      </trkpt>
      <trkpt lat="45.66375" lon="2.81762">
        <ele>1076.9</ele>
        <time>2012-06-26T17:33:35Z</time>
      </trkpt>
      <trkpt lat="45.6638" lon="2.81761">
        <ele>1077.5</ele>
        <time>2012-06-26T17:33:35Z</time>
      </trkpt>
      <trkpt lat="45.66384" lon="2.8176">
        <ele>1078.1</ele>
        <time>2012-06-26T17:33:35Z</time>
      </trkpt>
      <trkpt lat="45.66389" lon="2.81759">
        <ele>1078.6</ele>
        <time>2012-06-26T17:33:35Z</time>
      </trkpt>
      <trkpt lat="45.66394" lon="2.81759">
        <ele>1079.3</ele>
        <time>2012-06-26T17:33:35Z</time>
      </trkpt>
      <trkpt lat="45.664" lon="2.8176">
        <ele>1080.2</ele>
        <time>2012-06-26T17:33:35Z</time>
      </trkpt>
      <trkpt lat="45.66405" lon="2.8176">
        <ele>1080.9</ele>
        <time>2012-06-26T17:33:35Z</time>
      </trkpt>
      <trkpt lat="45.66411" lon="2.8176">
        <ele>1081.7</ele>
        <time>2012-06-26T17:33:35Z</time>
      </trkpt>
      <trkpt lat="45.66417" lon="2.81761">
        <ele>1082.6</ele>
        <time>2012-06-26T17:33:35Z</time>
      </trkpt>
      <trkpt lat="45.66422" lon="2.81761">
        <ele>1083.2</ele>
        <time>2012-06-26T17:33:35Z</time>
      </trkpt>
      <trkpt lat="45.66427" lon="2.81761">
        <ele>1083.9</ele>
        <time>2012-06-26T17:33:35Z</time>
      </trkpt>
      <trkpt lat="45.66432" lon="2.81761">
        <ele>1084.5</ele>
        <time>2012-06-26T17:33:35Z</time>
      </trkpt>
      <trkpt lat="45.66437" lon="2.81761">
        <ele>1085.1</ele>
        <time>2012-06-26T17:33:35Z</time>
      </trkpt>
      <trkpt lat="45.66441" lon="2.81762">
        <ele>1085.6</ele>
        <time>2012-06-26T17:33:35Z</time>
      </trkpt>
      <trkpt lat="45.66441" lon="2.81763">
        <ele>1085.7</ele>
        <time>2012-06-26T17:33:35Z</time>
      </trkpt>
      <trkpt lat="45.66443" lon="2.81762">
        <ele>1085.9</ele>
        <time>2012-06-26T17:33:35Z</time>
      </trkpt>
      <trkpt lat="45.66448" lon="2.81762">
        <ele>1086</ele>
        <time>2012-06-26T17:33:35Z</time>
      </trkpt>
      <trkpt lat="45.66454" lon="2.81762">
        <ele>1086</ele>
        <time>2012-06-26T17:33:35Z</time>
      </trkpt>
      <trkpt lat="45.66459" lon="2.81762">
        <ele>1086</ele>
        <time>2012-06-26T17:33:35Z</time>
      </trkpt>
      <trkpt lat="45.66465" lon="2.81762">
        <ele>1086</ele>
        <time>2012-06-26T17:33:35Z</time>
      </trkpt>
      <trkpt lat="45.66472" lon="2.81763">
        <ele>1086</ele>
        <time>2012-06-26T17:33:35Z</time>
      </trkpt>
      <trkpt lat="45.66478" lon="2.81763">
        <ele>1085.6</ele>
        <time>2012-06-26T17:33:35Z</time>
      </trkpt>
      <trkpt lat="45.66484" lon="2.81764">
        <ele>1085.2</ele>
        <time>2012-06-26T17:33:35Z</time>
      </trkpt>
      <trkpt lat="45.66489" lon="2.81763">
        <ele>1084.8</ele>
        <time>2012-06-26T17:33:35Z</time>
      </trkpt>
      <trkpt lat="45.66491" lon="2.81761">
        <ele>1084.7</ele>
        <time>2012-06-26T17:33:35Z</time>
      </trkpt>
      <trkpt lat="45.66493" lon="2.81755">
        <ele>1084.5</ele>
        <time>2012-06-26T17:33:35Z</time>
      </trkpt>
      <trkpt lat="45.66492" lon="2.81747">
        <ele>1084.4</ele>
        <time>2012-06-26T17:33:35Z</time>
      </trkpt>
      <trkpt lat="45.66492" lon="2.81739">
        <ele>1084.1</ele>
        <time>2012-06-26T17:33:35Z</time>
      </trkpt>
      <trkpt lat="45.66491" lon="2.81731">
        <ele>1083.7</ele>
        <time>2012-06-26T17:33:35Z</time>
      </trkpt>
      <trkpt lat="45.6649" lon="2.81722">
        <ele>1083.4</ele>
        <time>2012-06-26T17:33:35Z</time>
      </trkpt>
      <trkpt lat="45.66489" lon="2.81714">
        <ele>1082.7</ele>
        <time>2012-06-26T17:33:35Z</time>
      </trkpt>
      <trkpt lat="45.66488" lon="2.81705">
        <ele>1082</ele>
        <time>2012-06-26T17:33:35Z</time>
      </trkpt>
      <trkpt lat="45.66488" lon="2.81698">
        <ele>1081.3</ele>
        <time>2012-06-26T17:33:35Z</time>
      </trkpt>
      <trkpt lat="45.66487" lon="2.81691">
        <ele>1080.6</ele>
        <time>2012-06-26T17:33:35Z</time>
      </trkpt>
      <trkpt lat="45.66486" lon="2.81686">
        <ele>1080</ele>
        <time>2012-06-26T17:33:35Z</time>
      </trkpt>
      <trkpt lat="45.66485" lon="2.81681">
        <ele>1079.3</ele>
        <time>2012-06-26T17:33:35Z</time>
      </trkpt>
      <trkpt lat="45.66484" lon="2.81675">
        <ele>1078.4</ele>
        <time>2012-06-26T17:33:35Z</time>
      </trkpt>
      <trkpt lat="45.66484" lon="2.81669">
        <ele>1077.6</ele>
        <time>2012-06-26T17:33:35Z</time>
      </trkpt>
      <trkpt lat="45.66484" lon="2.81667">
        <ele>1077.3</ele>
        <time>2012-06-26T17:33:35Z</time>
      </trkpt>
      <trkpt lat="45.66484" lon="2.81667">
        <ele>1077.2</ele>
        <time>2012-06-26T17:33:35Z</time>
      </trkpt>
      <trkpt lat="45.66484" lon="2.81666">
        <ele>1077.1</ele>
        <time>2012-06-26T17:33:35Z</time>
      </trkpt>
      <trkpt lat="45.66484" lon="2.81659">
        <ele>1076</ele>
        <time>2012-06-26T17:33:35Z</time>
      </trkpt>
      <trkpt lat="45.66486" lon="2.81653">
        <ele>1075.1</ele>
        <time>2012-06-26T17:33:35Z</time>
      </trkpt>
      <trkpt lat="45.66489" lon="2.81648">
        <ele>1074.4</ele>
        <time>2012-06-26T17:33:35Z</time>
      </trkpt>
      <trkpt lat="45.66489" lon="2.81646">
        <ele>1074.2</ele>
        <time>2012-06-26T17:33:35Z</time>
      </trkpt>
      <trkpt lat="45.66489" lon="2.81646">
        <ele>1074.1</ele>
        <time>2012-06-26T17:33:35Z</time>
      </trkpt>
      <trkpt lat="45.6649" lon="2.81646">
        <ele>1074.1</ele>
        <time>2012-06-26T17:33:35Z</time>
      </trkpt>
      <trkpt lat="45.66494" lon="2.81641">
        <ele>1073.7</ele>
        <time>2012-06-26T17:33:35Z</time>
      </trkpt>
      <trkpt lat="45.66497" lon="2.81636">
        <ele>1073.3</ele>
        <time>2012-06-26T17:33:35Z</time>
      </trkpt>
      <trkpt lat="45.66499" lon="2.81631">
        <ele>1072.7</ele>
        <time>2012-06-26T17:33:35Z</time>
      </trkpt>
      <trkpt lat="45.665" lon="2.81625">
        <ele>1072</ele>
        <time>2012-06-26T17:33:35Z</time>
      </trkpt>
      <trkpt lat="45.665" lon="2.81623">
        <ele>1071.6</ele>
        <time>2012-06-26T17:33:35Z</time>
      </trkpt>
      <trkpt lat="45.665" lon="2.81622">
        <ele>1071.5</ele>
        <time>2012-06-26T17:33:35Z</time>
      </trkpt>
      <trkpt lat="45.665" lon="2.81621">
        <ele>1071.4</ele>
        <time>2012-06-26T17:33:35Z</time>
      </trkpt>
      <trkpt lat="45.66499" lon="2.81616">
        <ele>1070.7</ele>
        <time>2012-06-26T17:33:35Z</time>
      </trkpt>
      <trkpt lat="45.66498" lon="2.81611">
        <ele>1069.7</ele>
        <time>2012-06-26T17:33:35Z</time>
      </trkpt>
      <trkpt lat="45.66495" lon="2.81603">
        <ele>1068.5</ele>
        <time>2012-06-26T17:33:35Z</time>
      </trkpt>
      <trkpt lat="45.66492" lon="2.81596">
        <ele>1067.4</ele>
        <time>2012-06-26T17:33:35Z</time>
      </trkpt>
      <trkpt lat="45.66492" lon="2.81588">
        <ele>1066.4</ele>
        <time>2012-06-26T17:33:35Z</time>
      </trkpt>
      <trkpt lat="45.66494" lon="2.8158">
        <ele>1065.6</ele>
        <time>2012-06-26T17:33:35Z</time>
      </trkpt>
      <trkpt lat="45.66496" lon="2.81572">
        <ele>1064.6</ele>
        <time>2012-06-26T17:33:35Z</time>
      </trkpt>
      <trkpt lat="45.66497" lon="2.81563">
        <ele>1063.7</ele>
        <time>2012-06-26T17:33:35Z</time>
      </trkpt>
      <trkpt lat="45.66499" lon="2.81557">
        <ele>1063</ele>
        <time>2012-06-26T17:33:35Z</time>
      </trkpt>
      <trkpt lat="45.66501" lon="2.81549">
        <ele>1062.1</ele>
        <time>2012-06-26T17:33:35Z</time>
      </trkpt>
      <trkpt lat="45.66503" lon="2.81542">
        <ele>1061.2</ele>
        <time>2012-06-26T17:33:35Z</time>
      </trkpt>
      <trkpt lat="45.66505" lon="2.81534">
        <ele>1060.4</ele>
        <time>2012-06-26T17:33:35Z</time>
      </trkpt>
      <trkpt lat="45.66507" lon="2.81527">
        <ele>1059.6</ele>
        <time>2012-06-26T17:33:35Z</time>
      </trkpt>
      <trkpt lat="45.66509" lon="2.81519">
        <ele>1058.7</ele>
        <time>2012-06-26T17:33:35Z</time>
      </trkpt>
      <trkpt lat="45.66511" lon="2.81511">
        <ele>1057.8</ele>
        <time>2012-06-26T17:33:35Z</time>
      </trkpt>
      <trkpt lat="45.66514" lon="2.81503">
        <ele>1056.9</ele>
        <time>2012-06-26T17:33:35Z</time>
      </trkpt>
      <trkpt lat="45.66515" lon="2.81495">
        <ele>1056.2</ele>
        <time>2012-06-26T17:33:35Z</time>
      </trkpt>
      <trkpt lat="45.66517" lon="2.81488">
        <ele>1055.6</ele>
        <time>2012-06-26T17:33:35Z</time>
      </trkpt>
      <trkpt lat="45.66519" lon="2.81479">
        <ele>1055.1</ele>
        <time>2012-06-26T17:33:35Z</time>
      </trkpt>
      <trkpt lat="45.66522" lon="2.81471">
        <ele>1054.7</ele>
        <time>2012-06-26T17:33:35Z</time>
      </trkpt>
      <trkpt lat="45.66524" lon="2.81463">
        <ele>1053.9</ele>
        <time>2012-06-26T17:33:35Z</time>
      </trkpt>
      <trkpt lat="45.66526" lon="2.81455">
        <ele>1053.2</ele>
        <time>2012-06-26T17:33:35Z</time>
      </trkpt>
      <trkpt lat="45.66529" lon="2.81447">
        <ele>1052.4</ele>
        <time>2012-06-26T17:33:35Z</time>
      </trkpt>
      <trkpt lat="45.66531" lon="2.81439">
        <ele>1051.6</ele>
        <time>2012-06-26T17:33:35Z</time>
      </trkpt>
      <trkpt lat="45.66533" lon="2.8143">
        <ele>1050.9</ele>
        <time>2012-06-26T17:33:35Z</time>
      </trkpt>
      <trkpt lat="45.66536" lon="2.81422">
        <ele>1050.2</ele>
        <time>2012-06-26T17:33:35Z</time>
      </trkpt>
      <trkpt lat="45.66537" lon="2.81416">
        <ele>1049.6</ele>
        <time>2012-06-26T17:33:35Z</time>
      </trkpt>
      <trkpt lat="45.66538" lon="2.81412">
        <ele>1049.1</ele>
        <time>2012-06-26T17:33:35Z</time>
      </trkpt>
      <trkpt lat="45.66541" lon="2.81405">
        <ele>1048.4</ele>
        <time>2012-06-26T17:33:35Z</time>
      </trkpt>
      <trkpt lat="45.66543" lon="2.81397">
        <ele>1047.7</ele>
        <time>2012-06-26T17:33:35Z</time>
      </trkpt>
      <trkpt lat="45.66545" lon="2.81389">
        <ele>1047.1</ele>
        <time>2012-06-26T17:33:35Z</time>
      </trkpt>
      <trkpt lat="45.66548" lon="2.81381">
        <ele>1046.7</ele>
        <time>2012-06-26T17:33:35Z</time>
      </trkpt>
      <trkpt lat="45.66549" lon="2.81374">
        <ele>1046.3</ele>
        <time>2012-06-26T17:33:35Z</time>
      </trkpt>
      <trkpt lat="45.66552" lon="2.81367">
        <ele>1045.9</ele>
        <time>2012-06-26T17:33:35Z</time>
      </trkpt>
      <trkpt lat="45.66554" lon="2.8136">
        <ele>1045.5</ele>
        <time>2012-06-26T17:33:35Z</time>
      </trkpt>
      <trkpt lat="45.66553" lon="2.8136">
        <ele>1045.5</ele>
        <time>2012-06-26T17:33:35Z</time>
      </trkpt>
      <trkpt lat="45.66553" lon="2.81361">
        <ele>1045.5</ele>
        <time>2012-06-26T17:33:35Z</time>
      </trkpt>
      <trkpt lat="45.66553" lon="2.81361">
        <ele>1045.5</ele>
        <time>2012-06-26T17:33:35Z</time>
      </trkpt>
      <trkpt lat="45.66553" lon="2.81361">
        <ele>1045.5</ele>
        <time>2012-06-26T17:33:35Z</time>
      </trkpt>
      <trkpt lat="45.66553" lon="2.81361">
        <ele>1045.5</ele>
        <time>2012-06-26T17:33:35Z</time>
      </trkpt>
      <trkpt lat="45.66553" lon="2.81361">
        <ele>1045.5</ele>
        <time>2012-06-26T17:33:35Z</time>
      </trkpt>
      <trkpt lat="45.66553" lon="2.8136">
        <ele>1045.5</ele>
        <time>2012-06-26T17:33:35Z</time>
      </trkpt>
      <trkpt lat="45.66553" lon="2.81361">
        <ele>1045.6</ele>
        <time>2012-06-26T17:33:35Z</time>
      </trkpt>
      <trkpt lat="45.66554" lon="2.81361">
        <ele>1045.7</ele>
        <time>2012-06-26T17:33:35Z</time>
      </trkpt>
      <trkpt lat="45.66554" lon="2.81361">
        <ele>1045.8</ele>
        <time>2012-06-26T17:33:35Z</time>
      </trkpt>
      <trkpt lat="45.66554" lon="2.81361">
        <ele>1045.8</ele>
        <time>2012-06-26T17:33:35Z</time>
      </trkpt>
      <trkpt lat="45.66555" lon="2.81358">
        <ele>1045.7</ele>
        <time>2012-06-26T17:33:35Z</time>
      </trkpt>
      <trkpt lat="45.66558" lon="2.81356">
        <ele>1045.4</ele>
        <time>2012-06-26T17:33:35Z</time>
      </trkpt>
      <trkpt lat="45.66562" lon="2.81356">
        <ele>1045.5</ele>
        <time>2012-06-26T17:33:35Z</time>
      </trkpt>
      <trkpt lat="45.66567" lon="2.81357">
        <ele>1045.6</ele>
        <time>2012-06-26T17:33:35Z</time>
      </trkpt>
      <trkpt lat="45.66571" lon="2.81358">
        <ele>1045.8</ele>
        <time>2012-06-26T17:33:35Z</time>
      </trkpt>
      <trkpt lat="45.66574" lon="2.81361">
        <ele>1046</ele>
        <time>2012-06-26T17:33:35Z</time>
      </trkpt>
      <trkpt lat="45.66577" lon="2.81365">
        <ele>1046.4</ele>
        <time>2012-06-26T17:33:35Z</time>
      </trkpt>
      <trkpt lat="45.6658" lon="2.81368">
        <ele>1046.8</ele>
        <time>2012-06-26T17:33:35Z</time>
      </trkpt>
      <trkpt lat="45.66584" lon="2.81373">
        <ele>1047.2</ele>
        <time>2012-06-26T17:33:35Z</time>
      </trkpt>
      <trkpt lat="45.66587" lon="2.81376">
        <ele>1047.6</ele>
        <time>2012-06-26T17:33:35Z</time>
      </trkpt>
      <trkpt lat="45.66591" lon="2.8138">
        <ele>1048</ele>
        <time>2012-06-26T17:33:35Z</time>
      </trkpt>
      <trkpt lat="45.66595" lon="2.81384">
        <ele>1048.2</ele>
        <time>2012-06-26T17:33:35Z</time>
      </trkpt>
      <trkpt lat="45.66598" lon="2.81389">
        <ele>1048.4</ele>
        <time>2012-06-26T17:33:35Z</time>
      </trkpt>
      <trkpt lat="45.66602" lon="2.81393">
        <ele>1048.6</ele>
        <time>2012-06-26T17:33:35Z</time>
      </trkpt>
      <trkpt lat="45.66606" lon="2.81398">
        <ele>1048.8</ele>
        <time>2012-06-26T17:33:35Z</time>
      </trkpt>
      <trkpt lat="45.6661" lon="2.81402">
        <ele>1049</ele>
        <time>2012-06-26T17:33:35Z</time>
      </trkpt>
      <trkpt lat="45.66614" lon="2.81407">
        <ele>1049.1</ele>
        <time>2012-06-26T17:33:35Z</time>
      </trkpt>
      <trkpt lat="45.66618" lon="2.81412">
        <ele>1049.2</ele>
        <time>2012-06-26T17:33:35Z</time>
      </trkpt>
      <trkpt lat="45.66622" lon="2.81416">
        <ele>1049.2</ele>
        <time>2012-06-26T17:33:35Z</time>
      </trkpt>
      <trkpt lat="45.66626" lon="2.81421">
        <ele>1049.3</ele>
        <time>2012-06-26T17:33:35Z</time>
      </trkpt>
      <trkpt lat="45.66629" lon="2.81426">
        <ele>1049.4</ele>
        <time>2012-06-26T17:33:35Z</time>
      </trkpt>
      <trkpt lat="45.66633" lon="2.81431">
        <ele>1049.5</ele>
        <time>2012-06-26T17:33:35Z</time>
      </trkpt>
      <trkpt lat="45.66637" lon="2.81437">
        <ele>1049.6</ele>
        <time>2012-06-26T17:33:35Z</time>
      </trkpt>
      <trkpt lat="45.66641" lon="2.81443">
        <ele>1049.7</ele>
        <time>2012-06-26T17:33:35Z</time>
      </trkpt>
      <trkpt lat="45.66644" lon="2.81448">
        <ele>1049.8</ele>
        <time>2012-06-26T17:33:35Z</time>
      </trkpt>
      <trkpt lat="45.66648" lon="2.81453">
        <ele>1049.9</ele>
        <time>2012-06-26T17:33:35Z</time>
      </trkpt>
      <trkpt lat="45.66652" lon="2.81457">
        <ele>1050</ele>
        <time>2012-06-26T17:33:35Z</time>
      </trkpt>
      <trkpt lat="45.66656" lon="2.81462">
        <ele>1050.1</ele>
        <time>2012-06-26T17:33:35Z</time>
      </trkpt>
      <trkpt lat="45.6666" lon="2.81467">
        <ele>1050.1</ele>
        <time>2012-06-26T17:33:35Z</time>
      </trkpt>
      <trkpt lat="45.66664" lon="2.81473">
        <ele>1050.2</ele>
        <time>2012-06-26T17:33:35Z</time>
      </trkpt>
      <trkpt lat="45.66668" lon="2.81478">
        <ele>1050.1</ele>
        <time>2012-06-26T17:33:35Z</time>
      </trkpt>
      <trkpt lat="45.66671" lon="2.81484">
        <ele>1050</ele>
        <time>2012-06-26T17:33:35Z</time>
      </trkpt>
      <trkpt lat="45.66675" lon="2.81489">
        <ele>1049.9</ele>
        <time>2012-06-26T17:33:35Z</time>
      </trkpt>
      <trkpt lat="45.66678" lon="2.81495">
        <ele>1049.9</ele>
        <time>2012-06-26T17:33:35Z</time>
      </trkpt>
      <trkpt lat="45.66682" lon="2.815">
        <ele>1049.9</ele>
        <time>2012-06-26T17:33:35Z</time>
      </trkpt>
      <trkpt lat="45.66685" lon="2.81504">
        <ele>1049.9</ele>
        <time>2012-06-26T17:33:35Z</time>
      </trkpt>
      <trkpt lat="45.66687" lon="2.815">
        <ele>1049.6</ele>
        <time>2012-06-26T17:33:35Z</time>
      </trkpt>
      <trkpt lat="45.6669" lon="2.81495">
        <ele>1049</ele>
        <time>2012-06-26T17:33:35Z</time>
      </trkpt>
      <trkpt lat="45.66694" lon="2.81491">
        <ele>1048.4</ele>
        <time>2012-06-26T17:33:35Z</time>
      </trkpt>
      <trkpt lat="45.66696" lon="2.81489">
        <ele>1048.1</ele>
        <time>2012-06-26T17:33:35Z</time>
      </trkpt>
      <trkpt lat="45.66696" lon="2.8149">
        <ele>1048.1</ele>
        <time>2012-06-26T17:33:35Z</time>
      </trkpt>
      <trkpt lat="45.66696" lon="2.8149">
        <ele>1048.1</ele>
        <time>2012-06-26T17:33:35Z</time>
      </trkpt>
      <trkpt lat="45.66697" lon="2.81491">
        <ele>1048.1</ele>
        <time>2012-06-26T17:33:35Z</time>
      </trkpt>
      <trkpt lat="45.66697" lon="2.81491">
        <ele>1048.1</ele>
        <time>2012-06-26T17:33:35Z</time>
      </trkpt>
      <trkpt lat="45.66697" lon="2.81491">
        <ele>1048.1</ele>
        <time>2012-06-26T17:33:35Z</time>
      </trkpt>
      <trkpt lat="45.66699" lon="2.81489">
        <ele>1047.8</ele>
        <time>2012-06-26T17:33:35Z</time>
      </trkpt>
      <trkpt lat="45.66703" lon="2.81484">
        <ele>1046.9</ele>
        <time>2012-06-26T17:33:35Z</time>
      </trkpt>
      <trkpt lat="45.66708" lon="2.81479">
        <ele>1046</ele>
        <time>2012-06-26T17:33:35Z</time>
      </trkpt>
      <trkpt lat="45.66714" lon="2.81474">
        <ele>1045</ele>
        <time>2012-06-26T17:33:35Z</time>
      </trkpt>
      <trkpt lat="45.66718" lon="2.81468">
        <ele>1044.3</ele>
        <time>2012-06-26T17:33:35Z</time>
      </trkpt>
      <trkpt lat="45.66723" lon="2.81463">
        <ele>1043.6</ele>
        <time>2012-06-26T17:33:35Z</time>
      </trkpt>
      <trkpt lat="45.66727" lon="2.81458">
        <ele>1043</ele>
        <time>2012-06-26T17:33:35Z</time>
      </trkpt>
      <trkpt lat="45.66732" lon="2.81453">
        <ele>1042.4</ele>
        <time>2012-06-26T17:33:35Z</time>
      </trkpt>
      <trkpt lat="45.66736" lon="2.81448">
        <ele>1041.7</ele>
        <time>2012-06-26T17:33:35Z</time>
      </trkpt>
      <trkpt lat="45.66741" lon="2.81443">
        <ele>1041</ele>
        <time>2012-06-26T17:33:35Z</time>
      </trkpt>
      <trkpt lat="45.66745" lon="2.81438">
        <ele>1040.3</ele>
        <time>2012-06-26T17:33:35Z</time>
      </trkpt>
      <trkpt lat="45.66749" lon="2.81432">
        <ele>1039.6</ele>
        <time>2012-06-26T17:33:35Z</time>
      </trkpt>
      <trkpt lat="45.66754" lon="2.81427">
        <ele>1039.1</ele>
        <time>2012-06-26T17:33:35Z</time>
      </trkpt>
      <trkpt lat="45.66759" lon="2.81422">
        <ele>1038.6</ele>
        <time>2012-06-26T17:33:35Z</time>
      </trkpt>
      <trkpt lat="45.66764" lon="2.81417">
        <ele>1038</ele>
        <time>2012-06-26T17:33:35Z</time>
      </trkpt>
      <trkpt lat="45.66769" lon="2.81412">
        <ele>1037.4</ele>
        <time>2012-06-26T17:33:35Z</time>
      </trkpt>
      <trkpt lat="45.66773" lon="2.81407">
        <ele>1036.7</ele>
        <time>2012-06-26T17:33:35Z</time>
      </trkpt>
      <trkpt lat="45.66778" lon="2.81402">
        <ele>1035.9</ele>
        <time>2012-06-26T17:33:35Z</time>
      </trkpt>
      <trkpt lat="45.66782" lon="2.81396">
        <ele>1035.1</ele>
        <time>2012-06-26T17:33:35Z</time>
      </trkpt>
      <trkpt lat="45.66787" lon="2.81391">
        <ele>1034.4</ele>
        <time>2012-06-26T17:33:35Z</time>
      </trkpt>
      <trkpt lat="45.66792" lon="2.81386">
        <ele>1033.8</ele>
        <time>2012-06-26T17:33:35Z</time>
      </trkpt>
      <trkpt lat="45.66798" lon="2.81381">
        <ele>1033.3</ele>
        <time>2012-06-26T17:33:35Z</time>
      </trkpt>
      <trkpt lat="45.66802" lon="2.81382">
        <ele>1033</ele>
        <time>2012-06-26T17:33:35Z</time>
      </trkpt>
      <trkpt lat="45.66804" lon="2.81386">
        <ele>1033</ele>
        <time>2012-06-26T17:33:35Z</time>
      </trkpt>
      <trkpt lat="45.66806" lon="2.81388">
        <ele>1033</ele>
        <time>2012-06-26T17:33:35Z</time>
      </trkpt>
      <trkpt lat="45.66809" lon="2.81394">
        <ele>1032.9</ele>
        <time>2012-06-26T17:33:35Z</time>
      </trkpt>
      <trkpt lat="45.66812" lon="2.81401">
        <ele>1032.8</ele>
        <time>2012-06-26T17:33:35Z</time>
      </trkpt>
      <trkpt lat="45.66816" lon="2.81408">
        <ele>1032.7</ele>
        <time>2012-06-26T17:33:35Z</time>
      </trkpt>
      <trkpt lat="45.66819" lon="2.81415">
        <ele>1032.5</ele>
        <time>2012-06-26T17:33:35Z</time>
      </trkpt>
      <trkpt lat="45.66823" lon="2.81422">
        <ele>1032.3</ele>
        <time>2012-06-26T17:33:35Z</time>
      </trkpt>
      <trkpt lat="45.66826" lon="2.81429">
        <ele>1032.2</ele>
        <time>2012-06-26T17:33:35Z</time>
      </trkpt>
      <trkpt lat="45.6683" lon="2.81437">
        <ele>1032.1</ele>
        <time>2012-06-26T17:33:35Z</time>
      </trkpt>
      <trkpt lat="45.66834" lon="2.81444">
        <ele>1031.9</ele>
        <time>2012-06-26T17:33:35Z</time>
      </trkpt>
      <trkpt lat="45.66837" lon="2.81451">
        <ele>1031.8</ele>
        <time>2012-06-26T17:33:35Z</time>
      </trkpt>
      <trkpt lat="45.66841" lon="2.81458">
        <ele>1031.7</ele>
        <time>2012-06-26T17:33:35Z</time>
      </trkpt>
      <trkpt lat="45.66844" lon="2.81465">
        <ele>1031.5</ele>
        <time>2012-06-26T17:33:35Z</time>
      </trkpt>
      <trkpt lat="45.66848" lon="2.81471">
        <ele>1031.4</ele>
        <time>2012-06-26T17:33:35Z</time>
      </trkpt>
      <trkpt lat="45.66851" lon="2.81478">
        <ele>1031.4</ele>
        <time>2012-06-26T17:33:35Z</time>
      </trkpt>
      <trkpt lat="45.66854" lon="2.81484">
        <ele>1031.6</ele>
        <time>2012-06-26T17:33:35Z</time>
      </trkpt>
      <trkpt lat="45.66857" lon="2.81492">
        <ele>1031.8</ele>
        <time>2012-06-26T17:33:35Z</time>
      </trkpt>
      <trkpt lat="45.66861" lon="2.815">
        <ele>1032</ele>
        <time>2012-06-26T17:33:35Z</time>
      </trkpt>
      <trkpt lat="45.66864" lon="2.81506">
        <ele>1031.9</ele>
        <time>2012-06-26T17:33:35Z</time>
      </trkpt>
      <trkpt lat="45.66868" lon="2.81512">
        <ele>1031.6</ele>
        <time>2012-06-26T17:33:35Z</time>
      </trkpt>
      <trkpt lat="45.66871" lon="2.8152">
        <ele>1031.6</ele>
        <time>2012-06-26T17:33:35Z</time>
      </trkpt>
      <trkpt lat="45.66873" lon="2.81528">
        <ele>1031.7</ele>
        <time>2012-06-26T17:33:35Z</time>
      </trkpt>
      <trkpt lat="45.66877" lon="2.81536">
        <ele>1031.6</ele>
        <time>2012-06-26T17:33:35Z</time>
      </trkpt>
      <trkpt lat="45.6688" lon="2.81544">
        <ele>1031.6</ele>
        <time>2012-06-26T17:33:35Z</time>
      </trkpt>
      <trkpt lat="45.66883" lon="2.81553">
        <ele>1031.5</ele>
        <time>2012-06-26T17:33:35Z</time>
      </trkpt>
      <trkpt lat="45.66886" lon="2.81561">
        <ele>1031.5</ele>
        <time>2012-06-26T17:33:35Z</time>
      </trkpt>
      <trkpt lat="45.66889" lon="2.8157">
        <ele>1031.5</ele>
        <time>2012-06-26T17:33:35Z</time>
      </trkpt>
      <trkpt lat="45.66891" lon="2.81578">
        <ele>1031.5</ele>
        <time>2012-06-26T17:33:35Z</time>
      </trkpt>
      <trkpt lat="45.66894" lon="2.81586">
        <ele>1031.6</ele>
        <time>2012-06-26T17:33:35Z</time>
      </trkpt>
      <trkpt lat="45.66895" lon="2.81595">
        <ele>1031.7</ele>
        <time>2012-06-26T17:33:35Z</time>
      </trkpt>
      <trkpt lat="45.66897" lon="2.81603">
        <ele>1031.8</ele>
        <time>2012-06-26T17:33:35Z</time>
      </trkpt>
      <trkpt lat="45.66898" lon="2.81611">
        <ele>1032</ele>
        <time>2012-06-26T17:33:35Z</time>
      </trkpt>
      <trkpt lat="45.669" lon="2.8162">
        <ele>1032.3</ele>
        <time>2012-06-26T17:33:35Z</time>
      </trkpt>
      <trkpt lat="45.66901" lon="2.81628">
        <ele>1032.6</ele>
        <time>2012-06-26T17:33:35Z</time>
      </trkpt>
      <trkpt lat="45.66902" lon="2.81637">
        <ele>1032.9</ele>
        <time>2012-06-26T17:33:35Z</time>
      </trkpt>
      <trkpt lat="45.66904" lon="2.81645">
        <ele>1033</ele>
        <time>2012-06-26T17:33:35Z</time>
      </trkpt>
      <trkpt lat="45.66907" lon="2.81653">
        <ele>1032.9</ele>
        <time>2012-06-26T17:33:35Z</time>
      </trkpt>
      <trkpt lat="45.6691" lon="2.8166">
        <ele>1032.7</ele>
        <time>2012-06-26T17:33:35Z</time>
      </trkpt>
      <trkpt lat="45.66915" lon="2.81664">
        <ele>1032.1</ele>
        <time>2012-06-26T17:33:35Z</time>
      </trkpt>
      <trkpt lat="45.66922" lon="2.81663">
        <ele>1031.6</ele>
        <time>2012-06-26T17:33:35Z</time>
      </trkpt>
      <trkpt lat="45.66929" lon="2.81662">
        <ele>1031.1</ele>
        <time>2012-06-26T17:33:35Z</time>
      </trkpt>
      <trkpt lat="45.66936" lon="2.81661">
        <ele>1030.5</ele>
        <time>2012-06-26T17:33:35Z</time>
      </trkpt>
      <trkpt lat="45.66942" lon="2.81659">
        <ele>1030</ele>
        <time>2012-06-26T17:33:35Z</time>
      </trkpt>
      <trkpt lat="45.66948" lon="2.81658">
        <ele>1029.4</ele>
        <time>2012-06-26T17:33:35Z</time>
      </trkpt>
      <trkpt lat="45.66955" lon="2.81657">
        <ele>1028.9</ele>
        <time>2012-06-26T17:33:35Z</time>
      </trkpt>
      <trkpt lat="45.66961" lon="2.81656">
        <ele>1028.4</ele>
        <time>2012-06-26T17:33:35Z</time>
      </trkpt>
      <trkpt lat="45.66968" lon="2.81655">
        <ele>1027.9</ele>
        <time>2012-06-26T17:33:35Z</time>
      </trkpt>
      <trkpt lat="45.66974" lon="2.81653">
        <ele>1027.4</ele>
        <time>2012-06-26T17:33:35Z</time>
      </trkpt>
      <trkpt lat="45.6698" lon="2.81652">
        <ele>1027</ele>
        <time>2012-06-26T17:33:35Z</time>
      </trkpt>
      <trkpt lat="45.66986" lon="2.81651">
        <ele>1026.7</ele>
        <time>2012-06-26T17:33:35Z</time>
      </trkpt>
      <trkpt lat="45.66992" lon="2.8165">
        <ele>1026.3</ele>
        <time>2012-06-26T17:33:35Z</time>
      </trkpt>
      <trkpt lat="45.66998" lon="2.81649">
        <ele>1025.8</ele>
        <time>2012-06-26T17:33:35Z</time>
      </trkpt>
      <trkpt lat="45.67005" lon="2.81648">
        <ele>1025.4</ele>
        <time>2012-06-26T17:33:35Z</time>
      </trkpt>
      <trkpt lat="45.67011" lon="2.81647">
        <ele>1025.1</ele>
        <time>2012-06-26T17:33:35Z</time>
      </trkpt>
      <trkpt lat="45.67018" lon="2.81645">
        <ele>1024.7</ele>
        <time>2012-06-26T17:33:35Z</time>
      </trkpt>
      <trkpt lat="45.67024" lon="2.81644">
        <ele>1024.4</ele>
        <time>2012-06-26T17:33:35Z</time>
      </trkpt>
      <trkpt lat="45.6703" lon="2.81643">
        <ele>1024.1</ele>
        <time>2012-06-26T17:33:35Z</time>
      </trkpt>
      <trkpt lat="45.67036" lon="2.81642">
        <ele>1023.8</ele>
        <time>2012-06-26T17:33:35Z</time>
      </trkpt>
      <trkpt lat="45.67042" lon="2.81641">
        <ele>1023.6</ele>
        <time>2012-06-26T17:33:35Z</time>
      </trkpt>
      <trkpt lat="45.67048" lon="2.81639">
        <ele>1023.3</ele>
        <time>2012-06-26T17:33:35Z</time>
      </trkpt>
      <trkpt lat="45.67054" lon="2.81638">
        <ele>1023</ele>
        <time>2012-06-26T17:33:35Z</time>
      </trkpt>
      <trkpt lat="45.6706" lon="2.8164">
        <ele>1022.9</ele>
        <time>2012-06-26T17:33:35Z</time>
      </trkpt>
      <trkpt lat="45.67065" lon="2.81645">
        <ele>1022.9</ele>
        <time>2012-06-26T17:33:35Z</time>
      </trkpt>
      <trkpt lat="45.6707" lon="2.8165">
        <ele>1023.1</ele>
        <time>2012-06-26T17:33:35Z</time>
      </trkpt>
      <trkpt lat="45.67076" lon="2.81654">
        <ele>1023.2</ele>
        <time>2012-06-26T17:33:35Z</time>
      </trkpt>
      <trkpt lat="45.67081" lon="2.81659">
        <ele>1023.5</ele>
        <time>2012-06-26T17:33:35Z</time>
      </trkpt>
      <trkpt lat="45.67086" lon="2.81665">
        <ele>1023.8</ele>
        <time>2012-06-26T17:33:35Z</time>
      </trkpt>
      <trkpt lat="45.67091" lon="2.8167">
        <ele>1023.8</ele>
        <time>2012-06-26T17:33:35Z</time>
      </trkpt>
      <trkpt lat="45.67097" lon="2.81673">
        <ele>1023.6</ele>
        <time>2012-06-26T17:33:35Z</time>
      </trkpt>
      <trkpt lat="45.67102" lon="2.81672">
        <ele>1023.5</ele>
        <time>2012-06-26T17:33:35Z</time>
      </trkpt>
      <trkpt lat="45.67107" lon="2.8167">
        <ele>1023.2</ele>
        <time>2012-06-26T17:33:35Z</time>
      </trkpt>
      <trkpt lat="45.67113" lon="2.81667">
        <ele>1023</ele>
        <time>2012-06-26T17:33:35Z</time>
      </trkpt>
      <trkpt lat="45.67118" lon="2.81665">
        <ele>1022.7</ele>
        <time>2012-06-26T17:33:35Z</time>
      </trkpt>
      <trkpt lat="45.67124" lon="2.81664">
        <ele>1022.4</ele>
        <time>2012-06-26T17:33:35Z</time>
      </trkpt>
      <trkpt lat="45.67131" lon="2.81662">
        <ele>1022.1</ele>
        <time>2012-06-26T17:33:35Z</time>
      </trkpt>
      <trkpt lat="45.67135" lon="2.81662">
        <ele>1022</ele>
        <time>2012-06-26T17:33:35Z</time>
      </trkpt>
      <trkpt lat="45.67141" lon="2.81659">
        <ele>1021.5</ele>
        <time>2012-06-26T17:33:35Z</time>
      </trkpt>
      <trkpt lat="45.67146" lon="2.81657">
        <ele>1021</ele>
        <time>2012-06-26T17:33:35Z</time>
      </trkpt>
      <trkpt lat="45.67151" lon="2.81655">
        <ele>1020.4</ele>
        <time>2012-06-26T17:33:35Z</time>
      </trkpt>
      <trkpt lat="45.67157" lon="2.81652">
        <ele>1019.8</ele>
        <time>2012-06-26T17:33:35Z</time>
      </trkpt>
      <trkpt lat="45.67163" lon="2.81649">
        <ele>1019.3</ele>
        <time>2012-06-26T17:33:35Z</time>
      </trkpt>
      <trkpt lat="45.67169" lon="2.81647">
        <ele>1018.7</ele>
        <time>2012-06-26T17:33:35Z</time>
      </trkpt>
      <trkpt lat="45.67176" lon="2.81645">
        <ele>1018</ele>
        <time>2012-06-26T17:33:35Z</time>
      </trkpt>
      <trkpt lat="45.67182" lon="2.81643">
        <ele>1017.3</ele>
        <time>2012-06-26T17:33:35Z</time>
      </trkpt>
      <trkpt lat="45.67187" lon="2.81641">
        <ele>1016.8</ele>
        <time>2012-06-26T17:33:35Z</time>
      </trkpt>
      <trkpt lat="45.67193" lon="2.81637">
        <ele>1016.2</ele>
        <time>2012-06-26T17:33:35Z</time>
      </trkpt>
      <trkpt lat="45.672" lon="2.81634">
        <ele>1015.3</ele>
        <time>2012-06-26T17:33:35Z</time>
      </trkpt>
      <trkpt lat="45.67205" lon="2.81631">
        <ele>1014.6</ele>
        <time>2012-06-26T17:33:35Z</time>
      </trkpt>
      <trkpt lat="45.6721" lon="2.81628">
        <ele>1013.9</ele>
        <time>2012-06-26T17:33:35Z</time>
      </trkpt>
      <trkpt lat="45.67216" lon="2.81624">
        <ele>1013.3</ele>
        <time>2012-06-26T17:33:35Z</time>
      </trkpt>
      <trkpt lat="45.67222" lon="2.81622">
        <ele>1012.6</ele>
        <time>2012-06-26T17:33:35Z</time>
      </trkpt>
      <trkpt lat="45.67228" lon="2.81619">
        <ele>1012.5</ele>
        <time>2012-06-26T17:33:35Z</time>
      </trkpt>
      <trkpt lat="45.67233" lon="2.81616">
        <ele>1012.4</ele>
        <time>2012-06-26T17:33:35Z</time>
      </trkpt>
      <trkpt lat="45.6724" lon="2.81613">
        <ele>1012.3</ele>
        <time>2012-06-26T17:33:35Z</time>
      </trkpt>
      <trkpt lat="45.67245" lon="2.81611">
        <ele>1012.2</ele>
        <time>2012-06-26T17:33:35Z</time>
      </trkpt>
      <trkpt lat="45.6725" lon="2.81609">
        <ele>1012</ele>
        <time>2012-06-26T17:33:35Z</time>
      </trkpt>
      <trkpt lat="45.67256" lon="2.81607">
        <ele>1011.8</ele>
        <time>2012-06-26T17:33:35Z</time>
      </trkpt>
      <trkpt lat="45.67261" lon="2.81606">
        <ele>1011.6</ele>
        <time>2012-06-26T17:33:35Z</time>
      </trkpt>
      <trkpt lat="45.67267" lon="2.81605">
        <ele>1011.4</ele>
        <time>2012-06-26T17:33:35Z</time>
      </trkpt>
      <trkpt lat="45.67274" lon="2.81602">
        <ele>1011.1</ele>
        <time>2012-06-26T17:33:35Z</time>
      </trkpt>
      <trkpt lat="45.6728" lon="2.81598">
        <ele>1011</ele>
        <time>2012-06-26T17:33:35Z</time>
      </trkpt>
      <trkpt lat="45.67286" lon="2.81596">
        <ele>1010.9</ele>
        <time>2012-06-26T17:33:35Z</time>
      </trkpt>
      <trkpt lat="45.67291" lon="2.81593">
        <ele>1010.8</ele>
        <time>2012-06-26T17:33:35Z</time>
      </trkpt>
      <trkpt lat="45.67297" lon="2.81589">
        <ele>1010.9</ele>
        <time>2012-06-26T17:33:35Z</time>
      </trkpt>
      <trkpt lat="45.67304" lon="2.81585">
        <ele>1010.9</ele>
        <time>2012-06-26T17:33:35Z</time>
      </trkpt>
      <trkpt lat="45.67309" lon="2.81583">
        <ele>1010.7</ele>
        <time>2012-06-26T17:33:35Z</time>
      </trkpt>
      <trkpt lat="45.67315" lon="2.8158">
        <ele>1010.3</ele>
        <time>2012-06-26T17:33:35Z</time>
      </trkpt>
      <trkpt lat="45.67321" lon="2.81578">
        <ele>1009.8</ele>
        <time>2012-06-26T17:33:35Z</time>
      </trkpt>
      <trkpt lat="45.67328" lon="2.81575">
        <ele>1009.1</ele>
        <time>2012-06-26T17:33:35Z</time>
      </trkpt>
      <trkpt lat="45.67334" lon="2.81573">
        <ele>1008.5</ele>
        <time>2012-06-26T17:33:35Z</time>
      </trkpt>
      <trkpt lat="45.67338" lon="2.81569">
        <ele>1008</ele>
        <time>2012-06-26T17:33:35Z</time>
      </trkpt>
      <trkpt lat="45.67343" lon="2.81569">
        <ele>1007.4</ele>
        <time>2012-06-26T17:33:35Z</time>
      </trkpt>
      <trkpt lat="45.67348" lon="2.81565">
        <ele>1006.7</ele>
        <time>2012-06-26T17:33:35Z</time>
      </trkpt>
      <trkpt lat="45.67354" lon="2.81564">
        <ele>1006.1</ele>
        <time>2012-06-26T17:33:35Z</time>
      </trkpt>
      <trkpt lat="45.67357" lon="2.81564">
        <ele>1005.8</ele>
        <time>2012-06-26T17:33:35Z</time>
      </trkpt>
      <trkpt lat="45.6736" lon="2.81569">
        <ele>1005.6</ele>
        <time>2012-06-26T17:33:35Z</time>
      </trkpt>
      <trkpt lat="45.67359" lon="2.81563">
        <ele>1005.5</ele>
        <time>2012-06-26T17:33:35Z</time>
      </trkpt>
      <trkpt lat="45.67359" lon="2.81561">
        <ele>1005.4</ele>
        <time>2012-06-26T17:33:35Z</time>
      </trkpt>
      <trkpt lat="45.67359" lon="2.81559">
        <ele>1005.4</ele>
        <time>2012-06-26T17:33:35Z</time>
      </trkpt>
      <trkpt lat="45.67359" lon="2.81557">
        <ele>1005.3</ele>
        <time>2012-06-26T17:33:35Z</time>
      </trkpt>
      <trkpt lat="45.67358" lon="2.81557">
        <ele>1005.4</ele>
        <time>2012-06-26T17:33:35Z</time>
      </trkpt>
      <trkpt lat="45.67358" lon="2.81557">
        <ele>1005.4</ele>
        <time>2012-06-26T17:33:35Z</time>
      </trkpt>
      <trkpt lat="45.67357" lon="2.81557">
        <ele>1005.5</ele>
        <time>2012-06-26T17:33:35Z</time>
      </trkpt>
      <trkpt lat="45.67356" lon="2.81559">
        <ele>1005.7</ele>
        <time>2012-06-26T17:33:35Z</time>
      </trkpt>
      <trkpt lat="45.67357" lon="2.81559">
        <ele>1005.6</ele>
        <time>2012-06-26T17:33:35Z</time>
      </trkpt>
      <trkpt lat="45.67357" lon="2.81559">
        <ele>1005.6</ele>
        <time>2012-06-26T17:33:35Z</time>
      </trkpt>
      <trkpt lat="45.67357" lon="2.81558">
        <ele>1005.6</ele>
        <time>2012-06-26T17:33:35Z</time>
      </trkpt>
      <trkpt lat="45.67357" lon="2.81558">
        <ele>1005.5</ele>
        <time>2012-06-26T17:33:35Z</time>
      </trkpt>
      <trkpt lat="45.67357" lon="2.81557">
        <ele>1005.5</ele>
        <time>2012-06-26T17:33:35Z</time>
      </trkpt>
      <trkpt lat="45.67356" lon="2.81557">
        <ele>1005.6</ele>
        <time>2012-06-26T17:33:35Z</time>
      </trkpt>
      <trkpt lat="45.67357" lon="2.81557">
        <ele>1005.5</ele>
        <time>2012-06-26T17:33:35Z</time>
      </trkpt>
      <trkpt lat="45.67357" lon="2.81557">
        <ele>1005.5</ele>
        <time>2012-06-26T17:33:35Z</time>
      </trkpt>
      <trkpt lat="45.67358" lon="2.81557">
        <ele>1005.4</ele>
        <time>2012-06-26T17:33:35Z</time>
      </trkpt>
      <trkpt lat="45.67363" lon="2.81559">
        <ele>1005.1</ele>
        <time>2012-06-26T17:33:35Z</time>
      </trkpt>
      <trkpt lat="45.67367" lon="2.81562">
        <ele>1005</ele>
        <time>2012-06-26T17:33:35Z</time>
      </trkpt>
      <trkpt lat="45.67371" lon="2.81565">
        <ele>1005</ele>
        <time>2012-06-26T17:33:35Z</time>
      </trkpt>
      <trkpt lat="45.67377" lon="2.81568">
        <ele>1004.9</ele>
        <time>2012-06-26T17:33:35Z</time>
      </trkpt>
      <trkpt lat="45.67383" lon="2.81568">
        <ele>1004.7</ele>
        <time>2012-06-26T17:33:35Z</time>
      </trkpt>
      <trkpt lat="45.67389" lon="2.8157">
        <ele>1004.5</ele>
        <time>2012-06-26T17:33:35Z</time>
      </trkpt>
      <trkpt lat="45.67396" lon="2.8157">
        <ele>1003.9</ele>
        <time>2012-06-26T17:33:35Z</time>
      </trkpt>
      <trkpt lat="45.67403" lon="2.81571">
        <ele>1003.4</ele>
        <time>2012-06-26T17:33:35Z</time>
      </trkpt>
      <trkpt lat="45.67408" lon="2.81574">
        <ele>1003.1</ele>
        <time>2012-06-26T17:33:35Z</time>
      </trkpt>
      <trkpt lat="45.67415" lon="2.81575">
        <ele>1002.6</ele>
        <time>2012-06-26T17:33:35Z</time>
      </trkpt>
      <trkpt lat="45.67421" lon="2.81576">
        <ele>1002.2</ele>
        <time>2012-06-26T17:33:35Z</time>
      </trkpt>
      <trkpt lat="45.67427" lon="2.81577">
        <ele>1001.7</ele>
        <time>2012-06-26T17:33:35Z</time>
      </trkpt>
      <trkpt lat="45.67434" lon="2.81576">
        <ele>1001.3</ele>
        <time>2012-06-26T17:33:35Z</time>
      </trkpt>
      <trkpt lat="45.6744" lon="2.81577">
        <ele>1000.9</ele>
        <time>2012-06-26T17:33:35Z</time>
      </trkpt>
      <trkpt lat="45.67447" lon="2.81577">
        <ele>1000.5</ele>
        <time>2012-06-26T17:33:35Z</time>
      </trkpt>
      <trkpt lat="45.67452" lon="2.81577">
        <ele>1000.3</ele>
        <time>2012-06-26T17:33:35Z</time>
      </trkpt>
      <trkpt lat="45.67459" lon="2.81578">
        <ele>1000.2</ele>
        <time>2012-06-26T17:33:35Z</time>
      </trkpt>
      <trkpt lat="45.67465" lon="2.81577">
        <ele>1000</ele>
        <time>2012-06-26T17:33:35Z</time>
      </trkpt>
      <trkpt lat="45.67471" lon="2.81577">
        <ele>999.8</ele>
        <time>2012-06-26T17:33:35Z</time>
      </trkpt>
      <trkpt lat="45.67477" lon="2.81574">
        <ele>999.8</ele>
        <time>2012-06-26T17:33:35Z</time>
      </trkpt>
      <trkpt lat="45.67481" lon="2.81571">
        <ele>999.9</ele>
        <time>2012-06-26T17:33:35Z</time>
      </trkpt>
      <trkpt lat="45.67486" lon="2.81569">
        <ele>1000</ele>
        <time>2012-06-26T17:33:35Z</time>
      </trkpt>
      <trkpt lat="45.67491" lon="2.81565">
        <ele>1000</ele>
        <time>2012-06-26T17:33:35Z</time>
      </trkpt>
      <trkpt lat="45.67497" lon="2.81562">
        <ele>1000.1</ele>
        <time>2012-06-26T17:33:35Z</time>
      </trkpt>
      <trkpt lat="45.67501" lon="2.8156">
        <ele>1000.2</ele>
        <time>2012-06-26T17:33:35Z</time>
      </trkpt>
      <trkpt lat="45.67506" lon="2.81558">
        <ele>1000.3</ele>
        <time>2012-06-26T17:33:35Z</time>
      </trkpt>
      <trkpt lat="45.6751" lon="2.81554">
        <ele>1000.3</ele>
        <time>2012-06-26T17:33:35Z</time>
      </trkpt>
      <trkpt lat="45.67513" lon="2.81553">
        <ele>1000.3</ele>
        <time>2012-06-26T17:33:35Z</time>
      </trkpt>
      <trkpt lat="45.67518" lon="2.81549">
        <ele>1000.3</ele>
        <time>2012-06-26T17:33:35Z</time>
      </trkpt>
      <trkpt lat="45.67523" lon="2.81547">
        <ele>1000.5</ele>
        <time>2012-06-26T17:33:35Z</time>
      </trkpt>
      <trkpt lat="45.67527" lon="2.81544">
        <ele>1000.6</ele>
        <time>2012-06-26T17:33:35Z</time>
      </trkpt>
      <trkpt lat="45.67532" lon="2.81541">
        <ele>1000.4</ele>
        <time>2012-06-26T17:33:35Z</time>
      </trkpt>
      <trkpt lat="45.67537" lon="2.81537">
        <ele>1000.2</ele>
        <time>2012-06-26T17:33:35Z</time>
      </trkpt>
      <trkpt lat="45.67541" lon="2.81534">
        <ele>1000.1</ele>
        <time>2012-06-26T17:33:35Z</time>
      </trkpt>
      <trkpt lat="45.67545" lon="2.8153">
        <ele>1000</ele>
        <time>2012-06-26T17:33:35Z</time>
      </trkpt>
      <trkpt lat="45.6755" lon="2.81526">
        <ele>999.9</ele>
        <time>2012-06-26T17:33:35Z</time>
      </trkpt>
      <trkpt lat="45.67556" lon="2.81523">
        <ele>999.6</ele>
        <time>2012-06-26T17:33:35Z</time>
      </trkpt>
      <trkpt lat="45.6756" lon="2.8152">
        <ele>999</ele>
        <time>2012-06-26T17:33:35Z</time>
      </trkpt>
      <trkpt lat="45.67566" lon="2.81516">
        <ele>998</ele>
        <time>2012-06-26T17:33:35Z</time>
      </trkpt>
      <trkpt lat="45.67571" lon="2.81512">
        <ele>997.2</ele>
        <time>2012-06-26T17:33:35Z</time>
      </trkpt>
      <trkpt lat="45.67576" lon="2.81507">
        <ele>996.4</ele>
        <time>2012-06-26T17:33:35Z</time>
      </trkpt>
      <trkpt lat="45.67582" lon="2.81502">
        <ele>995.3</ele>
        <time>2012-06-26T17:33:35Z</time>
      </trkpt>
      <trkpt lat="45.67586" lon="2.81497">
        <ele>994.5</ele>
        <time>2012-06-26T17:33:35Z</time>
      </trkpt>
      <trkpt lat="45.6759" lon="2.81492">
        <ele>994.2</ele>
        <time>2012-06-26T17:33:35Z</time>
      </trkpt>
      <trkpt lat="45.67595" lon="2.81487">
        <ele>994</ele>
        <time>2012-06-26T17:33:35Z</time>
      </trkpt>
      <trkpt lat="45.67601" lon="2.81482">
        <ele>994.3</ele>
        <time>2012-06-26T17:33:35Z</time>
      </trkpt>
      <trkpt lat="45.67605" lon="2.81478">
        <ele>994.8</ele>
        <time>2012-06-26T17:33:35Z</time>
      </trkpt>
      <trkpt lat="45.6761" lon="2.81475">
        <ele>995.5</ele>
        <time>2012-06-26T17:33:35Z</time>
      </trkpt>
      <trkpt lat="45.67615" lon="2.8147">
        <ele>996</ele>
        <time>2012-06-26T17:33:35Z</time>
      </trkpt>
      <trkpt lat="45.6762" lon="2.81465">
        <ele>996.5</ele>
        <time>2012-06-26T17:33:35Z</time>
      </trkpt>
      <trkpt lat="45.67624" lon="2.8146">
        <ele>997</ele>
        <time>2012-06-26T17:33:35Z</time>
      </trkpt>
      <trkpt lat="45.67629" lon="2.81457">
        <ele>997.6</ele>
        <time>2012-06-26T17:33:35Z</time>
      </trkpt>
      <trkpt lat="45.67633" lon="2.81453">
        <ele>998.3</ele>
        <time>2012-06-26T17:33:35Z</time>
      </trkpt>
      <trkpt lat="45.67638" lon="2.81451">
        <ele>998.8</ele>
        <time>2012-06-26T17:33:35Z</time>
      </trkpt>
      <trkpt lat="45.67641" lon="2.81449">
        <ele>998.9</ele>
        <time>2012-06-26T17:33:35Z</time>
      </trkpt>
      <trkpt lat="45.67648" lon="2.81445">
        <ele>998.6</ele>
        <time>2012-06-26T17:33:35Z</time>
      </trkpt>
      <trkpt lat="45.67653" lon="2.8144">
        <ele>998</ele>
        <time>2012-06-26T17:33:35Z</time>
      </trkpt>
      <trkpt lat="45.67661" lon="2.81434">
        <ele>996.9</ele>
        <time>2012-06-26T17:33:35Z</time>
      </trkpt>
      <trkpt lat="45.67667" lon="2.8143">
        <ele>996.4</ele>
        <time>2012-06-26T17:33:35Z</time>
      </trkpt>
      <trkpt lat="45.67672" lon="2.81424">
        <ele>995.2</ele>
        <time>2012-06-26T17:33:35Z</time>
      </trkpt>
      <trkpt lat="45.67677" lon="2.81422">
        <ele>994.1</ele>
        <time>2012-06-26T17:33:35Z</time>
      </trkpt>
      <trkpt lat="45.67682" lon="2.81422">
        <ele>992.7</ele>
        <time>2012-06-26T17:33:35Z</time>
      </trkpt>
      <trkpt lat="45.67686" lon="2.8142">
        <ele>992.1</ele>
        <time>2012-06-26T17:33:35Z</time>
      </trkpt>
      <trkpt lat="45.67692" lon="2.81418">
        <ele>991.1</ele>
        <time>2012-06-26T17:33:35Z</time>
      </trkpt>
      <trkpt lat="45.67698" lon="2.81418">
        <ele>989</ele>
        <time>2012-06-26T17:33:35Z</time>
      </trkpt>
      <trkpt lat="45.67705" lon="2.81415">
        <ele>986.3</ele>
        <time>2012-06-26T17:33:35Z</time>
      </trkpt>
      <trkpt lat="45.6771" lon="2.81412">
        <ele>984.1</ele>
        <time>2012-06-26T17:33:35Z</time>
      </trkpt>
      <trkpt lat="45.67716" lon="2.81412">
        <ele>981.7</ele>
        <time>2012-06-26T17:33:35Z</time>
      </trkpt>
      <trkpt lat="45.6772" lon="2.81412">
        <ele>979.8</ele>
        <time>2012-06-26T17:33:35Z</time>
      </trkpt>
      <trkpt lat="45.67724" lon="2.8141">
        <ele>978.4</ele>
        <time>2012-06-26T17:33:35Z</time>
      </trkpt>
      <trkpt lat="45.67728" lon="2.81409">
        <ele>977.4</ele>
        <time>2012-06-26T17:33:35Z</time>
      </trkpt>
      <trkpt lat="45.67729" lon="2.81406">
        <ele>977.6</ele>
        <time>2012-06-26T17:33:35Z</time>
      </trkpt>
      <trkpt lat="45.6773" lon="2.81404">
        <ele>977.4</ele>
        <time>2012-06-26T17:33:35Z</time>
      </trkpt>
      <trkpt lat="45.67735" lon="2.81403">
        <ele>976.3</ele>
        <time>2012-06-26T17:33:35Z</time>
      </trkpt>
      <trkpt lat="45.67739" lon="2.81401">
        <ele>975</ele>
        <time>2012-06-26T17:33:35Z</time>
      </trkpt>
      <trkpt lat="45.67744" lon="2.81399">
        <ele>973.8</ele>
        <time>2012-06-26T17:33:35Z</time>
      </trkpt>
      <trkpt lat="45.67749" lon="2.81396">
        <ele>972.4</ele>
        <time>2012-06-26T17:33:35Z</time>
      </trkpt>
      <trkpt lat="45.67754" lon="2.81396">
        <ele>971</ele>
        <time>2012-06-26T17:33:35Z</time>
      </trkpt>
      <trkpt lat="45.67758" lon="2.81393">
        <ele>970.4</ele>
        <time>2012-06-26T17:33:35Z</time>
      </trkpt>
      <trkpt lat="45.67761" lon="2.81391">
        <ele>969.5</ele>
        <time>2012-06-26T17:33:35Z</time>
      </trkpt>
      <trkpt lat="45.67766" lon="2.8139">
        <ele>968.3</ele>
        <time>2012-06-26T17:33:35Z</time>
      </trkpt>
      <trkpt lat="45.67771" lon="2.81387">
        <ele>967.3</ele>
        <time>2012-06-26T17:33:35Z</time>
      </trkpt>
      <trkpt lat="45.67775" lon="2.81382">
        <ele>966.7</ele>
        <time>2012-06-26T17:33:35Z</time>
      </trkpt>
      <trkpt lat="45.67778" lon="2.8138">
        <ele>965.9</ele>
        <time>2012-06-26T17:33:35Z</time>
      </trkpt>
      <trkpt lat="45.67781" lon="2.81377">
        <ele>965.5</ele>
        <time>2012-06-26T17:33:35Z</time>
      </trkpt>
      <trkpt lat="45.67786" lon="2.81372">
        <ele>964.8</ele>
        <time>2012-06-26T17:33:35Z</time>
      </trkpt>
      <trkpt lat="45.6779" lon="2.81369">
        <ele>964.1</ele>
        <time>2012-06-26T17:33:35Z</time>
      </trkpt>
      <trkpt lat="45.67797" lon="2.81365">
        <ele>962.8</ele>
        <time>2012-06-26T17:33:35Z</time>
      </trkpt>
      <trkpt lat="45.67802" lon="2.81362">
        <ele>961.8</ele>
        <time>2012-06-26T17:33:35Z</time>
      </trkpt>
      <trkpt lat="45.67808" lon="2.81358">
        <ele>960.6</ele>
        <time>2012-06-26T17:33:35Z</time>
      </trkpt>
      <trkpt lat="45.67813" lon="2.81352">
        <ele>960.2</ele>
        <time>2012-06-26T17:33:35Z</time>
      </trkpt>
      <trkpt lat="45.67818" lon="2.81346">
        <ele>959.8</ele>
        <time>2012-06-26T17:33:35Z</time>
      </trkpt>
      <trkpt lat="45.67823" lon="2.81342">
        <ele>959.4</ele>
        <time>2012-06-26T17:33:35Z</time>
      </trkpt>
      <trkpt lat="45.67829" lon="2.81338">
        <ele>959</ele>
        <time>2012-06-26T17:33:35Z</time>
      </trkpt>
      <trkpt lat="45.67835" lon="2.81335">
        <ele>958.7</ele>
        <time>2012-06-26T17:33:35Z</time>
      </trkpt>
      <trkpt lat="45.67838" lon="2.8133">
        <ele>959</ele>
        <time>2012-06-26T17:33:35Z</time>
      </trkpt>
      <trkpt lat="45.67844" lon="2.81324">
        <ele>959.4</ele>
        <time>2012-06-26T17:33:35Z</time>
      </trkpt>
      <trkpt lat="45.67851" lon="2.81316">
        <ele>960.2</ele>
        <time>2012-06-26T17:33:35Z</time>
      </trkpt>
      <trkpt lat="45.67857" lon="2.81308">
        <ele>961</ele>
        <time>2012-06-26T17:33:35Z</time>
      </trkpt>
      <trkpt lat="45.67862" lon="2.81301">
        <ele>961.5</ele>
        <time>2012-06-26T17:33:35Z</time>
      </trkpt>
      <trkpt lat="45.67867" lon="2.81297">
        <ele>961.4</ele>
        <time>2012-06-26T17:33:35Z</time>
      </trkpt>
      <trkpt lat="45.67869" lon="2.81291">
        <ele>961.9</ele>
        <time>2012-06-26T17:33:35Z</time>
      </trkpt>
      <trkpt lat="45.67873" lon="2.81285">
        <ele>962.1</ele>
        <time>2012-06-26T17:33:35Z</time>
      </trkpt>
      <trkpt lat="45.67875" lon="2.81278">
        <ele>962.9</ele>
        <time>2012-06-26T17:33:35Z</time>
      </trkpt>
      <trkpt lat="45.67878" lon="2.81272">
        <ele>962.8</ele>
        <time>2012-06-26T17:33:35Z</time>
      </trkpt>
      <trkpt lat="45.6788" lon="2.81266">
        <ele>962.7</ele>
        <time>2012-06-26T17:33:35Z</time>
      </trkpt>
      <trkpt lat="45.67885" lon="2.8126">
        <ele>962.3</ele>
        <time>2012-06-26T17:33:35Z</time>
      </trkpt>
      <trkpt lat="45.67889" lon="2.81254">
        <ele>961.9</ele>
        <time>2012-06-26T17:33:35Z</time>
      </trkpt>
      <trkpt lat="45.67893" lon="2.81249">
        <ele>960.9</ele>
        <time>2012-06-26T17:33:35Z</time>
      </trkpt>
      <trkpt lat="45.67895" lon="2.81247">
        <ele>960.3</ele>
        <time>2012-06-26T17:33:35Z</time>
      </trkpt>
      <trkpt lat="45.67898" lon="2.81246">
        <ele>959.4</ele>
        <time>2012-06-26T17:33:35Z</time>
      </trkpt>
      <trkpt lat="45.67902" lon="2.81242">
        <ele>958.2</ele>
        <time>2012-06-26T17:33:35Z</time>
      </trkpt>
      <trkpt lat="45.67905" lon="2.81234">
        <ele>957</ele>
        <time>2012-06-26T17:33:35Z</time>
      </trkpt>
      <trkpt lat="45.67906" lon="2.81228">
        <ele>956.4</ele>
        <time>2012-06-26T17:33:35Z</time>
      </trkpt>
      <trkpt lat="45.67903" lon="2.8122">
        <ele>956.5</ele>
        <time>2012-06-26T17:33:35Z</time>
      </trkpt>
      <trkpt lat="45.67899" lon="2.81214">
        <ele>956.3</ele>
        <time>2012-06-26T17:33:35Z</time>
      </trkpt>
      <trkpt lat="45.67896" lon="2.81209">
        <ele>956</ele>
        <time>2012-06-26T17:33:35Z</time>
      </trkpt>
      <trkpt lat="45.67897" lon="2.81208">
        <ele>955.7</ele>
        <time>2012-06-26T17:33:35Z</time>
      </trkpt>
      <trkpt lat="45.67897" lon="2.81201">
        <ele>954.3</ele>
        <time>2012-06-26T17:33:35Z</time>
      </trkpt>
      <trkpt lat="45.67895" lon="2.81196">
        <ele>953.6</ele>
        <time>2012-06-26T17:33:35Z</time>
      </trkpt>
      <trkpt lat="45.67893" lon="2.81197">
        <ele>954.3</ele>
        <time>2012-06-26T17:33:35Z</time>
      </trkpt>
      <trkpt lat="45.67892" lon="2.81197">
        <ele>954.8</ele>
        <time>2012-06-26T17:33:35Z</time>
      </trkpt>
      <trkpt lat="45.67893" lon="2.8119">
        <ele>952.7</ele>
        <time>2012-06-26T17:33:35Z</time>
      </trkpt>
      <trkpt lat="45.67894" lon="2.81182">
        <ele>950</ele>
        <time>2012-06-26T17:33:35Z</time>
      </trkpt>
      <trkpt lat="45.67893" lon="2.81176">
        <ele>948.1</ele>
        <time>2012-06-26T17:33:35Z</time>
      </trkpt>
      <trkpt lat="45.67894" lon="2.81169">
        <ele>945.9</ele>
        <time>2012-06-26T17:33:35Z</time>
      </trkpt>
      <trkpt lat="45.67894" lon="2.81162">
        <ele>943.9</ele>
        <time>2012-06-26T17:33:35Z</time>
      </trkpt>
      <trkpt lat="45.67893" lon="2.81156">
        <ele>942.2</ele>
        <time>2012-06-26T17:33:35Z</time>
      </trkpt>
      <trkpt lat="45.67891" lon="2.81149">
        <ele>940.6</ele>
        <time>2012-06-26T17:33:35Z</time>
      </trkpt>
      <trkpt lat="45.6789" lon="2.81142">
        <ele>938.6</ele>
        <time>2012-06-26T17:33:35Z</time>
      </trkpt>
      <trkpt lat="45.67889" lon="2.81134">
        <ele>937</ele>
        <time>2012-06-26T17:33:35Z</time>
      </trkpt>
      <trkpt lat="45.67886" lon="2.81126">
        <ele>935.5</ele>
        <time>2012-06-26T17:33:35Z</time>
      </trkpt>
      <trkpt lat="45.67886" lon="2.81122">
        <ele>934.8</ele>
        <time>2012-06-26T17:33:35Z</time>
      </trkpt>
      <trkpt lat="45.67886" lon="2.81122">
        <ele>934.8</ele>
        <time>2012-06-26T17:33:35Z</time>
      </trkpt>
      <trkpt lat="45.67886" lon="2.8112">
        <ele>934.3</ele>
        <time>2012-06-26T17:33:35Z</time>
      </trkpt>
      <trkpt lat="45.67886" lon="2.8112">
        <ele>934.4</ele>
        <time>2012-06-26T17:33:35Z</time>
      </trkpt>
      <trkpt lat="45.67885" lon="2.81121">
        <ele>934.4</ele>
        <time>2012-06-26T17:33:35Z</time>
      </trkpt>
      <trkpt lat="45.67886" lon="2.8112">
        <ele>934.3</ele>
        <time>2012-06-26T17:33:35Z</time>
      </trkpt>
      <trkpt lat="45.67887" lon="2.81119">
        <ele>934.2</ele>
        <time>2012-06-26T17:33:35Z</time>
      </trkpt>
      <trkpt lat="45.67886" lon="2.8112">
        <ele>934.4</ele>
        <time>2012-06-26T17:33:35Z</time>
      </trkpt>
      <trkpt lat="45.67888" lon="2.8112">
        <ele>934.4</ele>
        <time>2012-06-26T17:33:35Z</time>
      </trkpt>
      <trkpt lat="45.67892" lon="2.81116">
        <ele>933.5</ele>
        <time>2012-06-26T17:33:35Z</time>
      </trkpt>
      <trkpt lat="45.67896" lon="2.81111">
        <ele>932</ele>
        <time>2012-06-26T17:33:35Z</time>
      </trkpt>
      <trkpt lat="45.67899" lon="2.81107">
        <ele>931</ele>
        <time>2012-06-26T17:33:35Z</time>
      </trkpt>
      <trkpt lat="45.67903" lon="2.81102">
        <ele>930.1</ele>
        <time>2012-06-26T17:33:35Z</time>
      </trkpt>
      <trkpt lat="45.67906" lon="2.81096">
        <ele>929.1</ele>
        <time>2012-06-26T17:33:35Z</time>
      </trkpt>
      <trkpt lat="45.67908" lon="2.81089">
        <ele>928.1</ele>
        <time>2012-06-26T17:33:35Z</time>
      </trkpt>
      <trkpt lat="45.67908" lon="2.81081">
        <ele>927.4</ele>
        <time>2012-06-26T17:33:35Z</time>
      </trkpt>
      <trkpt lat="45.67907" lon="2.81072">
        <ele>926.7</ele>
        <time>2012-06-26T17:33:35Z</time>
      </trkpt>
      <trkpt lat="45.67908" lon="2.81062">
        <ele>925.8</ele>
        <time>2012-06-26T17:33:35Z</time>
      </trkpt>
      <trkpt lat="45.67908" lon="2.81051">
        <ele>925</ele>
        <time>2012-06-26T17:33:35Z</time>
      </trkpt>
      <trkpt lat="45.67908" lon="2.81041">
        <ele>924.5</ele>
        <time>2012-06-26T17:33:35Z</time>
      </trkpt>
      <trkpt lat="45.67911" lon="2.81033">
        <ele>923.7</ele>
        <time>2012-06-26T17:33:35Z</time>
      </trkpt>
      <trkpt lat="45.67914" lon="2.81025">
        <ele>923</ele>
        <time>2012-06-26T17:33:35Z</time>
      </trkpt>
      <trkpt lat="45.6792" lon="2.81024">
        <ele>922.2</ele>
        <time>2012-06-26T17:33:35Z</time>
      </trkpt>
      <trkpt lat="45.67927" lon="2.81022">
        <ele>921.1</ele>
        <time>2012-06-26T17:33:35Z</time>
      </trkpt>
      <trkpt lat="45.67933" lon="2.8102">
        <ele>920.1</ele>
        <time>2012-06-26T17:33:35Z</time>
      </trkpt>
      <trkpt lat="45.67938" lon="2.81017">
        <ele>919.2</ele>
        <time>2012-06-26T17:33:35Z</time>
      </trkpt>
      <trkpt lat="45.67941" lon="2.8101">
        <ele>918.2</ele>
        <time>2012-06-26T17:33:35Z</time>
      </trkpt>
      <trkpt lat="45.67942" lon="2.80999">
        <ele>917.4</ele>
        <time>2012-06-26T17:33:35Z</time>
      </trkpt>
      <trkpt lat="45.67941" lon="2.8099">
        <ele>917.1</ele>
        <time>2012-06-26T17:33:35Z</time>
      </trkpt>
      <trkpt lat="45.67941" lon="2.80979">
        <ele>916.7</ele>
        <time>2012-06-26T17:33:35Z</time>
      </trkpt>
      <trkpt lat="45.6794" lon="2.80977">
        <ele>916.8</ele>
        <time>2012-06-26T17:33:35Z</time>
      </trkpt>
      <trkpt lat="45.67939" lon="2.8098">
        <ele>917.1</ele>
        <time>2012-06-26T17:33:35Z</time>
      </trkpt>
      <trkpt lat="45.6794" lon="2.80977">
        <ele>916.9</ele>
        <time>2012-06-26T17:33:35Z</time>
      </trkpt>
      <trkpt lat="45.67938" lon="2.80978">
        <ele>917.1</ele>
        <time>2012-06-26T17:33:35Z</time>
      </trkpt>
      <trkpt lat="45.67938" lon="2.80973">
        <ele>917</ele>
        <time>2012-06-26T17:33:35Z</time>
      </trkpt>
      <trkpt lat="45.6794" lon="2.80966">
        <ele>916.3</ele>
        <time>2012-06-26T17:33:35Z</time>
      </trkpt>
      <trkpt lat="45.67939" lon="2.80962">
        <ele>916.1</ele>
        <time>2012-06-26T17:33:35Z</time>
      </trkpt>
      <trkpt lat="45.67942" lon="2.80956">
        <ele>915.3</ele>
        <time>2012-06-26T17:33:35Z</time>
      </trkpt>
      <trkpt lat="45.67945" lon="2.80947">
        <ele>914.1</ele>
        <time>2012-06-26T17:33:35Z</time>
      </trkpt>
      <trkpt lat="45.67949" lon="2.80937">
        <ele>912.5</ele>
        <time>2012-06-26T17:33:35Z</time>
      </trkpt>
      <trkpt lat="45.67951" lon="2.80928">
        <ele>911</ele>
        <time>2012-06-26T17:33:35Z</time>
      </trkpt>
      <trkpt lat="45.67951" lon="2.80922">
        <ele>910.1</ele>
        <time>2012-06-26T17:33:35Z</time>
      </trkpt>
      <trkpt lat="45.67954" lon="2.80912">
        <ele>908.2</ele>
        <time>2012-06-26T17:33:35Z</time>
      </trkpt>
      <trkpt lat="45.67957" lon="2.80904">
        <ele>906.1</ele>
        <time>2012-06-26T17:33:35Z</time>
      </trkpt>
      <trkpt lat="45.67963" lon="2.80895">
        <ele>903.4</ele>
        <time>2012-06-26T17:33:35Z</time>
      </trkpt>
      <trkpt lat="45.67968" lon="2.80891">
        <ele>901.3</ele>
        <time>2012-06-26T17:33:35Z</time>
      </trkpt>
      <trkpt lat="45.67974" lon="2.80888">
        <ele>899.6</ele>
        <time>2012-06-26T17:33:35Z</time>
      </trkpt>
      <trkpt lat="45.67977" lon="2.80882">
        <ele>898.3</ele>
        <time>2012-06-26T17:33:35Z</time>
      </trkpt>
      <trkpt lat="45.67984" lon="2.80877">
        <ele>896.6</ele>
        <time>2012-06-26T17:33:35Z</time>
      </trkpt>
      <trkpt lat="45.67992" lon="2.8087">
        <ele>894.4</ele>
        <time>2012-06-26T17:33:35Z</time>
      </trkpt>
      <trkpt lat="45.68001" lon="2.80865">
        <ele>892.5</ele>
        <time>2012-06-26T17:33:35Z</time>
      </trkpt>
      <trkpt lat="45.68006" lon="2.80861">
        <ele>891.6</ele>
        <time>2012-06-26T17:33:35Z</time>
      </trkpt>
      <trkpt lat="45.68011" lon="2.80856">
        <ele>890.5</ele>
        <time>2012-06-26T17:33:35Z</time>
      </trkpt>
      <trkpt lat="45.68014" lon="2.80853">
        <ele>889.8</ele>
        <time>2012-06-26T17:33:35Z</time>
      </trkpt>
      <trkpt lat="45.68021" lon="2.80849">
        <ele>888.7</ele>
        <time>2012-06-26T17:33:35Z</time>
      </trkpt>
      <trkpt lat="45.68029" lon="2.80844">
        <ele>887.4</ele>
        <time>2012-06-26T17:33:35Z</time>
      </trkpt>
      <trkpt lat="45.68035" lon="2.8084">
        <ele>885.9</ele>
        <time>2012-06-26T17:33:35Z</time>
      </trkpt>
      <trkpt lat="45.68043" lon="2.80835">
        <ele>883.9</ele>
        <time>2012-06-26T17:33:35Z</time>
      </trkpt>
      <trkpt lat="45.68051" lon="2.80833">
        <ele>882.6</ele>
        <time>2012-06-26T17:33:35Z</time>
      </trkpt>
      <trkpt lat="45.68059" lon="2.80831">
        <ele>881.4</ele>
        <time>2012-06-26T17:33:35Z</time>
      </trkpt>
      <trkpt lat="45.68067" lon="2.80829">
        <ele>880.7</ele>
        <time>2012-06-26T17:33:35Z</time>
      </trkpt>
      <trkpt lat="45.68074" lon="2.80829">
        <ele>880.2</ele>
        <time>2012-06-26T17:33:35Z</time>
      </trkpt>
      <trkpt lat="45.68079" lon="2.80827">
        <ele>879.8</ele>
        <time>2012-06-26T17:33:35Z</time>
      </trkpt>
      <trkpt lat="45.68084" lon="2.80825">
        <ele>879.4</ele>
        <time>2012-06-26T17:33:35Z</time>
      </trkpt>
      <trkpt lat="45.68086" lon="2.80825">
        <ele>879.3</ele>
        <time>2012-06-26T17:33:35Z</time>
      </trkpt>
      <trkpt lat="45.68087" lon="2.80826">
        <ele>879.4</ele>
        <time>2012-06-26T17:33:35Z</time>
      </trkpt>
      <trkpt lat="45.68088" lon="2.80827">
        <ele>879.3</ele>
        <time>2012-06-26T17:33:35Z</time>
      </trkpt>
      <trkpt lat="45.68094" lon="2.8082">
        <ele>878.8</ele>
        <time>2012-06-26T17:33:35Z</time>
      </trkpt>
      <trkpt lat="45.68098" lon="2.80813">
        <ele>878.6</ele>
        <time>2012-06-26T17:33:35Z</time>
      </trkpt>
      <trkpt lat="45.68101" lon="2.80807">
        <ele>878.6</ele>
        <time>2012-06-26T17:33:35Z</time>
      </trkpt>
      <trkpt lat="45.68105" lon="2.80798">
        <ele>878.9</ele>
        <time>2012-06-26T17:33:35Z</time>
      </trkpt>
      <trkpt lat="45.68109" lon="2.80791">
        <ele>879.4</ele>
        <time>2012-06-26T17:33:35Z</time>
      </trkpt>
      <trkpt lat="45.68108" lon="2.80788">
        <ele>879.4</ele>
        <time>2012-06-26T17:33:35Z</time>
      </trkpt>
      <trkpt lat="45.68108" lon="2.80788">
        <ele>879.4</ele>
        <time>2012-06-26T17:33:35Z</time>
      </trkpt>
      <trkpt lat="45.68109" lon="2.80784">
        <ele>879.5</ele>
        <time>2012-06-26T17:33:35Z</time>
      </trkpt>
      <trkpt lat="45.68108" lon="2.80777">
        <ele>879.6</ele>
        <time>2012-06-26T17:33:35Z</time>
      </trkpt>
      <trkpt lat="45.68102" lon="2.80771">
        <ele>879.1</ele>
        <time>2012-06-26T17:33:35Z</time>
      </trkpt>
      <trkpt lat="45.68097" lon="2.80765">
        <ele>878.5</ele>
        <time>2012-06-26T17:33:35Z</time>
      </trkpt>
      <trkpt lat="45.68093" lon="2.80756">
        <ele>877.9</ele>
        <time>2012-06-26T17:33:35Z</time>
      </trkpt>
      <trkpt lat="45.6809" lon="2.80751">
        <ele>877.2</ele>
        <time>2012-06-26T17:33:35Z</time>
      </trkpt>
      <trkpt lat="45.68089" lon="2.80743">
        <ele>876.3</ele>
        <time>2012-06-26T17:33:35Z</time>
      </trkpt>
      <trkpt lat="45.68089" lon="2.80735">
        <ele>875.5</ele>
        <time>2012-06-26T17:33:35Z</time>
      </trkpt>
      <trkpt lat="45.68091" lon="2.80727">
        <ele>875.2</ele>
        <time>2012-06-26T17:33:35Z</time>
      </trkpt>
      <trkpt lat="45.68093" lon="2.80719">
        <ele>874.4</ele>
        <time>2012-06-26T17:33:35Z</time>
      </trkpt>
      <trkpt lat="45.68095" lon="2.8071">
        <ele>873.3</ele>
        <time>2012-06-26T17:33:35Z</time>
      </trkpt>
      <trkpt lat="45.68099" lon="2.80702">
        <ele>872.9</ele>
        <time>2012-06-26T17:33:35Z</time>
      </trkpt>
      <trkpt lat="45.68103" lon="2.80696">
        <ele>872.6</ele>
        <time>2012-06-26T17:33:35Z</time>
      </trkpt>
      <trkpt lat="45.68106" lon="2.8069">
        <ele>871.7</ele>
        <time>2012-06-26T17:33:35Z</time>
      </trkpt>
      <trkpt lat="45.68107" lon="2.80687">
        <ele>871.3</ele>
        <time>2012-06-26T17:33:35Z</time>
      </trkpt>
      <trkpt lat="45.68111" lon="2.80681">
        <ele>870.1</ele>
        <time>2012-06-26T17:33:35Z</time>
      </trkpt>
      <trkpt lat="45.68116" lon="2.80677">
        <ele>869.5</ele>
        <time>2012-06-26T17:33:35Z</time>
      </trkpt>
      <trkpt lat="45.68121" lon="2.80673">
        <ele>868.8</ele>
        <time>2012-06-26T17:33:35Z</time>
      </trkpt>
      <trkpt lat="45.68126" lon="2.8067">
        <ele>868.5</ele>
        <time>2012-06-26T17:33:35Z</time>
      </trkpt>
      <trkpt lat="45.6813" lon="2.80667">
        <ele>868.1</ele>
        <time>2012-06-26T17:33:35Z</time>
      </trkpt>
      <trkpt lat="45.68132" lon="2.80665">
        <ele>868</ele>
        <time>2012-06-26T17:33:35Z</time>
      </trkpt>
      <trkpt lat="45.68135" lon="2.80662">
        <ele>867.9</ele>
        <time>2012-06-26T17:33:35Z</time>
      </trkpt>
      <trkpt lat="45.68141" lon="2.8066">
        <ele>868</ele>
        <time>2012-06-26T17:33:35Z</time>
      </trkpt>
      <trkpt lat="45.68147" lon="2.80658">
        <ele>867.9</ele>
        <time>2012-06-26T17:33:35Z</time>
      </trkpt>
      <trkpt lat="45.68153" lon="2.80655">
        <ele>867.6</ele>
        <time>2012-06-26T17:33:35Z</time>
      </trkpt>
      <trkpt lat="45.68159" lon="2.80651">
        <ele>867.2</ele>
        <time>2012-06-26T17:33:35Z</time>
      </trkpt>
      <trkpt lat="45.68165" lon="2.80646">
        <ele>866.5</ele>
        <time>2012-06-26T17:33:35Z</time>
      </trkpt>
      <trkpt lat="45.68171" lon="2.80641">
        <ele>866</ele>
        <time>2012-06-26T17:33:35Z</time>
      </trkpt>
      <trkpt lat="45.68176" lon="2.80633">
        <ele>865.6</ele>
        <time>2012-06-26T17:33:35Z</time>
      </trkpt>
      <trkpt lat="45.68181" lon="2.80627">
        <ele>865</ele>
        <time>2012-06-26T17:33:35Z</time>
      </trkpt>
      <trkpt lat="45.68183" lon="2.80621">
        <ele>864.3</ele>
        <time>2012-06-26T17:33:35Z</time>
      </trkpt>
      <trkpt lat="45.68185" lon="2.80617">
        <ele>863.4</ele>
        <time>2012-06-26T17:33:35Z</time>
      </trkpt>
      <trkpt lat="45.68189" lon="2.80611">
        <ele>862.2</ele>
        <time>2012-06-26T17:33:35Z</time>
      </trkpt>
      <trkpt lat="45.68193" lon="2.80604">
        <ele>862.4</ele>
        <time>2012-06-26T17:33:35Z</time>
      </trkpt>
      <trkpt lat="45.68198" lon="2.80598">
        <ele>862.9</ele>
        <time>2012-06-26T17:33:35Z</time>
      </trkpt>
      <trkpt lat="45.68203" lon="2.80593">
        <ele>863.3</ele>
        <time>2012-06-26T17:33:35Z</time>
      </trkpt>
      <trkpt lat="45.68209" lon="2.80589">
        <ele>863.2</ele>
        <time>2012-06-26T17:33:35Z</time>
      </trkpt>
      <trkpt lat="45.68214" lon="2.80583">
        <ele>862.3</ele>
        <time>2012-06-26T17:33:35Z</time>
      </trkpt>
      <trkpt lat="45.68219" lon="2.80576">
        <ele>862</ele>
        <time>2012-06-26T17:33:35Z</time>
      </trkpt>
      <trkpt lat="45.68223" lon="2.80569">
        <ele>861.2</ele>
        <time>2012-06-26T17:33:35Z</time>
      </trkpt>
      <trkpt lat="45.68227" lon="2.80561">
        <ele>861.2</ele>
        <time>2012-06-26T17:33:35Z</time>
      </trkpt>
      <trkpt lat="45.6823" lon="2.80553">
        <ele>861</ele>
        <time>2012-06-26T17:33:35Z</time>
      </trkpt>
      <trkpt lat="45.68234" lon="2.80545">
        <ele>861.3</ele>
        <time>2012-06-26T17:33:35Z</time>
      </trkpt>
      <trkpt lat="45.68238" lon="2.80538">
        <ele>861</ele>
        <time>2012-06-26T17:33:35Z</time>
      </trkpt>
      <trkpt lat="45.6824" lon="2.80532">
        <ele>860.5</ele>
        <time>2012-06-26T17:33:35Z</time>
      </trkpt>
      <trkpt lat="45.68242" lon="2.80527">
        <ele>859.9</ele>
        <time>2012-06-26T17:33:35Z</time>
      </trkpt>
      <trkpt lat="45.68244" lon="2.80519">
        <ele>860.8</ele>
        <time>2012-06-26T17:33:35Z</time>
      </trkpt>
      <trkpt lat="45.68247" lon="2.80511">
        <ele>860.4</ele>
        <time>2012-06-26T17:33:35Z</time>
      </trkpt>
      <trkpt lat="45.68251" lon="2.80505">
        <ele>858.8</ele>
        <time>2012-06-26T17:33:35Z</time>
      </trkpt>
      <trkpt lat="45.68255" lon="2.805">
        <ele>858.7</ele>
        <time>2012-06-26T17:33:35Z</time>
      </trkpt>
      <trkpt lat="45.68263" lon="2.80497">
        <ele>858.9</ele>
        <time>2012-06-26T17:33:35Z</time>
      </trkpt>
      <trkpt lat="45.68269" lon="2.80496">
        <ele>858.5</ele>
        <time>2012-06-26T17:33:35Z</time>
      </trkpt>
      <trkpt lat="45.68272" lon="2.80499">
        <ele>857.7</ele>
        <time>2012-06-26T17:33:35Z</time>
      </trkpt>
      <trkpt lat="45.68278" lon="2.80496">
        <ele>857.7</ele>
        <time>2012-06-26T17:33:35Z</time>
      </trkpt>
      <trkpt lat="45.68283" lon="2.80494">
        <ele>857.6</ele>
        <time>2012-06-26T17:33:35Z</time>
      </trkpt>
      <trkpt lat="45.68288" lon="2.80493">
        <ele>857.6</ele>
        <time>2012-06-26T17:33:35Z</time>
      </trkpt>
      <trkpt lat="45.68295" lon="2.80489">
        <ele>857.4</ele>
        <time>2012-06-26T17:33:35Z</time>
      </trkpt>
      <trkpt lat="45.68299" lon="2.80487">
        <ele>857.1</ele>
        <time>2012-06-26T17:33:35Z</time>
      </trkpt>
      <trkpt lat="45.68303" lon="2.80484">
        <ele>856.7</ele>
        <time>2012-06-26T17:33:35Z</time>
      </trkpt>
      <trkpt lat="45.68309" lon="2.80481">
        <ele>856.1</ele>
        <time>2012-06-26T17:33:35Z</time>
      </trkpt>
      <trkpt lat="45.68314" lon="2.80476">
        <ele>855.6</ele>
        <time>2012-06-26T17:33:35Z</time>
      </trkpt>
      <trkpt lat="45.68319" lon="2.80471">
        <ele>855.2</ele>
        <time>2012-06-26T17:33:35Z</time>
      </trkpt>
      <trkpt lat="45.68323" lon="2.80465">
        <ele>855.2</ele>
        <time>2012-06-26T17:33:35Z</time>
      </trkpt>
      <trkpt lat="45.68329" lon="2.8046">
        <ele>855</ele>
        <time>2012-06-26T17:33:35Z</time>
      </trkpt>
      <trkpt lat="45.68333" lon="2.80456">
        <ele>854.6</ele>
        <time>2012-06-26T17:33:35Z</time>
      </trkpt>
      <trkpt lat="45.68339" lon="2.80453">
        <ele>854.4</ele>
        <time>2012-06-26T17:33:35Z</time>
      </trkpt>
      <trkpt lat="45.68346" lon="2.80456">
        <ele>853.9</ele>
        <time>2012-06-26T17:33:35Z</time>
      </trkpt>
      <trkpt lat="45.68351" lon="2.80461">
        <ele>853.4</ele>
        <time>2012-06-26T17:33:35Z</time>
      </trkpt>
      <trkpt lat="45.68357" lon="2.80467">
        <ele>852.6</ele>
        <time>2012-06-26T17:33:35Z</time>
      </trkpt>
      <trkpt lat="45.68365" lon="2.80468">
        <ele>852.3</ele>
        <time>2012-06-26T17:33:35Z</time>
      </trkpt>
      <trkpt lat="45.68384" lon="2.80466">
        <ele>852.4</ele>
        <time>2012-06-26T17:33:35Z</time>
      </trkpt>
      <trkpt lat="45.68395" lon="2.80467">
        <ele>852.3</ele>
        <time>2012-06-26T17:33:35Z</time>
      </trkpt>
      <trkpt lat="45.68398" lon="2.80467">
        <ele>852.2</ele>
        <time>2012-06-26T17:33:35Z</time>
      </trkpt>
      <trkpt lat="45.68397" lon="2.80469">
        <ele>852.2</ele>
        <time>2012-06-26T17:33:35Z</time>
      </trkpt>
      <trkpt lat="45.68396" lon="2.80469">
        <ele>852.2</ele>
        <time>2012-06-26T17:33:35Z</time>
      </trkpt>
      <trkpt lat="45.68396" lon="2.80469">
        <ele>852.2</ele>
        <time>2012-06-26T17:33:35Z</time>
      </trkpt>
      <trkpt lat="45.68397" lon="2.80468">
        <ele>852.2</ele>
        <time>2012-06-26T17:33:35Z</time>
      </trkpt>
      <trkpt lat="45.68396" lon="2.80468">
        <ele>852.2</ele>
        <time>2012-06-26T17:33:35Z</time>
      </trkpt>
      <trkpt lat="45.68394" lon="2.80469">
        <ele>852.2</ele>
        <time>2012-06-26T17:33:35Z</time>
      </trkpt>
      <trkpt lat="45.68395" lon="2.80468">
        <ele>852.2</ele>
        <time>2012-06-26T17:33:35Z</time>
      </trkpt>
      <trkpt lat="45.68395" lon="2.80468">
        <ele>852.3</ele>
        <time>2012-06-26T17:33:35Z</time>
      </trkpt>
      <trkpt lat="45.68394" lon="2.80468">
        <ele>852.2</ele>
        <time>2012-06-26T17:33:35Z</time>
      </trkpt>
      <trkpt lat="45.68394" lon="2.80469">
        <ele>852.2</ele>
        <time>2012-06-26T17:33:35Z</time>
      </trkpt>
      <trkpt lat="45.68394" lon="2.80467">
        <ele>852.3</ele>
        <time>2012-06-26T17:33:35Z</time>
      </trkpt>
      <trkpt lat="45.68395" lon="2.80465">
        <ele>852.4</ele>
        <time>2012-06-26T17:33:35Z</time>
      </trkpt>
      <trkpt lat="45.68396" lon="2.80464">
        <ele>852.4</ele>
        <time>2012-06-26T17:33:35Z</time>
      </trkpt>
      <trkpt lat="45.68396" lon="2.80464">
        <ele>852.5</ele>
        <time>2012-06-26T17:33:35Z</time>
      </trkpt>
      <trkpt lat="45.68395" lon="2.80466">
        <ele>852.4</ele>
        <time>2012-06-26T17:33:35Z</time>
      </trkpt>
      <trkpt lat="45.68391" lon="2.80469">
        <ele>852.2</ele>
        <time>2012-06-26T17:33:35Z</time>
      </trkpt>
      <trkpt lat="45.68392" lon="2.80469">
        <ele>852.2</ele>
        <time>2012-06-26T17:33:35Z</time>
      </trkpt>
      <trkpt lat="45.68393" lon="2.80469">
        <ele>852.2</ele>
        <time>2012-06-26T17:33:35Z</time>
      </trkpt>
      <trkpt lat="45.68393" lon="2.80469">
        <ele>852.2</ele>
        <time>2012-06-26T17:33:35Z</time>
      </trkpt>
      <trkpt lat="45.68393" lon="2.80468">
        <ele>852.3</ele>
        <time>2012-06-26T17:33:35Z</time>
      </trkpt>
      <trkpt lat="45.68394" lon="2.80466">
        <ele>852.4</ele>
        <time>2012-06-26T17:33:35Z</time>
      </trkpt>
      <trkpt lat="45.68394" lon="2.8046">
        <ele>852.8</ele>
        <time>2012-06-26T17:33:35Z</time>
      </trkpt>
      <trkpt lat="45.68393" lon="2.80452">
        <ele>853.2</ele>
        <time>2012-06-26T17:33:35Z</time>
      </trkpt>
      <trkpt lat="45.68393" lon="2.80444">
        <ele>853.8</ele>
        <time>2012-06-26T17:33:35Z</time>
      </trkpt>
      <trkpt lat="45.68392" lon="2.80434">
        <ele>854.3</ele>
        <time>2012-06-26T17:33:35Z</time>
      </trkpt>
      <trkpt lat="45.68389" lon="2.80425">
        <ele>854.7</ele>
        <time>2012-06-26T17:33:35Z</time>
      </trkpt>
      <trkpt lat="45.68387" lon="2.80419">
        <ele>855.1</ele>
        <time>2012-06-26T17:33:35Z</time>
      </trkpt>
      <trkpt lat="45.68387" lon="2.80411">
        <ele>855.8</ele>
        <time>2012-06-26T17:33:35Z</time>
      </trkpt>
      <trkpt lat="45.68386" lon="2.80404">
        <ele>856.5</ele>
        <time>2012-06-26T17:33:35Z</time>
      </trkpt>
      <trkpt lat="45.68384" lon="2.80399">
        <ele>857.2</ele>
        <time>2012-06-26T17:33:35Z</time>
      </trkpt>
      <trkpt lat="45.68384" lon="2.80391">
        <ele>857.9</ele>
        <time>2012-06-26T17:33:35Z</time>
      </trkpt>
      <trkpt lat="45.68382" lon="2.80384">
        <ele>858.8</ele>
        <time>2012-06-26T17:33:35Z</time>
      </trkpt>
      <trkpt lat="45.6838" lon="2.80376">
        <ele>859.7</ele>
        <time>2012-06-26T17:33:35Z</time>
      </trkpt>
      <trkpt lat="45.68383" lon="2.80368">
        <ele>860.5</ele>
        <time>2012-06-26T17:33:35Z</time>
      </trkpt>
      <trkpt lat="45.68382" lon="2.80359">
        <ele>861.5</ele>
        <time>2012-06-26T17:33:35Z</time>
      </trkpt>
      <trkpt lat="45.68381" lon="2.80352">
        <ele>862.2</ele>
        <time>2012-06-26T17:33:35Z</time>
      </trkpt>
      <trkpt lat="45.68383" lon="2.80343">
        <ele>863</ele>
        <time>2012-06-26T17:33:35Z</time>
      </trkpt>
      <trkpt lat="45.68383" lon="2.80337">
        <ele>863.7</ele>
        <time>2012-06-26T17:33:35Z</time>
      </trkpt>
      <trkpt lat="45.68382" lon="2.80329">
        <ele>864.2</ele>
        <time>2012-06-26T17:33:35Z</time>
      </trkpt>
      <trkpt lat="45.68382" lon="2.80321">
        <ele>864.6</ele>
        <time>2012-06-26T17:33:35Z</time>
      </trkpt>
      <trkpt lat="45.68382" lon="2.80314">
        <ele>864.9</ele>
        <time>2012-06-26T17:33:35Z</time>
      </trkpt>
      <trkpt lat="45.68382" lon="2.80305">
        <ele>865.3</ele>
        <time>2012-06-26T17:33:35Z</time>
      </trkpt>
      <trkpt lat="45.68384" lon="2.80297">
        <ele>865.8</ele>
        <time>2012-06-26T17:33:35Z</time>
      </trkpt>
      <trkpt lat="45.68385" lon="2.8029">
        <ele>866.3</ele>
        <time>2012-06-26T17:33:35Z</time>
      </trkpt>
      <trkpt lat="45.68386" lon="2.80283">
        <ele>866.7</ele>
        <time>2012-06-26T17:33:35Z</time>
      </trkpt>
      <trkpt lat="45.68386" lon="2.80281">
        <ele>866.9</ele>
        <time>2012-06-26T17:33:35Z</time>
      </trkpt>
      <trkpt lat="45.68387" lon="2.80274">
        <ele>867.2</ele>
        <time>2012-06-26T17:33:35Z</time>
      </trkpt>
      <trkpt lat="45.68389" lon="2.80266">
        <ele>867.4</ele>
        <time>2012-06-26T17:33:35Z</time>
      </trkpt>
      <trkpt lat="45.6839" lon="2.80257">
        <ele>868</ele>
        <time>2012-06-26T17:33:35Z</time>
      </trkpt>
      <trkpt lat="45.6839" lon="2.80249">
        <ele>868.4</ele>
        <time>2012-06-26T17:33:35Z</time>
      </trkpt>
      <trkpt lat="45.68391" lon="2.8024">
        <ele>869.4</ele>
        <time>2012-06-26T17:33:35Z</time>
      </trkpt>
      <trkpt lat="45.68391" lon="2.80231">
        <ele>870.1</ele>
        <time>2012-06-26T17:33:35Z</time>
      </trkpt>
      <trkpt lat="45.68391" lon="2.80222">
        <ele>870.9</ele>
        <time>2012-06-26T17:33:35Z</time>
      </trkpt>
      <trkpt lat="45.68391" lon="2.80214">
        <ele>871.5</ele>
        <time>2012-06-26T17:33:35Z</time>
      </trkpt>
      <trkpt lat="45.6839" lon="2.80207">
        <ele>872.1</ele>
        <time>2012-06-26T17:33:35Z</time>
      </trkpt>
      <trkpt lat="45.6839" lon="2.80199">
        <ele>872.7</ele>
        <time>2012-06-26T17:33:35Z</time>
      </trkpt>
      <trkpt lat="45.6839" lon="2.80191">
        <ele>873.3</ele>
        <time>2012-06-26T17:33:35Z</time>
      </trkpt>
      <trkpt lat="45.68389" lon="2.80184">
        <ele>874.1</ele>
        <time>2012-06-26T17:33:35Z</time>
      </trkpt>
      <trkpt lat="45.68388" lon="2.80179">
        <ele>875</ele>
        <time>2012-06-26T17:33:35Z</time>
      </trkpt>
      <trkpt lat="45.68387" lon="2.80172">
        <ele>876</ele>
        <time>2012-06-26T17:33:35Z</time>
      </trkpt>
      <trkpt lat="45.68386" lon="2.80164">
        <ele>877</ele>
        <time>2012-06-26T17:33:35Z</time>
      </trkpt>
      <trkpt lat="45.68384" lon="2.80157">
        <ele>878</ele>
        <time>2012-06-26T17:33:35Z</time>
      </trkpt>
      <trkpt lat="45.68383" lon="2.8015">
        <ele>878.9</ele>
        <time>2012-06-26T17:33:35Z</time>
      </trkpt>
      <trkpt lat="45.68379" lon="2.80141">
        <ele>880.3</ele>
        <time>2012-06-26T17:33:35Z</time>
      </trkpt>
      <trkpt lat="45.68377" lon="2.80133">
        <ele>881.1</ele>
        <time>2012-06-26T17:33:35Z</time>
      </trkpt>
      <trkpt lat="45.68375" lon="2.80127">
        <ele>881.6</ele>
        <time>2012-06-26T17:33:35Z</time>
      </trkpt>
      <trkpt lat="45.68373" lon="2.80119">
        <ele>881.9</ele>
        <time>2012-06-26T17:33:35Z</time>
      </trkpt>
      <trkpt lat="45.68373" lon="2.80109">
        <ele>882</ele>
        <time>2012-06-26T17:33:35Z</time>
      </trkpt>
      <trkpt lat="45.68371" lon="2.80101">
        <ele>882.9</ele>
        <time>2012-06-26T17:33:35Z</time>
      </trkpt>
      <trkpt lat="45.6837" lon="2.80093">
        <ele>883.5</ele>
        <time>2012-06-26T17:33:35Z</time>
      </trkpt>
      <trkpt lat="45.68369" lon="2.80085">
        <ele>884.1</ele>
        <time>2012-06-26T17:33:35Z</time>
      </trkpt>
      <trkpt lat="45.68368" lon="2.80077">
        <ele>884.9</ele>
        <time>2012-06-26T17:33:35Z</time>
      </trkpt>
      <trkpt lat="45.68368" lon="2.8007">
        <ele>885.7</ele>
        <time>2012-06-26T17:33:35Z</time>
      </trkpt>
      <trkpt lat="45.68367" lon="2.80064">
        <ele>886.5</ele>
        <time>2012-06-26T17:33:35Z</time>
      </trkpt>
      <trkpt lat="45.68366" lon="2.80057">
        <ele>887.3</ele>
        <time>2012-06-26T17:33:35Z</time>
      </trkpt>
      <trkpt lat="45.68365" lon="2.8005">
        <ele>888.3</ele>
        <time>2012-06-26T17:33:35Z</time>
      </trkpt>
      <trkpt lat="45.68365" lon="2.80043">
        <ele>889.4</ele>
        <time>2012-06-26T17:33:35Z</time>
      </trkpt>
      <trkpt lat="45.68362" lon="2.80036">
        <ele>890.7</ele>
        <time>2012-06-26T17:33:35Z</time>
      </trkpt>
      <trkpt lat="45.6836" lon="2.80031">
        <ele>891.6</ele>
        <time>2012-06-26T17:33:35Z</time>
      </trkpt>
      <trkpt lat="45.68358" lon="2.80026">
        <ele>892.7</ele>
        <time>2012-06-26T17:33:35Z</time>
      </trkpt>
      <trkpt lat="45.68355" lon="2.80021">
        <ele>893.7</ele>
        <time>2012-06-26T17:33:35Z</time>
      </trkpt>
      <trkpt lat="45.68353" lon="2.80015">
        <ele>894.8</ele>
        <time>2012-06-26T17:33:35Z</time>
      </trkpt>
      <trkpt lat="45.68351" lon="2.80009">
        <ele>895.8</ele>
        <time>2012-06-26T17:33:35Z</time>
      </trkpt>
      <trkpt lat="45.68349" lon="2.80003">
        <ele>896.7</ele>
        <time>2012-06-26T17:33:35Z</time>
      </trkpt>
      <trkpt lat="45.68347" lon="2.79997">
        <ele>897.3</ele>
        <time>2012-06-26T17:33:35Z</time>
      </trkpt>
      <trkpt lat="45.68349" lon="2.79991">
        <ele>897.8</ele>
        <time>2012-06-26T17:33:35Z</time>
      </trkpt>
      <trkpt lat="45.68351" lon="2.79984">
        <ele>898.4</ele>
        <time>2012-06-26T17:33:35Z</time>
      </trkpt>
      <trkpt lat="45.68355" lon="2.7998">
        <ele>898.6</ele>
        <time>2012-06-26T17:33:35Z</time>
      </trkpt>
      <trkpt lat="45.6836" lon="2.79979">
        <ele>898.6</ele>
        <time>2012-06-26T17:33:35Z</time>
      </trkpt>
      <trkpt lat="45.68366" lon="2.79976">
        <ele>898.5</ele>
        <time>2012-06-26T17:33:35Z</time>
      </trkpt>
      <trkpt lat="45.68369" lon="2.79969">
        <ele>899.2</ele>
        <time>2012-06-26T17:33:35Z</time>
      </trkpt>
      <trkpt lat="45.68366" lon="2.79963">
        <ele>900.1</ele>
        <time>2012-06-26T17:33:35Z</time>
      </trkpt>
      <trkpt lat="45.68362" lon="2.79959">
        <ele>900.9</ele>
        <time>2012-06-26T17:33:35Z</time>
      </trkpt>
      <trkpt lat="45.68357" lon="2.79958">
        <ele>901.2</ele>
        <time>2012-06-26T17:33:35Z</time>
      </trkpt>
      <trkpt lat="45.68351" lon="2.79955">
        <ele>901.8</ele>
        <time>2012-06-26T17:33:35Z</time>
      </trkpt>
      <trkpt lat="45.68347" lon="2.79953">
        <ele>902.3</ele>
        <time>2012-06-26T17:33:35Z</time>
      </trkpt>
      <trkpt lat="45.68342" lon="2.79951">
        <ele>902.8</ele>
        <time>2012-06-26T17:33:35Z</time>
      </trkpt>
      <trkpt lat="45.68334" lon="2.7995">
        <ele>903.2</ele>
        <time>2012-06-26T17:33:35Z</time>
      </trkpt>
      <trkpt lat="45.68332" lon="2.79948">
        <ele>903.5</ele>
        <time>2012-06-26T17:33:35Z</time>
      </trkpt>
      <trkpt lat="45.68329" lon="2.79946">
        <ele>904</ele>
        <time>2012-06-26T17:33:35Z</time>
      </trkpt>
      <trkpt lat="45.68325" lon="2.79944">
        <ele>904.4</ele>
        <time>2012-06-26T17:33:35Z</time>
      </trkpt>
      <trkpt lat="45.68318" lon="2.79941">
        <ele>905</ele>
        <time>2012-06-26T17:33:35Z</time>
      </trkpt>
      <trkpt lat="45.68313" lon="2.79939">
        <ele>905.4</ele>
        <time>2012-06-26T17:33:35Z</time>
      </trkpt>
      <trkpt lat="45.68308" lon="2.79937">
        <ele>905.8</ele>
        <time>2012-06-26T17:33:35Z</time>
      </trkpt>
      <trkpt lat="45.68302" lon="2.79934">
        <ele>906.5</ele>
        <time>2012-06-26T17:33:35Z</time>
      </trkpt>
      <trkpt lat="45.68294" lon="2.79934">
        <ele>907.6</ele>
        <time>2012-06-26T17:33:35Z</time>
      </trkpt>
      <trkpt lat="45.68289" lon="2.79934">
        <ele>908.3</ele>
        <time>2012-06-26T17:33:35Z</time>
      </trkpt>
      <trkpt lat="45.68284" lon="2.79933">
        <ele>909</ele>
        <time>2012-06-26T17:33:35Z</time>
      </trkpt>
      <trkpt lat="45.68278" lon="2.79933">
        <ele>909.8</ele>
        <time>2012-06-26T17:33:35Z</time>
      </trkpt>
      <trkpt lat="45.68274" lon="2.79931">
        <ele>910.4</ele>
        <time>2012-06-26T17:33:35Z</time>
      </trkpt>
      <trkpt lat="45.6827" lon="2.7993">
        <ele>910.9</ele>
        <time>2012-06-26T17:33:35Z</time>
      </trkpt>
      <trkpt lat="45.68265" lon="2.79929">
        <ele>911.5</ele>
        <time>2012-06-26T17:33:35Z</time>
      </trkpt>
      <trkpt lat="45.6826" lon="2.79929">
        <ele>912.1</ele>
        <time>2012-06-26T17:33:35Z</time>
      </trkpt>
      <trkpt lat="45.68254" lon="2.79928">
        <ele>912.7</ele>
        <time>2012-06-26T17:33:35Z</time>
      </trkpt>
      <trkpt lat="45.68249" lon="2.79928">
        <ele>913.3</ele>
        <time>2012-06-26T17:33:35Z</time>
      </trkpt>
      <trkpt lat="45.68244" lon="2.79929">
        <ele>914.1</ele>
        <time>2012-06-26T17:33:35Z</time>
      </trkpt>
      <trkpt lat="45.68239" lon="2.7993">
        <ele>914.8</ele>
        <time>2012-06-26T17:33:35Z</time>
      </trkpt>
      <trkpt lat="45.68234" lon="2.7993">
        <ele>915.7</ele>
        <time>2012-06-26T17:33:35Z</time>
      </trkpt>
      <trkpt lat="45.68228" lon="2.79931">
        <ele>916.5</ele>
        <time>2012-06-26T17:33:35Z</time>
      </trkpt>
      <trkpt lat="45.68223" lon="2.79933">
        <ele>917.3</ele>
        <time>2012-06-26T17:33:35Z</time>
      </trkpt>
      <trkpt lat="45.68219" lon="2.79934">
        <ele>917.8</ele>
        <time>2012-06-26T17:33:35Z</time>
      </trkpt>
      <trkpt lat="45.68215" lon="2.79935">
        <ele>918.3</ele>
        <time>2012-06-26T17:33:35Z</time>
      </trkpt>
      <trkpt lat="45.6821" lon="2.79937">
        <ele>918.9</ele>
        <time>2012-06-26T17:33:35Z</time>
      </trkpt>
      <trkpt lat="45.68207" lon="2.7994">
        <ele>919.2</ele>
        <time>2012-06-26T17:33:35Z</time>
      </trkpt>
      <trkpt lat="45.68206" lon="2.7994">
        <ele>919.3</ele>
        <time>2012-06-26T17:33:35Z</time>
      </trkpt>
      <trkpt lat="45.68206" lon="2.7994">
        <ele>919.4</ele>
        <time>2012-06-26T17:33:35Z</time>
      </trkpt>
      <trkpt lat="45.68206" lon="2.79939">
        <ele>919.4</ele>
        <time>2012-06-26T17:33:35Z</time>
      </trkpt>
      <trkpt lat="45.68206" lon="2.79942">
        <ele>919.4</ele>
        <time>2012-06-26T17:33:35Z</time>
      </trkpt>
      <trkpt lat="45.68205" lon="2.79943">
        <ele>919.4</ele>
        <time>2012-06-26T17:33:35Z</time>
      </trkpt>
      <trkpt lat="45.68205" lon="2.79943">
        <ele>919.5</ele>
        <time>2012-06-26T17:33:35Z</time>
      </trkpt>
      <trkpt lat="45.68204" lon="2.79946">
        <ele>919.7</ele>
        <time>2012-06-26T17:33:35Z</time>
      </trkpt>
      <trkpt lat="45.68202" lon="2.79953">
        <ele>919.9</ele>
        <time>2012-06-26T17:33:35Z</time>
      </trkpt>
      <trkpt lat="45.68201" lon="2.79956">
        <ele>920</ele>
        <time>2012-06-26T17:33:35Z</time>
      </trkpt>
    </trkseg>
  </trk>
</gpx>